     2              OBSERVATION DATA    GPS                 RINEX VERSION / TYPE
ASHTORIN MIT 28 - OCT - 96 10:55                            PGM / RUN BY / DATE
                                                            COMMENT
CHINA LAKE 1996 P-Code Ashtech data EXPT #2                 COMMENT
Original Marker Name: GS03                                  COMMENT
Campaign Name: China Lake Nov 1996                          COMMENT
4-Character Station Name: GS03                              COMMENT
6-Character Antenna Code: ASHP12                            COMMENT
Vertical Measurement Point: TGP                             COMMENT
Vertical Offset to Rinex Ref. Point: 0.0640                 COMMENT
Radial Measurement Point: RRP                               COMMENT
Radial Offset to Rinex Ref. Point: 0.0000                   COMMENT
Antenna Height from Field Measurement: 0.2320 m             COMMENT
Additional Antenna Identification Info.:                    COMMENT
Ashtech L1/L2 Revision B (700228DE)                         COMMENT
Original XYZ: -2455781.9300 -4602727.8900 3658823.2300      COMMENT
New XYZ position is based on association with SCEC monument COMMENT
E1F4D4G6+0011. Position of that monument is believed to be  COMMENT
valid to within 1 m horizontally; vertical accuracy         COMMENT
should be no worse than 3-times this value.                 COMMENT
                                                            COMMENT
Revised Rinex header created by UCSD GPS archive for        COMMENT
GSAC on 01-Aug-2000 (2000:214) 03:28:22 GMT                 COMMENT
For assistance contact dagnew@ucsd.edu                      COMMENT
or anderson@python.ucsd.edu                                 COMMENT
                                                            COMMENT
NONE                                                        MARKER NAME
                                                            MARKER NUMBER
LCS US DEFENSE MAPPING AGENCY                               OBSERVER / AGENCY
456 ASHTECH Z-XII3 1G001C7                                  REC # / TYPE / VERS
443 ASHTECH GEODETIC P                                      ANT # / TYPE
 -2438833.9680 -4579951.4357  3699196.7787                  APPROX POSITION XYZ
        0.1680        0.0000        0.0000                  ANTENNA: DELTA H/E/N
     1     1     0                                          WAVELENGTH FACT L1/2
     7    L1    L2    C1    P1    P2    D1    D2            # / TYPES OF OBSERV
    30                                                      INTERVAL
  1996    10    10    15    18    0.000000                  TIME OF FIRST OBS
  1996    10    10    21    29   60.000000                  TIME OF LAST OBS
                                                            END OF HEADER
 96 10 10 15 18  0.0000000  0  8 30 17 28 26  6 23 22 10             0.000949657
     60050.98219     36408.40352  21792368.701           0.0005          0.0005
     -2298.197       -1790.803
    -62108.88219    -35401.62857  18719666.207           0.0005          0.0005
      2243.963        1748.543
   -115121.30419    -67015.86955  20302174.894           0.0005          0.0005
      4224.572        3291.874
    -62875.84419    -36980.19158  20098018.823           0.0005   20098020.5785
      2332.037        1817.172
    -15632.76019     -9002.98658  18079038.192           0.0005   18079045.7115
       441.763         344.231
    -94267.47819    -55169.91458  19454102.254           0.0005   19454106.6385
      3481.646        2712.971
    -63037.62819    -37658.17651  21416610.699           0.0005          0.0005
      2375.624        1851.136
     18193.37019      3988.73952  22513792.543           0.0005          0.0005
     -2234.140       -1740.888
 96 10 10 15 18 30.0000000  0  9 30 17 28 26  6 23 22 10 21          0.000925969
    128898.556 9     90056.04356  21805468.530           0.0005   21805473.3555
     -2290.777       -1785.021
   -129419.136 9    -87525.16756  18706856.196           0.0004          0.0005
      2244.215        1748.739
   -241857.138 9   -166000.94855  20278055.607           0.0004          0.0005
      4225.317        3292.455
   -132665.275 9    -91361.52947  20084737.012    20084733.3795   20084739.8464
      2321.247        1808.764
    -28719.279 9    -19200.28648  18076549.657    18076549.7115   18076555.4134
       431.679         336.373
   -198602.309 9   -136469.77448  19434246.579    19434246.0245   19434252.2954
      3474.789        2707.628
   -134148.720 9    -93069.50356  21403072.665           0.0005   21403081.4395
      2366.127        1843.735
     85139.568 9     56154.09856  22526531.338           0.0004          0.0005
     -2228.190       -1736.252
   -121453.59919    -70960.03352  22570667.776           0.0005          0.0005
      4491.680        3500.010
 96 10 10 15 19  0.0000000  0  8 30 17 28 26  6 23 22 10             0.000514157
    197537.612 9    143540.97646  24216876.979    24216868.0655   24216874.3054
     -2285.305       -1780.757
   -196668.707 9   -139464.81555  21092400.556           0.0004          0.0005
      2241.509        1746.630
   -368538.166 9   -264959.92517  22652288.971           0.000           0.0001
      4223.526        3291.059
   -202051.280 9   -145428.53047  22469865.447    22469869.5384   22469875.5724
      2307.019        1797.677
    -41474.438 9    -29139.38448  20472462.286    20472462.1894   20472467.9084
       420.111         327.359
   -302651.666 9   -217547.18048  21812785.758    21812785.7564   21812792.0714
      3464.978        2699.983
   -204924.690 9   -148219.61446  23787946.678    23787946.1505   23787952.6684
      2354.779        1834.893
    151932.869 9    108200.86356  24937580.042           0.0004   24937588.7815
     -2224.805       -1733.614
 96 10 10 15 19 30.0000000  0  9 30 17 28 26  6 23 22 10 21          0.000490313
    266029.758 9    196911.43256  24229914.011    24229901.5755   24229908.3755
     -2280.505       -1777.017
   -263871.490 9    -31913.38258  21079611.093           0.0005   21079618.2305
      2239.101        1744.754
   -495211.461 9    -60064.55616  22628184.036           0.0001          0.0001
      4221.802        3289.716
   -271046.544 9   -199191.06158  22456743.597    22456740.2525   22456746.2685
      2293.275        1786.967
    -53902.438 9    -38823.54158  20470096.247    20470097.2455   20470102.9835
       408.848         318.583
   -406450.480 9   -298429.36258  21793032.338    21793033.5025   21793039.8525
      3455.423        2692.537
   -275395.988 9   -203132.31756  23774536.407    23774535.9355   23774542.4175
      2343.643        1826.215
    218627.951 8    160171.02446  24950276.648    24950272.2995   24950281.6884
     -2221.221       -1730.822
   -390942.828 9   -280951.83756  24917722.273    24917723.7835   24917732.6335
      4493.420        3501.366
 96 10 10 15 20  0.0000000  0  9 30 17 28 26  6 23 22 10 21          0.000466358
    334391.030 9    250179.91546  24242916.801    24242910.3384   24242917.2234
     -2276.756       -1774.096
   -330997.921 9    -84219.68648  21066837.724    21066838.1185   21066844.5604
      2236.283        1742.558
   -621829.209 9   -158577.17114  22604088.712    22604088.8981          0.0001
      4219.685        3288.066
   -339633.295 9   -252635.26048  22443691.624    22443688.8164   22443694.8534
      2279.512        1776.243
    -65992.135 9    -48244.09048  20467796.322    20467796.7224   20467802.4514
       397.319         309.599
   -509964.613 9   -379089.71148  21773335.236    21773335.3984   21773341.8044
      3445.957        2685.161
   -345526.891 9   -257779.77746  23761192.983    23761190.5184   23761196.9894
      2331.881        1817.050
    285214.690 8    212056.73956  24962950.722    24962943.0265   24962951.8485
     -2217.569       -1727.976
   -525746.340 9   -385993.53156  24892071.393    24892072.7025   24892079.8535
      4493.569        3501.482
 96 10 10 15 20 30.0000000  0  9 30 17 28 26  6 23 22 10 21          0.000442341
    402670.691 8    303384.77646  24255906.387    24255903.5194   24255910.4534
     -2274.276       -1772.163
   -398021.186 9   -136445.60548  21054083.843    21054083.9814   21054090.4884
      2232.697        1739.764
   -748366.400 9   -256888.95716  22580009.865    22580009.729           0.0001
      4216.863        3285.867
   -407792.570 9   -305746.34348  22430719.643    22430718.5494   22430724.5394
      2265.246        1765.127
    -77711.505 9    -57376.07448  20465566.434    20465566.6364   20465572.3644
       384.670         299.743
   -613192.672 9   -459527.14648  21753692.019    21753691.7854   21753698.1864
      3436.818        2678.040
   -415284.082 9   -312136.03646  23747917.575    23747916.1214   23747922.7274
      2319.090        1807.083
    351713.080 8    263873.64446  24975602.888    24975598.1274   24975606.1764
     -2215.155       -1726.095
   -660533.583 9   -491022.52046  24866425.644    24866422.8734   24866430.8964
      4493.058        3501.084
 96 10 10 15 21  0.0000000  0  9 30 17 28 26  6 23 22 10 21          0.000418276
    470881.851 9    356536.29746  24268885.632    24268883.6524   24268890.7204
     -2272.615       -1770.869
   -464934.812 9   -188586.09248  21041350.902    21041350.7814   21041357.2744
      2228.812        1736.737
   -874814.767 9    -53452.84419  22555947.590           0.0001   22555953.0491
      4213.496        3283.244
   -475528.312 9   -358527.43648  22417829.486    22417828.9324   22417834.7894
      2251.193        1754.176
    -89041.599 9    -66204.73248  20463410.455    20463410.6104   20463416.3544
       371.032         289.116
   -716149.522 9   -539753.24848  21734099.876    21734099.7884   21734106.1514
      3427.623        2670.875
   -484641.374 9   -366180.67246  23734719.076    23734717.8664   23734724.5274
      2305.225        1796.279
    418147.487 8    315640.69545  24988243.910    24988240.2544   24988248.3984
     -2213.369       -1724.703
   -795301.093 9   -596036.15046  24840780.394    24840777.4434   24840785.3384
      4491.878        3500.165
 96 10 10 15 21 30.0000000  0  9 30 17 28 26  6 23 22 10 21          0.000394164
    539052.184 9    409655.98846  24281857.391    24281856.1244   24281863.2364
     -2271.809       -1770.241
   -531727.860 9   -240632.61948  21028640.592    21028640.4934   21028646.9944
      2223.985        1732.975
  -1001153.000 9   -151898.217 9  22531905.976    22531906.1271   22531911.654
      4209.115        3279.830
   -542844.238 9   -410981.37848  22405020.151    22405019.1814   22405025.0024
      2236.499        1742.726
    -99941.580 9    -74698.23048  20461336.404    20461336.4374   20461342.2044
       355.780         277.231
   -818835.973 9   -619768.64748  21714559.383    21714559.2244   21714565.5974
      3418.185        2663.521
   -553568.656 9   -419890.25346  23721603.150    23721601.4084   23721608.1424
      2290.038        1784.445
    484535.165 8    367371.30045  25000876.635    25000873.4684   25000881.5944
     -2212.540       -1724.057
   -930022.502 9   -701013.84646  24815143.833    24815140.9314   24815148.6014
      4489.756        3498.511
 96 10 10 15 22  0.0000000  0  9 30 17 28 26  6 23 22 10 21          0.000370016
    607203.276 8    462760.68246  24294825.695    24294824.8714   24294832.1604
     -2271.183       -1769.753
   -598347.706 9   -292544.18348  21015963.413    21015963.1584   21015969.6664
      2217.792        1728.150
  -1127340.376 9   -250226.030 9  22507893.723    22507893.481    22507898.987
      4203.669        3275.586
   -609698.054 9   -463075.23548  22392297.916    22392297.3044   22392303.2024
      2220.587        1730.328
   -110366.165 9    -82821.28848  20459352.899    20459352.7334   20459358.4874
       339.625         264.643
   -921221.664 9   -699549.69048  21695076.050    21695075.8784   21695082.2374
      3407.797        2655.426
   -622021.303 9   -473230.00647  23708576.624    23708575.3124   23708582.0894
      2273.849        1771.830
    550911.147 8    419092.83545  25013507.448    25013504.3064   25013512.4964
     -2212.289       -1723.861
  -1064664.258 9   -805929.49246  24789522.522    24789519.5064   24789527.1714
      4486.694        3496.125
 96 10 10 15 22 30.0000000  0  9 30 17 28 26  6 23 22 10 21          0.000345840
    675316.034 8    515835.51846  24307787.731    24307786.2934   24307793.5824
     -2268.870       -1767.951
   -664792.434 9   -344319.29548  21003319.321    21003319.1734   21003325.7064
      2212.562        1724.074
  -1253372.875 9   -348433.169 9  22483910.667    22483910.287    22483915.830
      4199.099        3272.025
   -676080.770 9   -514802.00548  22379665.222    22379665.1204   22379670.9664
      2205.379        1718.477
   -120326.495 9    -90582.59548  20457457.654    20457457.4024   20457463.1454
       325.241         253.435
  -1023307.512 9   -779097.09648  21675649.946    21675649.5984   21675655.9364
      3398.466        2648.155
   -689998.980 9   -526199.63447  23695640.028    23695639.6764   23695646.4084
      2258.567        1759.922
    617270.880 8    470801.63345  25026134.817    25026132.0594   25026140.3394
     -2211.258       -1723.058
  -1199232.204 9   -910787.61346  24763914.433    24763912.1144   24763919.8194
      4485.233        3494.987
 96 10 10 15 23  0.0000000  0  9 30 17 28 26  6 23 22 10 21          0.000321653
    743384.664 8    568875.96346  24320740.919    24320739.2674   24320746.7904
     -2268.385       -1767.573
   -731050.350 9   -395948.83448  20990710.860    20990710.7264   20990717.2624
      2205.125        1718.279
  -1379235.947 9   -446508.279 9  22459959.958    22459959.335    22459964.895
      4192.220        3266.665
   -741964.932 9   -566140.29148  22367128.166    22367127.7984   22367133.5764
      2187.383        1704.454
   -129832.102 9    -97989.56448  20455648.905    20455648.5434   20455654.3034
       309.065         240.830
  -1125073.938 9   -858395.58748  21656284.809    21656284.0734   21656290.4524
      3386.522        2638.848
   -757486.584 9   -578787.37747  23682796.789    23682797.3304   23682803.9594
      2241.201        1746.390
    683622.711 7    522504.32245  25038760.158    25038758.1424   25038766.3994
     -2211.782       -1723.466
  -1333720.741 9  -1015583.86146  24738321.140    24738319.6244   24738327.6044
      4481.081        3491.751
 96 10 10 15 23 30.0000000  0  9 30 17 28 26  6 23 22 10 21          0.000297459
    811394.279 9    621870.40546  24333681.853    24333681.1454   24333688.6684
     -2265.938       -1765.666
   -797111.176 9   -447424.80448  20978139.961    20978139.8094   20978146.3334
      2198.585        1713.183
  -1504920.394 9   -544444.203 9  22436043.039    22436042.393    22436047.965
      4186.253        3262.015
   -807329.434 9   -617073.64748  22354689.293    22354689.2844   22354695.1124
      2169.800        1690.753
   -138887.030 9   -105045.36548  20453925.798    20453925.4494   20453931.2074
       294.121         229.185
  -1226514.800 9   -937440.40248  21636981.213    21636980.5564   21636986.9204
      3375.545        2630.295
   -824480.154 9   -630990.17347  23670048.544    23670048.9464   23670055.5084
      2224.619        1733.469
    749959.81516    574195.52954  25051382.947    25051387.4105          0.0005
     -2211.650       -1723.364
  -1468104.127 9  -1120298.16946  24712748.374    24712747.2964   24712755.3434
      4477.229        3488.750
 96 10 10 15 24  0.0000000  0  9 30 17 28 26  6 23 22 10 21          0.000273282
    879352.562 9    674824.86446  24346615.114    24346613.2504   24346620.7344
     -2264.784       -1764.767
   -862964.620 9   -498739.17748  20965608.516    20965608.3224   20965614.8014
      2191.538        1707.692
  -1630401.584 9   -642221.746 9  22412164.443    22412164.131    22412169.699
      4178.931        3256.310
   -872141.330 9   -667576.40748  22342355.983    22342355.8844   22342361.8204
      2150.811        1675.957
   -147473.568 9   -111736.17348  20452291.962    20452291.5034   20452297.2594
       278.039         216.654
  -1327591.749 9  -1016201.64848  21617746.970    21617746.3084   21617752.6344
      3362.547        2620.166
   -890955.279 9   -682788.99447  23657398.879    23657399.2014   23657405.7294
      2206.832        1719.609
    816300.94016    625889.89454  25064006.843           0.0005          0.0005
     -2211.217       -1723.026
  -1602342.701 9  -1224899.64646  24687203.672    24687202.5564   24687210.5934
      4471.833        3484.545
 96 10 10 15 24 30.0000000  0  8 30 17 28 26  6 23 22 21             0.000249139
    947290.098 8    727763.16646  24359542.374    24359541.3664   24359548.8264
     -2263.658       -1763.889
   -928584.145 9   -549871.27048  20953121.452    20953121.3324   20953127.8084
      2183.779        1701.646
  -1755639.013 9   -739809.345 9  22388332.508    22388332.258    22388337.813
      4170.995        3250.126
   -936359.989 9   -717616.90848  22330135.150    22330135.5304   22330141.5094
      2131.201        1660.676
   -155550.715 9   -118030.06348  20450754.862    20450754.5084   20450760.2464
       260.990         203.369
  -1428252.700 9  -1094638.73648  21598591.723    21598591.1894   21598597.4964
      3348.908        2609.539
   -956876.186 9   -734155.95847  23644855.794    23644854.9134   23644861.4704
      2188.675        1705.461
  -1736395.269 9  -1329356.19446  24661693.889    24661693.2054   24661701.1214
      4465.821        3479.861
 96 10 10 15 25  0.0000000  0  8 30 17 28 26  6 23 22 21             0.000225007
   1015193.260 9    780674.65946  24372463.588    24372463.0084   24372470.4674
     -2263.183       -1763.519
   -993976.311 9   -600826.20148  20940677.761    20940677.6294   20940684.0854
      2175.790        1695.421
  -1880645.232 9   -837216.777 9  22364544.877    22364544.395    22364549.913
      4162.775        3243.721
  -1000000.820 9   -767207.13748  22318024.856    22318025.1894   22318031.1584
      2111.694        1645.476
   -163106.756 9   -123917.90048  20449317.043    20449316.6884   20449322.4404
       242.642         189.072
  -1528504.457 9  -1172756.97548  21579514.363    21579513.9554   21579520.2224
      3334.660        2598.436
  -1022264.416 9   -785107.84647  23632412.026    23632411.9944   23632418.5504
      2170.516        1691.311
  -1870265.802 9  -1433670.89346  24636218.202    24636218.5554   24636226.4804
      4459.120        3474.639
 96 10 10 15 25 30.0000000  0  8 30 17 28 26  6 23 22 21             0.000200885
   1083078.219 9    833572.00546  24385381.645    24385381.2514   24385388.5984
     -2263.286       -1763.599
  -1059134.379 9   -651598.72248  20928278.806    20928278.4874   20928284.9144
      2167.427        1688.904
  -2005405.585 9   -934432.627 9  22340803.465    22340803.290    22340808.769
      4153.848        3236.765
  -1063064.477 9   -816347.62348  22306024.274    22306024.6134   22306030.5614
      2091.774        1629.954
   -170107.905 9   -129373.34848  20447984.698    20447984.4504   20447990.2084
       223.364         174.050
  -1628328.359 9  -1250541.81848  21560518.542    21560518.1074   21560524.3634
      3319.371        2586.523
  -1087102.600 9   -835631.11747  23620073.372    23620073.7194   23620080.2644
      2151.317        1676.351
  -2003948.607 9  -1537839.29446  24610779.854    24610779.5994   24610787.5134
      4452.425        3469.422
 96 10 10 15 26  0.0000000  0  8 30 17 28 26  6 23 22 21             0.000176790
   1150973.011 9    886476.97046  24398301.923    24398301.2694   24398308.7054
     -2262.292       -1762.825
  -1124043.313 9   -702177.10848  20915926.948    20915926.7484   20915933.1844
      2160.339        1683.381
  -2129896.737 9  -1031438.708 9  22317113.835    22317113.436    22317118.884
      4146.162        3230.776
  -1125532.391 9   -865023.91048  22294137.105    22294137.3914   22294143.2114
      2073.479        1615.698
   -176534.807 9   -134381.33148  20446761.593    20446761.4694   20446767.2504
       205.825         160.383
  -1727685.738 9  -1327963.13848  21541611.527    21541611.0544   21541617.3044
      3305.180        2575.465
  -1151369.224 9   -885709.00247  23607843.877    23607844.2654   23607850.8054
      2133.750        1662.662
  -2137442.682 9  -1641860.62946  24585376.781    24585376.6494   24585384.4204
      4447.924        3465.915
 96 10 10 15 26 30.0000000  0  8 30 17 28 26  6 23 22 21             0.000152704
   1218856.154 8    939372.88346  24411219.513    24411219.0464   24411226.5184
     -2263.078       -1763.437
  -1188704.012 9   -752562.06248  20903622.361    20903622.2334   20903628.6964
      2150.745        1675.905
  -2254133.315 9  -1128246.422 9  22293472.205    22293472.015    22293477.471
      4136.594        3223.320
  -1187431.258 9   -913256.79248  22282358.706    22282358.4984   22282364.2184
      2053.504        1600.133
   -182415.571 9   -138963.75148  20445642.589    20445642.4154   20445648.2054
       186.620         145.418
  -1826593.465 9  -1405034.07848  21522790.104    21522789.5284   21522795.7954
      3289.112        2562.944
  -1215081.465 9   -935354.91747  23595720.601    23595720.3254   23595726.8414
      2114.113        1647.361
  -2270777.563 9  -1745757.92146  24560005.168    24560003.9934   24560011.6724
      4441.313        3460.763
 96 10 10 15 27  0.0000000  0  8 30 17 28 26  6 23 22 21             0.000128641
   1286754.691 9    992280.77446  24424139.852    24424139.7674   24424147.2344
     -2263.108       -1763.461
  -1253105.524 9   -802745.05948  20891367.202    20891367.0504   20891373.5314
      2143.056        1669.914
  -2378096.550 9  -1224841.137 9  22269882.685    22269882.576    22269888.078
      4127.930        3216.569
  -1248748.921 9   -961036.77248  22270689.816    22270690.0784   22270695.7684
      2034.604        1585.406
   -187743.723 9   -143115.56648  20444628.787    20444628.5434   20444634.2734
       168.995         131.684
  -1925030.742 9  -1481738.43348  21504058.055    21504057.5534   21504063.8164
      3273.702        2550.937
  -1278208.873 9   -984545.10947  23583708.078    23583707.5584   23583714.1254
      2094.660        1632.203
  -2403930.587 9  -1849513.51246  24534666.906    24534665.7694   24534673.4044
      4435.884        3456.533
 96 10 10 15 27 30.0000000  0  8 30 17 28 26  6 23 22 21             0.000104616
   1354647.250 9   1045184.02746  24437059.837    24437059.3584   24437066.7734
     -2262.854       -1763.263
  -1317277.678 9   -852749.33448  20879155.611    20879155.5264   20879161.9844
      2135.124        1663.733
  -2501797.385 9  -1321231.390 9  22246343.110    22246343.094    22246348.628
      4118.877        3209.515
  -1309491.458 9  -1008368.60348  22259131.372    22259131.0744   22259136.8844
      2014.927        1570.073
   -192552.984 9   -146863.05248  20443713.699    20443713.4184   20443719.1384
       151.821         118.302
  -2023007.651 9  -1558084.06748  21485413.545    21485413.1714   21485419.4204
      3258.235        2538.884
  -1340753.662 9  -1033281.32447  23571805.749    23571805.7654   23571812.3154
      2075.263        1617.088
  -2536919.843 9  -1953141.50146  24509359.168    24509358.6854   24509366.3934
      4429.933        3451.896
 96 10 10 15 28  0.0000000  0  8 30 17 28 26  6 23 22 21             0.000080644
   1422565.426 9   1098107.23546  24449984.183    24449983.7684   24449991.1594
     -2264.524       -1764.564
  -1381177.265 9   -902541.21648  20866995.975    20866995.8604   20867002.3234
      2125.263        1656.049
  -2625198.164 9  -1417387.833 9  22222860.709    22222860.700    22222866.251
      4108.233        3201.221
  -1369616.218 9  -1055219.04948  22247689.560    22247689.6154   22247695.5644
      1993.900        1553.688
   -196821.449 9   -150189.13348  20442901.418    20442901.1944   20442906.8934
       133.084         103.702
  -2120498.374 9  -1634050.84648  21466861.844    21466861.3084   21466867.5424
      3241.803        2526.080
  -1402700.691 9  -1081551.75047  23560017.999    23560017.6154   23560024.1914
      2055.015        1601.310
  -2669697.949 9  -2056604.93346  24484092.233    24484091.8594   24484099.6164
      4422.299        3445.947
 96 10 10 15 28 30.0000000  0  8 30 17 28 26  6 23 22 21             0.000056722
   1490514.697 8   1151054.66846  24462913.679    24462914.0934   24462921.5424
     -2265.137       -1765.042
  -1444798.187 9   -952115.95448  20854889.344    20854889.2364   20854895.6894
      2116.597        1649.296
  -2748297.882 9  -1513309.681 9  22199435.824    22199435.605    22199441.184
      4098.861        3193.918
  -1429128.691 9  -1101592.39648  22236364.622    22236364.7854   22236370.7224
      1974.062        1538.230
   -200537.852 9   -153085.04148  20442194.257    20442194.0384   20442199.7184
       114.994          89.606
  -2217523.755 9  -1709655.02348  21448398.464    21448397.9884   21448404.2434
      3227.183        2514.688
  -1464061.429 9  -1129365.31047  23548342.084    23548341.0404   23548347.6384
      2036.134        1586.598
  -2802261.403 9  -2159901.11246  24458865.887    24458865.9054   24458873.6414
      4415.603        3440.730
 96 10 10 15 29  0.0000000  0  8 30 17 28 26  6 23 22 21             0.000032847
   1558500.465 8   1204030.53246  24475849.700    24475851.3894   24475858.7814
     -2267.048       -1766.531
  -1508150.323 9  -1001481.25548  20842833.796    20842833.7174   20842840.1904
      2106.894        1641.736
  -2871104.076 9  -1609002.809 9  22176066.748    22176066.377    22176071.959
      4088.193        3185.605
  -1488032.310 9  -1147491.32248  22225155.751    22225155.8744   22225161.6624
      1952.916        1521.753
   -203694.522 9   -155544.79348  20441593.460    20441593.3474   20441599.0574
        95.459          74.384
  -2314110.936 9  -1784917.74648  21430018.797    21430018.0724   21430024.3094
      3212.093        2502.930
  -1524843.376 9  -1176727.88447  23536776.228    23536774.5854   23536781.2454
      2016.155        1571.030
  -2934614.171 9  -2263033.12246  24433679.756    24433680.0814   24433687.7634
      4407.970        3434.782
 96 10 10 15 29 30.0000000  0  8 30 17 28 26  6 23 22 21             0.000009019
   1626518.128 8   1257031.26446  24488794.919    24488794.9194   24488802.3394
     -2269.010       -1768.060
  -1571227.196 9  -1050632.06348  20830830.728    20830830.5904   20830837.0724
      2096.734        1633.819
  -2993611.651 9  -1704463.248 9  22152754.333    22152753.951    22152759.522
      4077.370        3177.171
  -1546320.323 9  -1192910.55948  22214063.977    22214064.1854   22214069.8254
      1931.508        1505.071
   -206282.614 9   -157561.49448  20441100.879    20441100.8854   20441106.5744
        75.637          58.938
  -2410278.121 9  -1859853.20148  21411718.780    21411718.0624   21411724.3204
      3197.520        2491.574
  -1585060.270 9  -1223650.15447  23525316.836    23525315.6544   23525322.3534
      1996.687        1555.860
  -3066758.916 9  -2366003.02346  24408533.720    24408533.6794   24408541.5744
      4400.049        3428.610
 96 10 10 15 30  0.0000000  0  8 30 17 28 26  6 23 22 21            -0.000014771
   1694569.089 8   1310057.91846  24501744.366    24501744.7024   24501752.0934
     -2268.839       -1767.926
  -1634026.836 9  -1099566.84748  20818880.333    20818880.2574   20818886.7154
      2088.812        1627.646
  -3115817.132 9  -1799688.292 9  22129499.329    22129499.018    22129504.589
      4068.469        3170.236
  -1603998.268 9  -1237854.39848  22203088.456    22203088.4934   22203094.0634
      1912.580        1490.322
   -208300.304 9   -159133.72848  20440717.129    20440716.9314   20440722.6884
        57.767          45.013
  -2506035.347 9  -1934469.20548  21393496.737    21393496.0914   21393502.3534
      3185.075        2481.877
  -1644712.183 9  -1270132.16547  23513965.157    23513964.2924   23513970.9654
      1978.853        1541.963
  -3198695.615 9  -2468810.81946  24383426.171    24383426.8704   24383434.8354
      4394.577        3424.346
 96 10 10 15 30 29.9990000  0  8 30 17 28 26  6 23 22 21            -0.000038517
   1762637.369 8   1363098.10245  24514698.465    24514697.5254   24514704.8584
     -2268.211       -1767.437
  -1696555.435 9  -1148290.42948  20806981.672    20806981.4884   20806987.9134
      2080.950        1621.519
  -3237716.755 9  -1894675.008 9  22106302.421    22106302.297    22106307.871
      4059.387        3163.159
  -1661072.755 9  -1282328.00948  22192227.593    22192227.5264   22192233.1934
      1893.455        1475.419
   -209752.550 9   -160265.36148  20440440.804    20440440.6434   20440446.3524
        40.100          31.247
  -2601373.903 9  -2008758.98148  21375353.989    21375353.7784   21375360.0204
      3171.908        2471.617
  -1703786.070 9  -1316163.79147  23502723.615    23502722.8514   23502729.5754
      1960.495        1527.658
  -3330419.797 9  -2571453.01846  24358360.841    24358360.5874   24358368.5884
      4388.322        3419.472
 96 10 10 15 30 59.9990000  0  8 30 17 28 26  6 23 22 21            -0.000062237
   1830689.380 8   1416125.60046  24527647.366    24527647.4164   24527654.7104
     -2268.060       -1767.319
  -1758852.028 9  -1196833.22148  20795127.059    20795126.8444   20795133.2874
      2072.586        1615.002
  -3359340.683 9  -1989446.889 9  22083158.184    22083158.006    22083163.585
      4049.259        3155.267
  -1717564.292 9  -1326347.37048  22181477.514    22181477.5964   22181483.2484
      1873.017        1459.494
   -210677.883 9   -160986.41148  20440264.832    20440264.5724   20440270.3024
        22.000          17.143
  -2696308.062 9  -2082733.63448  21357288.780    21357288.3854   21357294.6354
      3157.258        2460.201
  -1762306.864 9  -1361764.42847  23491587.990    23491586.7484   23491593.4634
      1941.305        1512.705
  -3461960.420 9  -2673952.17446  24333329.027    24333329.3024   24333337.2914
      4381.532        3414.181
 96 10 10 15 31 29.9990000  0  8 30 17 28 26  6 23 22 21            -0.000085893
   1898749.908 8   1469159.72345  24540600.379    24540598.9764   24540606.2784
     -2268.058       -1767.318
  -1820876.227 9  -1245163.76848  20783324.294    20783324.0694   20783330.4884
      2063.497        1607.920
  -3480637.355 9  -2083963.771 9  22060076.005    22060076.043    22060081.591
      4038.313        3146.737
  -1773417.134 9  -1369869.04648  22170848.763    22170849.2154   22170854.8104
      1851.713        1442.893
   -211043.582 9   -161271.38548  20440195.176    20440195.0034   20440200.7414
         3.466           2.701
  -2790768.826 9  -2156339.41448  21339313.511    21339313.0994   21339319.3714
      3141.217        2447.702
  -1820229.731 9  -1406899.14747  23480565.903    23480564.4004   23480571.1564
      1921.234        1497.065
  -3593275.549 9  -2776275.63446  24308339.917    24308340.8704   24308348.8484
      4373.928        3408.256
 96 10 10 15 31 59.9990000  0  8 30 17 28 26  6 23 22 21            -0.000109509
   1966795.816 8   1522182.44445  24553549.508    24553547.6134   24553554.9734
     -2267.989       -1767.264
  -1882632.772 9  -1293285.74948  20771572.504    20771572.1804   20771578.6284
      2053.775        1600.344
  -3601617.439 9  -2178233.956 9  22037054.386    22037054.314    22037059.848
      4027.297        3138.154
  -1828650.120 9  -1412907.71948  22160338.612    22160338.7344   22160344.3044
      1830.703        1426.522
   -210856.375 9   -161125.52348  20440230.749    20440230.6294   20440236.3954
       -15.675         -12.214
  -2884754.267 9  -2229574.80948  21321428.512    21321428.2464   21321434.5244
      3124.724        2434.850
  -1877559.292 9  -1451571.54447  23469655.618    23469655.0034   23469661.7224
      1901.015        1481.310
  -3724375.476 9  -2878431.41046  24283391.974    24283393.4064   24283401.2954
      4366.322        3402.329
 96 10 10 15 32 29.9990000  0  8 30 17 28 26  6 23 22 21            -0.000133108
   2034801.808 8   1575174.11745  24566490.455    24566488.7414   24566495.9394
     -2266.965       -1766.466
  -1944133.833 9  -1341208.64748  20759869.207    20759868.9264   20759875.3584
      2045.119        1593.599
  -3722311.118 9  -2272280.965 9  22014087.394    22014087.091    22014092.613
      4017.684        3130.663
  -1883289.421 9  -1455483.79248  22149941.496    22149941.2904   22149946.8404
      1810.616        1410.870
   -210132.437 9   -160561.42348  20440368.513    20440368.3624   20440374.1584
       -33.886         -26.405
  -2978283.973 9  -2302455.08648  21303630.504    21303630.1214   21303636.4004
      3109.416        2422.921
  -1934328.201 9  -1495807.09047  23458853.387    23458852.2784   23458859.0314
      1882.416        1466.818
  -3855286.993 9  -2980440.36046  24258481.459    24258481.7114   24258489.5934
      4359.985        3397.391
 96 10 10 15 32 59.9990000  0  8 30 17 28 26  6 23 22 21            -0.000156666
   2102808.801 8   1628166.51245  24579430.940    24579429.9554   24579437.4654
     -2265.852       -1765.599
  -2005337.328 9  -1388899.67948  20748222.571    20748222.3284   20748228.7054
      2036.100        1586.571
  -3842677.986 9  -2366073.325 9  21991182.427    21991182.073    21991187.570
      4007.702        3122.885
  -1937278.808 9  -1497553.42448  22139667.600    22139667.4774   22139673.0464
      1789.609        1394.501
   -208821.356 9   -159539.82048  20440618.122    20440617.8754   20440623.6544
       -52.595         -40.983
  -3071322.663 9  -2374952.75548  21285925.965    21285925.4724   21285931.7254
      3094.139        2411.017
  -1990502.600 9  -1539579.37047  23448164.125    23448162.6774   23448169.4074
      1863.502        1452.079
  -3985982.303 9  -3082280.84346  24233611.448    24233611.1544   24233619.0734
      4353.885        3392.638
 96 10 10 15 33 29.9990000  0  8 30 17 28 26  6 23 22 21            -0.000180196
   2170783.771 8   1681133.99245  24592366.568    24592365.3024   24592372.5804
     -2266.437       -1766.055
  -2066263.388 9  -1436374.52648  20736628.636    20736628.4824   20736634.8714
      2025.106        1578.005
  -3962742.304 9  -2459629.929 9  21968334.936    21968334.613    21968340.081
      3996.063        3113.815
  -1990635.493 9  -1539130.02648  22129513.750    22129513.9374   22129519.5774
      1767.121        1376.977
   -206943.815 9   -158076.81248  20440975.303    20440975.1594   20440980.9634
       -72.991         -56.876
  -3163898.768 9  -2447089.96448  21268309.162    21268308.8134   21268315.0554
      3077.227        2397.839
  -2046105.688 9  -1582906.47847  23437582.877    23437581.8304   23437588.4134
      1842.836        1435.976
  -4116483.630 9  -3183970.17446  24208777.509    24208777.6544   24208785.4584
      4345.576        3386.163
 96 10 10 15 33 59.9990000  0  8 30 17 28 26  6 23 22 21            -0.000203696
   2238740.033 8   1734086.87745  24605298.016    24605296.9294   24605304.0314
     -2265.182       -1765.077
  -2126895.296 9  -1483620.17148  20725090.781    20725090.6264   20725097.0124
      2015.976        1570.890
  -4082496.375 9  -2552944.783 9  21945546.670    21945546.190    21945551.656
      3986.446        3106.322
  -2043361.842 9  -1580215.46548  22119480.429    22119480.4444   22119486.0534
      1746.775        1361.123
   -204499.364 9   -156172.05948  20441440.547    20441440.3514   20441446.1594
       -91.007         -70.915
  -3256012.178 9  -2518866.63348  21250780.471    21250780.2084   21250786.4774
      3062.543        2386.397
  -2101131.961 9  -1625784.11947  23427111.776    23427110.7414   23427117.2624
      1824.522        1421.705
  -4246767.266 9  -3285489.87446  24183985.073    24183985.4884   24183993.2854
      4338.965        3381.012
 96 10 10 15 34 29.9990000  0  8 30 17 28 26  6 23 22 21            -0.000227153
   2306688.276 8   1787033.49545  24618227.333    24618227.1484   24618234.2314
     -2265.031       -1764.959
  -2187229.235 9  -1530633.62748  20713609.733    20713609.4664   20713615.8374
      2006.079        1563.178
  -4201929.095 9  -2646009.235 9  21922818.563    21922818.898    21922824.344
      3975.318        3097.650
  -2095437.602 9  -1620793.95548  22109570.720    22109570.6084   22109576.3554
      1724.621        1343.861
   -201497.013 9   -153832.58248  20442011.907    20442011.7164   20442017.5074
      -109.562         -85.373
  -3347658.706 9  -2590279.49948  21233340.689    21233340.4714   21233346.7594
      3046.817        2374.143
  -2155579.464 9  -1668210.76947  23416750.874    23416749.8104   23416756.2694
      1804.971        1406.471
  -4376821.230 9  -3386830.60546  24159237.146    24159237.0674   24159244.8624
      4330.918        3374.741
 96 10 10 15 34 59.9990000  0  8 30 17 28 26  6 23 22 21            -0.000250564
   2374601.640 8   1839952.95445  24631151.259    24631150.6824   24631157.8614
     -2263.562       -1763.815
  -2247294.093 9  -1577437.40948  20702179.722    20702179.5234   20702185.9084
      1997.351        1556.377
  -4321049.360 9  -2738830.214 9  21900150.840    21900151.032    21900156.492
      3965.135        3089.716
  -2146873.732 9  -1660874.03548  22099782.747    22099782.6994   22099788.3454
      1703.836        1327.664
   -197965.997 9   -151081.15348  20442683.977    20442683.7054   20442689.4724
      -126.712         -98.737
  -3438854.629 9  -2661341.24448  21215986.809    21215986.5124   21215992.8044
      3032.043        2362.631
  -2209459.366 9  -1710195.11147  23406498.031    23406496.8404   23406503.3164
      1786.084        1391.754
  -4506651.954 9  -3487997.40946  24134531.016    24134531.2134   24134538.8704
      4323.544        3368.995
 96 10 10 15 35 29.9990000  0  8 30 17 28 26  6 23 22 21            -0.000273939
   2442485.506 8   1892849.44245  24644067.371    24644068.4494   24644075.6994
     -2262.319       -1762.846
  -2307090.652 9  -1624032.12648  20690800.845    20690800.6194   20690806.9954
      1988.845        1549.749
  -4439855.156 9  -2831406.146 9  21877542.892    21877543.011    21877548.531
      3955.054        3081.860
  -2197692.994 9  -1700473.43948  22090111.960    22090112.0774   22090117.6704
      1684.007        1312.213
   -193912.905 9   -147922.91748  20443455.320    20443454.9974   20443460.8004
      -143.714        -111.985
  -3529604.762 9  -2732055.62048  21198717.587    21198717.3144   21198723.6554
      3017.851        2351.572
  -2262762.740 9  -1751730.21847  23396354.661    23396353.6184   23396360.1104
      1767.316        1377.129
  -4636244.382 9  -3588978.50846  24109870.419    24109870.5874   24109878.2614
      4315.897        3363.037
 96 10 10 15 35 59.9990000  0  8 30 17 28 26  6 23 22 21            -0.000297282
   2510326.271 8   1945712.32045  24656977.122    24656978.2594   24656985.5684
     -2260.535       -1761.456
  -2366638.296 9  -1670432.88148  20679469.228    20679469.0834   20679475.4734
      1980.967        1543.611
  -4558361.402 9  -2923748.669 9  21854992.198    21854992.022    21854997.550
      3945.214        3074.193
  -2247919.560 9  -1739611.00048  22080554.319    22080554.2804   22080559.8484
      1664.339        1296.888
   -189353.658 9   -144370.27248  20444322.780    20444322.6314   20444328.4144
      -160.557        -125.109
  -3619942.684 9  -2802448.79548  21181526.665    21181526.5934   21181532.8954
      3004.370        2341.068
  -2315510.257 9  -1792832.19047  23386316.953    23386316.1674   23386322.6124
      1749.106        1362.940
  -4765616.263 9  -3689787.74946  24085251.206    24085251.9164   24085259.6904
      4308.904        3357.588
 96 10 10 15 36 29.9990000  0  8 30 17 28 26  6 23 22 21            -0.000320581
   2578141.600 8   1998555.36745  24669883.324    24669883.2634   24669890.3094
     -2259.501       -1760.650
  -2425922.336 9  -1716628.23748  20668187.978    20668187.7234   20668194.0694
      1972.195        1536.775
  -4676538.015 9  -3015834.331 9  21832503.789    21832503.752    21832509.307
      3934.134        3065.559
  -2297525.440 9  -1778264.91748  22071114.340    22071114.6264   22071120.1964
      1643.697        1280.803
   -184247.168 9   -140391.20848  20445294.515    20445294.4064   20445300.1594
      -179.026        -139.501
  -3709843.546 9  -2872501.40048  21164419.365    21164419.0284   21164425.3454
      2989.826        2329.735
  -2367677.558 9  -1833482.04147  23376390.020    23376389.0524   23376395.5394
      1729.584        1347.728
  -4894750.316 9  -3790411.67546  24060678.275    24060678.4694   24060686.2994
      4300.920        3351.366
 96 10 10 15 36 59.9990000  0  8 30 17 28 26  6 23 22 21            -0.000343737
   2645940.517 8   2051385.64345  24682784.478    24682785.1204   24682792.2334
     -2258.434       -1759.819
  -2484927.135 9  -1762606.00148  20656959.739    20656959.4644   20656965.8234
      1963.414        1529.933
  -4794371.447 9  -3107652.583 9  21810080.778    21810080.808    21810086.386
      3923.400        3057.195
  -2346505.262 9  -1816430.98848  22061793.251    22061794.0484   22061799.5574
      1623.606        1265.148
   -178567.375 9   -135965.41048  20446375.578    20446375.2764   20446381.0404
      -197.622        -153.991
  -3799285.725 9  -2942196.59848  21147399.088    21147398.7724   21147405.0344
      2975.162        2318.308
  -2419245.328 9  -1873664.72147  23366576.863    23366576.0664   23366582.5104
      1710.286        1332.690
  -5023637.149 9  -3890842.94246  24036151.441    24036152.0724   24036159.9644
      4293.664        3345.712
 96 10 10 15 37 29.9990000  0  8 30 17 28 26  6 23 22 21            -0.000367020
   2713678.135 8   2104168.15545  24695676.322    24695675.4334   24695682.2304
     -2256.816       -1758.558
  -2543691.621 9  -1808396.50648  20645777.100    20645776.9404   20645783.3174
      1954.852        1523.261
  -4911902.335 9  -3199235.082 9  21787715.385    21787715.387    21787721.014
      3912.550        3048.740
  -2394905.871 9  -1854145.74548  22052583.163    22052583.7364   22052589.1974
      1603.485        1249.469
   -172347.435 9   -131118.72048  20447559.242    20447558.8744   20447564.6624
      -216.323        -168.563
  -3888321.325 9  -3011574.97348  21130456.042    21130455.8404   21130462.0944
      2960.878        2307.178
  -2470259.931 9  -1913416.37747  23356868.684    23356868.2744   23356874.7594
      1691.229        1317.841
  -5152337.979 9  -3991129.28646  24011660.916    24011661.1354   24011668.9884
      4286.944        3340.476
 96 10 10 15 37 59.9990000  0  8 30 17 28 26  6 23 22 21            -0.000390279
   2781344.308 8   2156894.97745  24708551.658    24708552.2564   24708558.8614
     -2254.141       -1756.474
  -2602218.481 9  -1854001.85048  20634639.899    20634639.6554   20634646.0094
      1946.955        1517.108
  -5029120.985 9  -3290574.287 9  21765409.257    21765409.433    21765415.049
      3902.022        3040.537
  -2442708.271 9  -1891394.35048  22043486.640    22043487.2734   22043492.6384
      1583.432        1233.843
   -165590.323 9   -125853.45848  20448844.959    20448844.7014   20448850.5344
      -234.188        -182.484
  -3976927.484 9  -3080618.72148  21113594.776    21113594.6204   21113600.8754
      2946.027        2295.605
  -2520719.925 9  -1952735.84947  23347267.110    23347266.0414   23347272.5624
      1672.644        1303.359
  -5280861.438 9  -4091277.41946  23987205.474    23987203.9404   23987211.6764
      4281.157        3335.966
 96 10 10 15 38 29.9990000  0  8 30 17 28 26  6 23 22 21            -0.000413510
   2848918.323 8   2209549.99645  24721410.077    24721411.3604   24721417.9884
     -2250.780       -1753.855
  -2660517.506 9  -1899429.65648  20623545.956    20623545.7124   20623552.0444
      1939.646        1511.412
  -5146030.559 9  -3381672.646 9  21743162.496    21743162.302    21743167.906
      3892.016        3032.740
  -2489918.103 9  -1928181.22148  22034503.144    22034503.5274   22034508.9764
      1563.763        1218.517
   -158300.763 9   -120173.29548  20450231.994    20450231.8524   20450237.7134
      -251.572        -196.030
  -4065090.440 9  -3149317.11748  21096818.027    21096817.7474   21096824.0214
      2931.639        2284.394
  -2570625.647 9  -1991623.42747  23337770.383    23337769.3094   23337775.8634
      1654.413        1289.153
  -5409217.488 9  -4191295.08746  23962780.518    23962778.6044   23962786.2794
      4275.845        3331.827
 96 10 10 15 38 59.9990000  0  8 30 17 28 26  6 23 22 21            -0.000436697
   2916418.591 8   2262147.55346  24734254.457    24734256.3104   24734262.8784
     -2249.511       -1752.866
  -2718575.297 9  -1944669.48548  20612497.947    20612497.6964   20612503.9924
      1930.685        1504.430
  -5262616.452 9  -3472518.788 9  21720976.794    21720976.784    21720982.395
      3880.087        3023.444
  -2536504.817 9  -1964482.54248  22025638.306    22025638.4284   22025643.9284
      1541.811        1201.411
   -150471.136 9   -114072.30648  20451722.134    20451721.7944   20451727.6724
      -270.603        -210.859
  -4152796.391 9  -3217659.40248  21080128.066    21080127.8584   21080134.1534
      2915.347        2271.699
  -2619966.486 9  -2030070.85447  23328380.873    23328380.0034   23328386.6454
      1634.753        1273.833
  -5537387.515 9  -4291167.80546  23938390.055    23938388.5944   23938396.3634
      4268.443        3326.059
 96 10 10 15 39 29.9990000  0  8 30 17 28 26  6 23 22 21            -0.000459853
   2983828.166 8   2314674.41846  24747082.137    24747083.9834   24747090.6784
     -2245.072       -1749.407
  -2776424.533 9  -1989746.80948  20601489.600    20601489.3584   20601495.6474
      1925.244        1500.190
  -5378899.393 9  -3563128.867 9  21698848.707    21698848.910    21698854.501
      3871.461        3016.723
  -2582489.530 9  -2000314.78348  22016887.334    22016887.8384   22016893.2564
      1523.160        1186.878
   -142130.976 9   -107573.49648  20453309.123    20453308.9154   20453314.7544
      -285.877        -222.761
  -4240079.682 9  -3285672.34348  21063518.607    21063518.3774   21063524.7034
      2902.646        2261.802
  -2668775.169 9  -2068103.60047  23319092.409    23319091.9944   23319098.7034
      1618.420        1261.106
  -5665376.709 9  -4390899.61046  23914033.782    23914033.0734   23914040.7694
      4263.331        3322.076
 96 10 10 15 39 59.9990000  0  8 30 17 28 26  6 23 22 21            -0.000482965
   3051162.875 8   2367142.97045  24759896.878    24759897.3294   24759904.0024
     -2244.471       -1748.938
  -2834057.020 9  -2034655.23548  20590522.450    20590522.2444   20590528.5374
      1916.151        1493.105
  -5494876.716 9  -3653500.803 9  21676779.347    21676779.163    21676784.767
      3859.696        3007.555
  -2627864.221 9  -2035671.67848  22008252.862    22008253.3414   22008258.6834
      1501.297        1169.842
   -133295.084 9   -100688.40448  20454990.577    20454990.3604   20454996.1694
      -304.042        -236.916
  -4326923.264 9  -3353342.65548  21046992.848    21046992.6004   21046998.9284
      2886.472        2249.199
  -2717047.411 9  -2105718.35647  23309906.808    23309906.1174   23309912.8344
      1599.023        1245.992
  -5793157.882 9  -4490469.34446  23889716.515    23889717.1524   23889724.7224
      4254.713        3315.361
 96 10 10 15 40 29.9990000  0  8 30 17 28 26  6 23 22 21            -0.000506049
   3118467.575 9   2419588.13546  24772705.945    24772704.9874   24772711.6604
     -2242.808       -1747.643
  -2891426.912 9  -2079359.04648  20579605.404    20579605.1574   20579611.4214
      1908.276        1486.968
  -5610522.748 9  -3743614.587 9  21654772.421    21654772.431    21654778.080
      3849.767        2999.818
  -2672611.610 9  -2070539.77948  21999738.064    21999738.0944   21999743.5014
      1481.613        1154.504
   -123926.102 9    -93387.91848  20456773.482    20456773.2794   20456779.0304
      -320.636        -249.846
  -4413313.593 9  -3420659.77948  21030553.358    21030553.0744   21030559.3844
      2872.658        2238.435
  -2764757.979 9  -2142895.43647  23300828.214    23300827.1814   23300833.8574
      1581.507        1232.343
  -5920699.007 9  -4589852.02646  23865445.866    23865446.9114   23865454.3734
      4247.750        3309.935
 96 10 10 15 40 59.9990000  0  8 30 17 28 26  6 23 22 21            -0.000529141
   3185736.486 8   2472005.42645  24785506.773    24785505.8354   24785512.7894
     -2241.845       -1746.892
  -2948547.687 9  -2123868.74348  20568735.645    20568735.4734   20568741.7154
      1899.512        1480.139
  -5725857.072 9  -3833485.487 9  21632825.189    21632825.025    21632830.668
      3838.892        2991.344
  -2716760.805 9  -2104941.75248  21991336.410    21991336.7604   21991342.1054
      1461.553        1138.872
   -114055.204 9    -85696.32648  20458651.899    20458651.6864   20458657.4404
      -337.751        -263.183
  -4499269.827 9  -3487638.65548  21014196.376    21014196.1704   21014202.4364
      2857.533        2226.649
  -2811931.706 9  -2179654.21447  23291850.726    23291850.3394   23291856.9804
      1563.056        1217.966
  -6048016.008 9  -4689060.05846  23841218.683    23841219.2474   23841226.6994
      4239.922        3303.835
 96 10 10 15 41 29.9990000  0  8 30 17 28 26  6 23 22 21            -0.000552232
   3252972.464 8   2524397.05545  24798300.721    24798300.5144   24798307.4894
     -2239.179       -1744.815
  -3005397.967 9  -2168167.66448  20557917.538    20557917.2564   20557923.4734
      1891.513        1473.906
  -5840863.181 9  -3923100.630 9  21610940.277    21610940.069    21610945.754
      3829.235        2983.819
  -2760314.485 9  -2138879.67748  21983048.553    21983048.8634   21983054.1204
      1443.050        1124.455
   -103671.281 9    -77604.97448  20460627.854    20460627.6814   20460633.4364
      -353.455        -275.419
  -4584775.308 9  -3554266.28648  20997925.461    20997925.0154   20997931.2924
      2843.786        2215.937
  -2858544.291 9  -2215975.72747  23282980.483    23282980.2674   23282986.9294
      1545.403        1204.210
  -6175106.367 9  -4788091.48746  23817035.691    23817034.8194   23817042.2494
      4233.923        3299.161
 96 10 10 15 41 59.9990000  0  8 30 17 28 26  6 23 22 21            -0.000575328
   3320140.049 7   2576735.40845  24811081.191    24811082.1124   24811088.8754
     -2238.865       -1744.570
  -3061979.999 9  -2212257.54748  20547150.229    20547150.0544   20547156.2704
      1880.298        1465.167
  -5955549.423 9  -4012466.521 9  21589116.138    21589115.975    21589121.687
      3816.100        2973.584
  -2803278.346 9  -2172358.01648  21974873.261    21974873.1144   21974878.5184
      1420.707        1107.044
    -92782.674 9    -69120.36048  20462699.921    20462699.7354   20462705.5334
      -373.154        -290.769
  -4669835.077 9  -3620546.61348  20981739.128    20981738.7114   20981744.9844
      2826.566        2202.519
  -2904596.499 9  -2251860.57247  23274217.035    23274216.8054   23274223.5514
      1524.326        1187.786
  -6302004.967 9  -4886973.50347  23792887.900    23792886.8564   23792894.1834
      4225.497        3292.595
 96 10 10 15 42 29.9990000  0  8 30 17 28 26  6 23 22 21            -0.000598410
   3387226.23817   2629010.29954  24823849.540    24823847.9245          0.0005
     -2234.050       -1740.818
  -3118287.766 9  -2256133.72948  20536435.249    20536435.0344   20536441.2784
      1872.914        1459.414
  -6069895.629 9  -4101567.459 9  21567356.661    21567356.606    21567362.332
      3806.177        2965.852
  -2845622.637 9  -2205353.57548  21966815.427    21966815.3424   21966820.7294
      1401.436        1092.028
    -81349.474 9    -60211.39148  20464875.657    20464875.4324   20464881.2314
      -389.777        -303.722
  -4754439.631 9  -3686472.23248  20965639.352    20965639.0194   20965645.2834
      2812.876        2191.851
  -2950076.692 9  -2287299.70747  23265562.969    23265562.3174   23265569.0144
      1506.950        1174.247
  -6428700.792 9  -4985697.50947  23768778.163    23768777.4634   23768784.7944
      4219.863        3288.205
 96 10 10 15 42 59.9990000  0  7 17 28 26  6 23 22 21               -0.000621461
  -3174344.416 9  -2299814.23548  20525768.037    20525767.8324   20525774.0784
      1865.395        1453.554
  -6183901.189 9  -4190402.953 9  21545662.373    21545662.068    21545667.777
      3795.416        2957.467
  -2887339.103 9  -2237859.91148  21958877.348    21958877.0804   21958882.3724
      1380.882        1076.012
    -69379.696 9    -50884.30648  20467153.565    20467153.2144   20467159.0444
      -407.010        -317.151
  -4838591.581 9  -3752045.17548  20949625.836    20949625.4654   20949631.7014
      2798.653        2180.769
  -2994995.626 9  -2322301.48847  23257014.973    23257014.5184   23257021.2644
      1488.793        1160.098
  -6555178.789 9  -5084251.78147  23744709.794    23744709.5264   23744716.8294
      4213.280        3283.075
 96 10 10 15 43 29.9990000  0  7 17 28 26  6 23 22 21               -0.000644482
  -3230177.680 9  -2343320.67148  20515143.292    20515143.0924   20515149.3694
      1857.825        1447.656
  -6297582.480 9  -4278985.767 9  21524029.383    21524029.211    21524034.948
      3784.251        2948.767
  -2928441.501 9  -2269887.73448  21951055.518    21951055.5234   21951060.8534
      1360.170        1059.873
    -56889.957 9    -41152.05448  20469530.179    20469529.9554   20469535.7604
      -424.649        -330.895
  -4922327.145 9  -3817293.65448  20933691.469    20933691.1314   20933697.3554
      2784.552        2169.781
  -3039371.399 9  -2356880.03547  23248570.557    23248570.1194   23248576.8404
      1470.596        1145.919
  -6681458.997 9  -5182651.91346  23720679.600    23720679.1614   23720686.4874
      4206.250        3277.597
 96 10 10 15 43 59.9990000  0  7 17 28 26  6 23 22 21               -0.000667464
  -3285798.655 9  -2386661.68648  20504558.993    20504558.7664   20504565.0534
      1849.945        1441.515
  -6410933.340 9  -4367311.107 9  21502459.511    21502459.252    21502464.982
      3772.109        2939.306
  -2968929.635 9  -2301436.90548  21943350.496    21943350.7234   21943356.2964
      1338.787        1043.211
    -43878.105 9    -31012.96248  20472006.265    20472006.0714   20472011.8884
      -443.126        -345.293
  -5005642.203 9  -3882214.46848  20917837.120    20917836.8064   20917842.9984
      2769.425        2157.994
  -3083207.269 9  -2391037.88147  23240229.221    23240228.4704   23240235.1354
      1451.604        1131.120
  -6807528.645 9  -5280887.99547  23696689.552    23696688.8564   23696696.2444
      4198.000        3271.169
 96 10 10 15 44 29.9990000  0  7 17 28 26  6 23 22 21               -0.000690398
  -3341181.885 9  -2429817.44748  20494019.810    20494019.6824   20494025.9694
      1842.874        1436.006
  -6523920.361 9  -4455352.935 9  21480958.890    21480958.514    21480964.250
      3760.961        2930.619
  -3008789.564 9  -2332496.58448  21935765.370    21935765.5974   21935771.2294
      1319.305        1028.030
    -30319.174 9    -20447.57748  20474586.586    20474586.2864   20474592.1054
      -460.008        -358.448
  -5088503.583 9  -3946781.76648  20902069.104    20902068.8014   20902074.9844
      2755.284        2146.975
  -3126480.978 9  -2424757.68147  23231994.878    23231993.7034   23232000.4414
      1433.901        1117.325
  -6933343.388 9  -5378925.45947  23672747.092    23672747.0544   23672754.5384
      4190.299        3265.168
 96 10 10 15 44 59.9990000  0  7 17 28 26  6 23 22 21               -0.000713319
  -3396352.671 9  -2472807.67048  20483521.252    20483521.0504   20483527.3244
      1834.480        1429.465
  -6636570.559 9  -4543132.304 9  21459522.322    21459521.875    21459527.618
      3748.492        2920.903
  -3048071.166 9  -2363105.62648  21928290.540    21928290.4884   21928296.0984
      1298.786        1012.041
    -16260.167 9     -9492.51348  20477262.086    20477261.6134   20477267.4334
      -477.852        -372.352
  -5170947.031 9  -4011023.40548  20886380.564    20886380.3364   20886386.5504
      2740.339        2135.329
  -3169217.032 9  -2458058.52547  23223862.239    23223861.3224   23223868.1074
      1414.545        1102.243
  -7058938.207 9  -5476791.52247  23648847.212    23648847.2074   23648854.7294
      4182.300        3258.935
 96 10 10 15 45 29.9990000  0  7 17 28 26  6 23 22 21               -0.000736228
  -3451295.688 9  -2515620.41148  20473066.087    20473065.7464   20473072.0134
      1826.800        1423.481
  -6748876.076 9  -4630643.090 9  21438151.366    21438150.829    21438156.583
      3737.002        2911.950
  -3086766.690 9  -2393257.96648  21920926.869    21920926.9324   21920932.4894
      1279.300         996.857
     -1691.129 9      1859.97348  20480034.149    20480033.9744   20480039.8404
      -494.967        -385.689
  -5252972.658 9  -4074939.47148  20870771.559    20870771.3934   20870777.6084
      2726.352        2124.430
  -3211405.528 9  -2490932.70047  23215833.478    23215833.0924   23215839.8524
      1396.532        1088.207
  -7184329.206 9  -5574498.78146  23624985.496    23624986.1454   23624993.5834
      4175.539        3253.667
 96 10 10 15 45 59.9990000  0  7 17 28 26  6 23 22 21               -0.000759154
  -3506042.460 9  -2558280.23148  20462648.175    20462647.7874   20462654.0364
      1819.876        1418.085
  -6860876.789 9  -4717916.366 9  21416838.299    21416837.812    21416843.527
      3726.674        2903.902
  -3124911.084 9  -2422980.84248  21913668.119    21913668.1954   21913673.7844
      1260.571         982.263
     13346.988 9     13577.97748  20482895.673    20482895.6244   20482901.5174
      -510.599        -397.869
  -5334617.435 9  -4138558.76548  20855235.311    20855234.9504   20855241.1614
      2713.659        2114.539
  -3253092.221 9  -2523415.86647  23207900.464    23207900.4314   23207907.0884
      1379.687        1075.081
  -7309556.661 9  -5672078.58947  23601155.757    23601156.2204   23601163.6134
      4169.861        3249.242
 96 10 10 15 46 29.9990000  0  7 17 28 26  6 23 22 21               -0.000782070
  -3560519.238 9  -2600729.66448  20452281.631    20452281.1734   20452287.4424
      1812.684        1412.481
  -6972516.521 9  -4804908.358 9  21395593.956    21395593.488    21395599.182
      3716.606        2896.057
  -3162432.504 9  -2452218.29148  21906527.587    21906528.0364   21906533.6224
      1241.516         967.415
     28905.304 9     25701.32548  20485856.481    20485856.2594   20485862.1714
      -525.911        -409.801
  -5415829.628 9  -4201840.98548  20839781.289    20839780.7674   20839786.9914
      2701.256        2104.875
  -3294227.771 9  -2555469.55947  23200073.316    23200072.5904   23200079.2384
      1363.302        1062.313
  -7434555.238 9  -5769480.05247  23577370.311    23577369.7784   23577377.1314
      4164.188        3244.822
 96 10 10 15 46 59.9990000  0  7 17 28 26  6 23 22 21               -0.000804971
  -3614740.072 9  -2642979.65848  20441963.692    20441963.3204   20441969.5424
      1802.154        1404.276
  -7083806.497 9  -4891627.810 9  21374416.111    21374415.711    21374421.403
      3702.809        2885.306
  -3199327.246 9  -2480967.44248  21899506.773    21899507.1734   21899512.7044
      1218.183         949.234
     44968.971 9     38218.46348  20488913.225    20488913.0844   20488919.0094
      -544.917        -424.611
  -5496628.718 9  -4264801.30448  20824405.552    20824405.1844   20824411.4174
      2685.254        2092.406
  -3334820.845 9  -2587100.56447  23192348.486    23192347.9634   23192354.6264
      1343.090        1046.564
  -7559351.740 9  -5866724.05947  23553621.811    23553621.8054   23553629.1004
      4155.582        3238.116
 96 10 10 15 47 29.9990000  0  7 17 28 26  6 23 22 21               -0.000827868
  -3668742.383 9  -2685059.37648  20431687.436    20431687.0474   20431693.2384
      1797.228        1400.437
  -7194774.827 9  -4978096.636 9  21353299.678    21353299.175    21353304.816
      3694.280        2878.660
  -3235617.144 9  -2509245.25848  21892601.173    21892601.4534   21892607.0224
      1200.454         935.419
     61506.059 9     51104.49248  20492060.206    20492060.0024   20492065.9334
      -558.297        -435.037
  -5577031.878 9  -4327453.10548  20809105.313    20809104.9394   20809111.2124
      2674.063        2083.685
  -3374907.098 9  -2618336.62447  23184720.517    23184719.9024   23184726.5394
      1328.536        1035.223
  -7683983.485 9  -5963839.68047  23529904.951    23529905.1584   23529912.3984
      4152.338        3235.588
 96 10 10 15 47 59.9990000  0  7 17 28 26  6 23 22 21               -0.000850768
  -3722524.425 9  -2726967.46148  20421452.973    20421452.6514   20421458.8314
      1788.918        1393.962
  -7305415.506 9  -5064310.143 9  21332245.510    21332244.980    21332250.614
      3682.317        2869.338
  -3271305.708 9  -2537054.50948  21885809.573    21885810.0914   21885815.7104
      1179.374         918.993
     78506.308 9     64351.43148  20495295.367    20495295.0924   20495301.0194
      -574.554        -447.704
  -5657025.133 9  -4389785.50348  20793883.091    20793882.7104   20793889.0044
      2659.381        2072.245
  -3414486.333 9  -2649177.61947  23177188.887    23177188.2654   23177194.8984
      1310.593        1021.241
  -7808436.229 9  -6060815.82247  23506222.341    23506222.5654   23506229.7944
      4145.034        3229.897
 96 10 10 15 48 29.9990000  0  7 17 28 26  6 23 22 21               -0.000873640
  -3776061.902 9  -2768684.97548  20411265.083    20411264.7834   20411270.9634
      1782.058        1388.617
  -7415695.871 9  -5150242.887 9  21311259.994    21311259.336    21311264.995
      3671.355        2860.796
  -3306361.827 9  -2564370.95348  21879139.026    21879139.1564   21879144.6494
      1159.449         903.467
     96001.989 9     77984.41748  20498624.576    20498624.3964   20498630.3264
      -590.246        -459.932
  -5736572.481 9  -4451770.44148  20778745.724    20778745.3734   20778751.6334
      2645.579        2061.490
  -3453526.305 9  -2679598.39247  23169760.426    23169759.2364   23169765.8694
      1293.589        1007.991
  -7932671.022 9  -6157622.12847  23482581.350    23482581.4804   23482588.6994
      4139.084        3225.260
 96 10 10 15 48 59.9990000  0  7 17 28 26  6 23 22 21               -0.000896494
  -3829392.064 9  -2810240.94048  20401116.674    20401116.4014   20401122.5804
      1774.366        1382.623
  -7525637.760 9  -5235911.877 9  21290338.450    21290338.088    21290343.769
      3659.263        2851.374
  -3340814.786 9  -2591217.38848  21872582.723    21872583.1014   21872588.4984
      1138.595         887.217
    113984.376 9     91996.65948  20502046.473    20502046.3754   20502052.2624
      -607.471        -473.354
  -5815701.171 9  -4513429.14548  20763688.040    20763687.6744   20763693.9124
      2630.784        2049.961
  -3492045.786 9  -2709613.58747  23162430.602    23162429.2584   23162435.8804
      1275.566         993.947
  -8056719.459 9  -6254283.22047  23458975.170    23458975.8694   23458983.0384
      4131.741        3219.538
 96 10 10 15 49 29.9990000  0  7 17 28 26  6 23 22 21               -0.000919333
  -3882503.428 9  -2851626.41248  20391009.891    20391009.6404   20391015.8214
      1766.419        1376.430
  -7635233.223 9  -5321310.928 9  21269483.161    21269482.792    21269488.457
      3647.237        2842.003
  -3374659.732 9  -2617590.03848  21866142.804    21866142.6014   21866148.1344
      1117.956         871.135
    132467.541 9    106399.11448  20505563.854    20505563.6324   20505569.5134
      -624.608        -486.708
  -5894400.150 9  -4574753.01848  20748712.268    20748711.7624   20748717.9694
      2616.160        2038.566
  -3530044.127 9  -2739222.71747  23155199.508    23155198.4884   23155205.0384
      1257.727         980.047
  -8180548.224 9  -6350773.14447  23435411.940    23435412.0854   23435419.1864
      4123.610        3213.203
 96 10 10 15 49 59.9990000  0  7 17 28 26  6 23 22 21               -0.000942156
  -3935374.974 9  -2892825.01048  20380948.767    20380948.5354   20380954.6884
      1757.642        1369.591
  -7744471.985 9  -5406432.032 9  21248695.529    21248695.369    21248700.990
      3634.565        2832.129
  -3407887.266 9  -2643481.60748  21859819.795    21859819.6804   21859825.1584
      1096.514         854.426
    151464.435 9    121201.88148  20509178.798    20509178.6654   20509184.5454
      -642.777        -500.865
  -5972670.039 9  -4635742.52448  20733817.872    20733817.4764   20733823.6514
      2601.077        2026.813
  -3567504.547 9  -2768412.67647  23148070.205    23148069.9964   23148076.5484
      1238.784         965.286
  -8304119.233 9  -6447062.20147  23411896.980    23411897.2674   23411904.4114
      4113.861        3205.606
 96 10 10 15 50 29.9990000  0  7 17 28 26  6 23 22 21               -0.000964929
  -3987988.859 9  -2933822.84548  20370936.715    20370936.4544   20370942.5654
      1750.627        1364.125
  -7853332.933 9  -5491258.741 9  21227979.873    21227979.803    21227985.432
      3623.505        2823.510
  -3440477.734 9  -2668876.75948  21853618.296    21853617.9734   21853623.3274
      1076.911         839.151
    171012.250 9    136433.92748  20512898.688    20512898.4904   20512904.4104
      -659.650        -514.013
  -6050489.520 9  -4696381.07348  20719009.119    20719008.9304   20719015.0714
      2587.650        2016.351
  -3604396.504 9  -2797159.67447  23141049.970    23141049.8164   23141056.3144
      1221.416         951.753
  -8427418.396 9  -6543139.45647  23388433.978    23388434.1864   23388441.3684
      4106.863        3200.153
 96 10 10 15 50 59.9990000  0  7 17 28 26  6 23 22 21               -0.000987708
  -4040401.485 9  -2974663.84848  20360962.977    20360962.6914   20360968.7764
      1742.203        1357.561
  -7961871.269 9  -5575834.062 9  21207325.530    21207325.624    21207331.254
      3611.153        2813.885
  -3472495.229 9  -2693825.42548  21847525.177    21847525.1274   21847530.6254
      1056.468         823.222
    191047.331 9    152045.66848  20516711.177    20516711.0454   20516716.9834
      -677.014        -527.543
  -6127917.140 9  -4756714.27448  20704275.393    20704274.9974   20704281.0844
      2572.892        2004.851
  -3640786.100 9  -2825515.23247  23134124.764    23134125.1614   23134131.6844
      1203.288         937.627
  -8550517.556 9  -6639060.86747  23365008.798    23365009.1444   23365016.3814
      4098.622        3193.731
 96 10 10 15 51 29.9990000  0  7 17 28 26  6 23 22 21               -0.001010477
  -4092555.762 9  -3015303.54448  20351038.295    20351038.0704   20351044.1484
      1735.008        1351.954
  -8070040.454 9  -5660121.729 9  21186741.620    21186741.678    21186747.348
      3600.293        2805.423
  -3503906.325 9  -2718301.58148  21841547.709    21841547.7674   21841553.3554
      1037.871         808.731
    211586.802 9    168050.43748  20520619.798    20520619.6054   20520625.5274
      -692.065        -539.271
  -6204897.950 9  -4816699.30648  20689626.444    20689626.0714   20689632.1514
      2559.376        1994.319
  -3676627.779 9  -2853443.83347  23127304.555    23127304.8054   23127311.2824
      1186.352         924.430
  -8673382.327 9  -6734799.61347  23341629.020    23341628.7014   23341635.9494
      4092.776        3189.176
 96 10 10 15 51 59.9980000  0  7 17 28 26  6 23 22 21               -0.001033242
  -4144463.366 9  -3055751.02748  20341160.571    20341160.4034   20341166.4784
      1727.183        1345.857
  -8177843.587 9  -5744124.164 9  21166227.430    21166227.411    21166233.093
      3588.315        2796.090
  -3534724.928 9  -2742316.05548  21835683.502    21835683.1444   21835688.7884
      1018.251         793.442
    232612.375 9    184433.99048  20524620.796    20524620.6774   20524626.5474
      -708.222        -551.861
  -6281432.587 9  -4876336.67348  20675062.237    20675061.9584   20675068.1094
      2544.666        1982.857
  -3711925.732 9  -2880948.76247  23120587.797    23120587.8634   23120594.3874
      1168.584         910.585
  -8796042.289 9  -6830378.79047  23318288.070    23318287.2624   23318294.5194
      4086.505        3184.290
 96 10 10 15 52 29.9980000  0  7 17 28 26  6 23 22 21               -0.001056024
  -4196147.418 9  -3096024.31748  20331325.484    20331325.2754   20331331.3124
      1722.130        1341.919
  -8285299.390 9  -5827855.961 9  21145779.630    21145779.272    21145784.929
      3579.069        2788.885
  -3564964.070 9  -2765879.00148  21829928.903    21829928.8714   21829934.5064
      1001.397         780.309
    254109.160 9    201184.71548  20528711.617    20528711.3984   20528717.2824
      -721.009        -561.825
  -6357538.093 9  -4935639.66148  20660579.926    20660579.5694   20660585.6934
      2532.812        1973.620
  -3746711.184 9  -2908054.33447  23113968.374    23113968.4164   23113974.9254
      1154.201         899.377
  -8918546.917 9  -6925836.91947  23294976.010    23294975.3984   23294982.6174
      4083.957        3182.304
 96 10 10 15 52 59.9980000  0  7 17 28 26  6 23 22 21               -0.001078818
  -4247588.313 9  -3136108.13048  20321536.628    20321536.4044   20321542.4444
      1709.417        1332.013
  -8392382.579 9  -5911297.396 9  21125402.351    21125402.045    21125407.665
      3562.004        2775.588
  -3594608.008 9  -2788978.15848  21824287.257    21824287.7904   21824293.3504
       977.029         761.321
    276069.237 9    218296.45248  20532890.501    20532890.3214   20532896.1664
      -740.911        -577.333
  -6433197.665 9  -4994595.15648  20646182.218    20646182.0184   20646188.1634
      2513.453        1958.535
  -3780971.228 9  -2934750.49947  23107449.155    23107448.9244   23107455.4984
      1131.823         881.940
  -9040864.945 9  -7021149.64747  23271699.489    23271699.0644   23271706.2164
      4072.659        3173.501
 96 10 10 15 53 29.9980000  0  7 17 28 26  6 23 22 21               -0.001101592
  -4298768.789 9  -3175989.02048  20311797.462    20311797.0974   20311803.1384
      1702.282        1326.454
  -8499070.544 9  -5994430.873 9  21105100.219    21105100.008    21105105.611
      3550.046        2766.270
  -3623629.592 9  -2811592.36148  21818764.589    21818765.1524   21818770.6894
       957.244         745.904
    298515.802 9    235787.26548  20537162.161    20537161.7834   20537167.6374
      -756.157        -589.213
  -6508402.719 9  -5053196.48748  20631871.158    20631870.9884   20631877.1134
      2499.759        1947.864
  -3814671.706 9  -2961010.63347  23101036.189    23101035.9094   23101042.5874
      1114.507         868.447
  -9162954.934 9  -7116284.67847  23248467.023    23248466.1074   23248473.2884
      4066.103        3168.392
 96 10 10 15 53 59.9980000  0  7 17 28 26  6 23 22 21               -0.001124342
  -4349748.002 9  -3215713.07648  20302096.486    20302096.0624   20302102.1454
      1695.516        1321.181
  -8605398.541 9  -6077283.855 9  21084866.825    21084866.458    21084872.056
      3537.736        2756.677
  -3652055.518 9  -2833742.43348  21813355.626    21813355.9134   21813361.2044
       937.069         730.184
    321431.209 9    253643.41348  20541522.838    20541522.4694   20541528.3374
      -772.248        -601.752
  -6583205.321 9  -5111484.22048  20617636.795    20617636.5124   20617642.6764
      2486.404        1937.458
  -3847856.607 9  -2986869.02747  23094721.446    23094721.0464   23094727.7314
      1097.180         854.945
  -9284836.817 9  -7211257.55147  23225273.306    23225272.6924   23225279.9464
      4058.529        3162.490
 96 10 10 15 54 29.9980000  0  7 17 28 26  6 23 22 21               -0.001147067
  -4400518.942 9  -3255274.85148  20292434.925    20292434.6494   20292440.7554
      1688.313        1315.569
  -8711355.367 9  -6159847.611 9  21064703.769    21064703.569    21064709.142
      3525.083        2746.818
  -3679881.615 9  -2855425.08448  21808060.391    21808060.7854   21808066.1074
       917.167         714.676
    344825.081 9    271872.39448  20545974.662    20545974.1914   20545980.0534
      -788.246        -614.218
  -6657610.885 9  -5169462.57148  20603477.883    20603477.6314   20603483.7884
      2472.966        1926.986
  -3880522.882 9  -3012323.29447  23088505.463    23088504.8254   23088511.6364
      1079.619         841.262
  -9406487.592 9  -7306050.34947  23202123.922    23202123.3274   23202130.6054
      4050.496        3156.231
 96 10 10 15 54 59.9980000  0  8 17 28  3 26  6 23 22 21            -0.001169760
  -4451065.595 9  -3294661.85348  20282816.230    20282815.9394   20282822.0754
      1681.665        1310.388
  -8816923.718 9  -6242108.656 9  21044614.816    21044614.557    21044620.170
      3513.088        2737.471
  -2422633.15819  -1864225.51955  24846034.908    24846033.1595   24846039.6005
      4773.369        3719.508
  -3707103.837 9  -2876637.20048  21802879.980    21802880.6084   21802885.9204
       897.876         699.644
    368709.139 9    290483.32848  20550519.585    20550519.1334   20550525.0384
      -803.935        -626.443
  -6731611.970 9  -5227125.74248  20589395.646    20589395.6824   20589401.8424
      2460.667        1917.403
  -3912651.430 9  -3037358.55247  23082391.755    23082390.9194   23082397.8334
      1062.611         828.009
  -9527882.832 9  -7400644.01547  23179022.506    23179022.6024   23179029.8934
      4042.854        3150.276
 96 10 10 15 55 29.9980000  0  8 17 28  3 26  6 23 22 21            -0.001192447
  -4501420.785 9  -3333899.66548  20273233.925    20273233.6574   20273239.7744
      1675.037        1305.224
  -8922144.555 9  -6324098.912 9  21024591.932    21024591.670    21024597.294
      3501.313        2728.296
  -2565844.482 9  -1975818.77445  24818781.757    24818781.0524   24818787.4774
      4773.583        3719.675
  -3733751.811 9  -2897401.86048  21797809.169    21797809.7084   21797814.8844
       878.499         684.545
    393062.933 9    309460.29548  20555154.047    20555153.5444   20555159.4154
      -819.797        -638.803
  -6805256.770 9  -5284511.29348  20575381.562    20575381.5534   20575387.6964
      2448.481        1907.907
  -3944293.654 9  -3062014.84747  23076370.191    23076369.5864   23076376.6134
      1046.561         815.502
  -9649071.646 9  -7495076.83947  23155960.876    23155961.1354   23155968.3934
      4036.144        3145.047
 96 10 10 15 55 59.9980000  0  8 17 28  3 26  6 23 22 21            -0.001215115
  -4551529.260 9  -3372945.23248  20263698.574    20263698.3424   20263704.4534
      1665.785        1298.014
  -9026968.242 9  -6405779.702 9  21004644.458    21004644.394    21004650.031
      3487.249        2717.337
  -2709008.265 9  -2087374.98546  24791538.790    24791538.0204   24791544.4194
      4771.004        3717.665
  -3759781.339 9  -2917684.61348  21792856.197    21792856.4204   21792861.6244
       857.151         667.910
    417928.037 9    328835.68148  20559885.648    20559885.2264   20559891.1084
      -837.430        -652.543
  -6878484.019 9  -5341571.47348  20561446.775    20561446.8434   20561453.0104
      2433.701        1896.390
  -3975416.904 9  -3086266.76247  23070447.609    23070447.0674   23070454.1104
      1028.545         801.464
  -9770021.814 9  -7589323.70647  23132945.415    23132945.1574   23132952.3494
      4027.543        3138.345
 96 10 10 15 56 29.9980000  0  8 17 28  3 26  6 23 22 21            -0.001237814
  -4601406.608 9  -3411810.69748  20254207.289    20254206.9864   20254213.0974
      1658.041        1291.980
  -9131430.006 9  -6487178.473 9  20984766.289    20984765.989    20984771.617
      3475.327        2708.047
  -2852159.200 8  -2198921.17446  24764297.472    24764297.3864   24764303.8174
      4770.851        3717.546
  -3785231.607 9  -2937515.96548  21788013.326    21788013.4244   21788018.6424
       837.896         652.906
    443251.525 9    348568.25648  20564704.466    20564704.1564   20564710.0554
      -852.371        -664.185
  -6951321.588 9  -5398328.00948  20547586.357    20547586.3244   20547592.4574
      2420.581        1886.167
  -4006061.109 9  -3110145.38247  23064616.222    23064615.7164   23064622.7184
      1012.767         789.169
  -9890780.783 9  -7683421.58247  23109966.392    23109965.4964   23109972.6294
      4021.574        3133.694
 96 10 10 15 56 59.9980000  0  8 17 28  3 26  6 23 22 21            -0.001260511
  -4651017.317 9  -3450468.39548  20244766.677    20244766.3684   20244772.4774
      1649.482        1285.311
  -9235495.083 9  -6568268.138 9  20964963.241    20964963.080    20964968.683
      3462.347        2697.933
  -2995269.235 9  -2310435.51246  24737063.602    24737064.4704   24737070.9804
      4769.676        3716.631
  -3810053.588 9  -2956857.76148  21783289.594    21783289.9004   21783295.3164
       817.047         636.660
    469067.959 9    368684.93848  20569616.910    20569616.8674   20569622.8154
      -868.703        -676.911
  -7023725.598 9  -5454746.70848  20533808.414    20533808.3054   20533814.4224
      2406.238        1874.991
  -4036186.160 9  -3133619.45647  23058883.654    23058883.1894   23058890.1674
       995.630         775.816
 -10011320.105 9  -7777348.30947  23087028.441    23087027.5994   23087034.7464
      4014.324        3128.045
 96 10 10 15 57 29.9980000  0  8 17 28  3 26  6 23 22 21            -0.001283192
  -4700361.618 9  -3488918.50248  20235376.709    20235376.4744   20235382.5824
      1640.753        1278.509
  -9339148.061 9  -6649036.691 9  20945238.580    20945238.571    20945244.165
      3448.364        2687.037
  -3138314.604 9  -2421899.45346  24709843.525    24709843.9154   24709850.5284
      4767.154        3714.665
  -3834236.192 9  -2975701.34948  21778687.803    21778688.0644   21778693.4804
       795.824         620.123
    495394.686 9    389199.25248  20574626.807    20574626.6994   20574632.6274
      -885.696        -690.153
  -7095667.071 9  -5510804.99348  20520118.481    20520118.2974   20520124.4014
      2390.401        1862.650
  -4065781.970 9  -3156681.14647  23053251.818    23053251.3724   23053258.2334
       977.855         761.965
 -10131626.049 9  -7871093.17847  23064134.176    23064134.1324   23064141.2814
      4006.517        3121.961
 96 10 10 15 57 59.9980000  0  8 17 28  3 26  6 23 22 21            -0.001305869
  -4749477.516 9  -3527190.63548  20226030.366    20226030.0454   20226036.1214
      1633.174        1272.603
  -9442407.529 9  -6729498.606 9  20925589.118    20925588.916    20925594.521
      3435.135        2676.729
  -3281302.752 9  -2533318.80046  24682634.133    24682634.2294   24682640.7694
      4764.991        3712.980
  -3857817.369 9  -2994076.29148  21774200.508    21774200.7544   21774206.1294
       775.772         604.498
    522198.342 9    410085.19748  20579727.546    20579727.2924   20579733.1914
      -901.798        -702.700
  -7167160.997 9  -5566514.53748  20506513.493    20506513.4664   20506519.5504
      2375.561        1851.086
  -4094865.743 9  -3179343.84147  23047717.636    23047716.9704   23047723.7764
       960.479         748.425
 -10251718.285 9  -7964671.52947  23041281.073    23041281.3064   23041288.4634
      3999.263        3116.309
 96 10 10 15 58 29.9980000  0  8 17 28  3 26  6 23 22 21            -0.001328527
  -4798359.579 9  -3565280.55448  20216728.439    20216728.1104   20216734.1704
      1625.186        1266.379
  -9545263.326 9  -6809645.975 9  20906016.232    20906016.093    20906021.698
      3421.423        2666.044
  -3424224.853 9  -2644686.69546  24655436.198    24655437.0774   24655443.6514
      4762.604        3711.120
  -3880793.589 9  -3011979.83348  21769828.407    21769828.5664   21769833.8394
       755.485         588.690
    549497.556 9    431357.29648  20584922.407    20584922.1964   20584928.0484
      -918.691        -715.863
  -7238207.907 9  -5621875.75448  20492994.003    20492993.6794   20492999.7644
      2360.423        1839.291
  -4123418.710 9  -3201592.91047  23042284.595    23042283.5504   23042290.2854
       942.441         734.370
 -10371591.016 9  -8058078.82047  23018470.120    23018470.2584   23018477.4474
      3991.813        3110.504
 96 10 10 15 58 59.9980000  0  8 17 28  3 26  6 23 22 21            -0.001351164
  -4847021.884 9  -3603199.23448  20207468.311    20207468.0174   20207474.0404
      1618.177        1260.917
  -9647722.607 9  -6889484.372 9  20886518.650    20886518.729    20886524.336
      3408.461        2655.944
  -3567087.254 9  -2756008.06146  24628250.883    24628251.2224   24628257.8524
      4760.791        3709.707
  -3903177.085 9  -3029421.51848  21765569.021    21765569.1974   21765574.3904
       736.165         573.635
    577292.902 9    453015.98748  20590211.720    20590211.4884   20590217.3284
      -934.973        -728.550
  -7308822.081 9  -5676899.77648  20479556.419    20479556.2684   20479562.3434
      2346.422        1828.381
  -4151448.723 9  -3223434.49647  23036950.471    23036949.6004   23036956.4024
       925.515         721.181
 -10491253.106 9  -8151321.98847  22995698.958    22995699.2514   22995706.4454
      3984.833        3105.065
 96 10 10 15 59 29.9980000  0  8 17 28  3 26  6 23 22 21            -0.001373808
  -4895482.171 9  -3640960.50248  20198246.684    20198246.3564   20198252.3394
      1611.033        1255.350
  -9749805.172 9  -6969029.227 9  20867092.909    20867093.056    20867098.674
      3395.742        2646.033
  -3709908.479 9  -2867297.34246  24601073.610    24601073.2634   24601079.9264
      4759.323        3708.563
  -3925000.272 9  -3046426.60448  21761416.316    21761416.4384   21761421.6144
       717.249         558.895
    605554.855 9    475038.27048  20595589.596    20595589.5994   20595595.4464
      -950.372        -740.550
  -7379032.019 9  -5731608.80848  20466195.997    20466195.8104   20466201.8544
      2333.081        1817.985
  -4178986.701 9  -3244892.67047  23031710.244    23031709.2734   23031716.1274
       908.960         708.281
 -10610720.945 9  -8244413.79147  22972965.052    22972965.2474   22972972.4564
      3978.338        3100.004
 96 10 10 15 59 59.9980000  0  8 17 28  3 26  6 23 22 21            -0.001396412
  -4943651.071 9  -3678494.71448  20189080.342    20189080.1414   20189086.1074
      1600.785        1247.365
  -9851440.603 9  -7048225.662 9  20847752.555    20847752.469    20847758.100
      3380.541        2634.188
  -3852614.842 9  -2978497.13646  24573917.334    24573917.2244   24573923.8574
      4755.158        3705.318
  -3946179.266 9  -3062929.72348  21757385.655    21757386.1834   21757391.3964
       695.248         541.752
    634335.297 9    497464.56648  20601066.364    20601066.2774   20601072.2174
      -967.732        -754.077
  -7448780.882 9  -5785958.56048  20452923.494    20452923.0434   20452929.0564
      2317.418        1805.780
  -4205954.475 9  -3265906.54947  23026578.385    23026577.4904   23026584.3464
       889.559         693.163
 -10729923.913 9  -8337299.19647  22950282.065    22950281.6514   22950288.8274
      3969.116        3092.818
 96 10 10 16  0 29.9980000  0  8 17 28  3 26  6 23 22 21            -0.001419003
  -4991563.851 9  -3715829.34848  20179962.858    20179962.6514   20179968.6124
      1592.853        1241.184
  -9952672.413 9  -7127107.590 9  20828488.865    20828488.719    20828494.356
      3367.652        2624.144
  -3995253.224 9  -3089643.95346  24546774.520    24546774.1664   24546780.7204
      4753.514        3704.037
  -3966749.936 9  -3078958.82048  21753471.330    21753471.6874   21753476.9034
       675.595         526.438
    663579.799 9    520252.48148  20606631.361    20606631.3474   20606637.2724
      -982.393        -765.501
  -7518109.761 9  -5839981.05248  20439730.407    20439730.1824   20439736.1814
      2303.861        1795.216
  -4232399.515 9  -3286513.09347  23021546.696    23021545.1694   23021551.9754
       872.860         680.151
 -10848899.314 9  -8430007.27447  22927641.783    22927641.3584   22927648.4984
      3961.908        3087.201
 96 10 10 16  0 59.9980000  0  8 17 28  3 26  6 23 22 21            -0.001441600
  -5039241.317 9  -3752980.62048  20170890.177    20170889.9634   20170895.8904
      1584.660        1234.800
 -10053509.231 9  -7205681.728 9  20809300.321    20809300.111    20809305.782
      3353.662        2613.243
  -4137831.326 9  -3200743.80046  24519644.032    24519642.4794   24519649.1234
      4750.630        3701.790
  -3986724.745 9  -3094523.60748  21749670.170    21749670.5454   21749675.7934
       655.045         510.425
    693262.449 9    543381.79948  20612279.777    20612279.7814   20612285.7304
      -997.465        -777.245
  -7587027.310 9  -5893683.02348  20426615.802    20426615.5794   20426621.5914
      2289.492        1784.020
  -4258337.262 9  -3306724.34247  23016610.288    23016609.4074   23016616.1754
       855.170         666.366
 -10967643.901 9  -8522535.50647  22905045.174    22905044.9894   22905052.0984
      3953.370        3080.548
 96 10 10 16  1 29.9980000  0  8 17 28  3 26  6 23 22 21            -0.001464172
  -5086666.253 9  -3789935.12448  20161865.493    20161865.2944   20161871.2154
      1576.748        1228.635
 -10153914.912 9  -7283919.924 9  20790193.953    20790193.560    20790199.204
      3339.701        2602.364
  -4280311.875 9  -3311767.63946  24492529.803    24492529.3744   24492535.9364
      4747.758        3699.552
  -4006076.572 9  -3109602.95548  21745987.741    21745987.9374   21745993.2924
       634.718         494.585
    723400.064 9    566865.63348  20618014.820    20618014.7934   20618020.7334
     -1012.137        -788.678
  -7655498.862 9  -5947037.47448  20413585.987    20413585.8394   20413591.8674
      2275.066        1772.779
  -4283733.515 9  -3326513.65847  23011777.638    23011776.5804   23011783.4034
       837.649         652.714
 -11086127.772 9  -8614860.58047  22882498.787    22882498.2424   22882505.3724
      3945.285        3074.248
 96 10 10 16  1 59.9980000  0  8 17 28  3 26  6 23 22 21            -0.001486712
  -5133837.594 9  -3826692.00848  20152889.045    20152888.8954   20152894.8064
      1568.142        1221.929
 -10253875.731 9  -7361811.474 9  20771172.205    20771171.682    20771177.303
      3324.400        2590.441
  -4422680.327 9  -3422704.12146  24465438.086    24465437.6894   24465444.1454
      4743.725        3696.409
  -4024793.751 9  -3124187.77448  21742426.373    21742426.2214   21742431.5404
       613.366         477.948
    754009.495 9    590717.12748  20623839.657    20623839.5984   20623845.4994
     -1028.578        -801.489
  -7723515.692 9  -6000037.58848  20400643.053    20400642.6524   20400648.7034
      2259.471        1760.627
  -4308588.081 9  -3345880.87047  23007047.825    23007046.8984   23007053.8134
       819.415         638.505
 -11204344.781 9  -8706977.70647  22860002.894    22860002.3094   22860009.4114
      3935.955        3066.978
 96 10 10 16  2 29.9980000  0  8 17 28  3 26  6 23 22 21            -0.001509238
  -5180782.383 9  -3863272.36848  20143955.672    20143955.5864   20143961.5274
      1561.169        1216.495
 -10353405.895 9  -7439367.445 9  20752232.183    20752231.763    20752237.349
      3310.622        2579.705
  -4564962.503 9  -3533573.37146  24438363.413    24438362.3024   24438368.8284
      4741.550        3694.714
  -4042909.689 9  -3138304.09548  21738978.670    21738978.8084   21738984.1974
       594.065         462.908
    785094.087 9    614938.86748  20629754.873    20629754.7954   20629760.7624
     -1044.004        -813.510
  -7791096.438 9  -6052697.89948  20387782.717    20387782.4844   20387788.5214
      2245.706        1749.901
  -4332926.491 9  -3364845.90247  23002415.975    23002415.4834   23002422.4024
       802.872         625.615
 -11322313.893 9  -8798901.66747  22837553.676    22837553.5654   22837560.6414
      3928.395        3061.087
 96 10 10 16  2 59.9980000  0  8 17 28  3 26  6 23 22 21            -0.001531744
  -5227507.743 9  -3899681.74348  20135064.090    20135064.0264   20135070.0094
      1553.114        1210.219
 -10452511.023 9  -7516592.224 9  20733373.231    20733372.706    20733378.275
      3295.785        2568.144
  -4707173.747 9  -3644387.35446  24411300.849    24411300.4244   24411306.9484
      4738.622        3692.433
  -4060430.956 9  -3151957.04248  21735644.474    21735644.6394   21735650.0504
       573.401         446.806
    816653.681 9    639530.73948  20635760.480    20635760.4164   20635766.3854
     -1060.637        -826.470
  -7858256.956 9  -6105030.76448  20375002.543    20375002.2904   20375008.3074
      2231.092        1738.513
  -4356761.022 9  -3383418.29247  22997880.894    22997879.9994   22997886.9034
       785.509         612.085
 -11440049.955 9  -8890644.03447  22815149.347    22815149.1804   22815156.2164
      3920.047        3054.582
 96 10 10 16  3 29.9980000  0  8 17 28  3 26  6 23 22 21            -0.001554225
  -5273976.129 9  -3935890.88048  20126221.570    20126221.3794   20126227.3664
      1544.683        1203.649
 -10551170.337 9  -7593469.610 9  20714598.729    20714598.463    20714604.038
      3281.545        2557.048
  -4849301.483 9  -3755136.24546  24384254.732    24384254.4604   24384261.0924
      4736.564        3690.829
  -4077327.279 9  -3165123.01248  21732429.279    21732429.3004   21732434.8004
       552.998         430.908
    848718.321 9    664516.16148  20641862.065    20641862.1644   20641868.1234
     -1077.004        -839.224
  -7924980.065 9  -6157022.78148  20362305.457    20362305.3074   20362311.3464
      2217.259        1727.734
  -4380078.034 9  -3401587.40547  22993444.212    22993442.9574   22993449.9024
       768.916         599.155
 -11557531.470 9  -8982188.04347  22792793.143    22792793.1844   22792800.1704
      3911.929        3048.256
 96 10 10 16  3 59.9980000  0  8 17 28  3 26  6 23 22 21            -0.001576688
  -5320190.929 9  -3971902.41448  20117427.180    20117426.9784   20117432.9774
      1537.267        1197.870
 -10649403.485 9  -7670014.922 9  20695905.380    20695905.301    20695910.906
      3268.283        2546.714
  -4991372.827 9  -3865841.20446  24357218.294    24357219.1274   24357225.8484
      4735.907        3690.317
  -4093612.013 9  -3177812.42648  21729329.960    21729330.3554   21729335.8544
       533.640         415.823
    881271.799 9    689882.48848  20648056.800    20648056.8944   20648062.8544
     -1092.197        -851.062
  -7991297.435 9  -6208698.64648  20349685.769    20349685.5424   20349691.5904
      2204.788        1718.017
  -4402889.789 9  -3419362.82847  22989103.011    22989102.0004   22989109.0284
       752.701         586.520
 -11674766.134 9  -9073539.70147  22770484.054    22770484.1594   22770491.1264
      3904.754        3042.665
 96 10 10 16  4 29.9980000  0  8 17 28  3 26  6 23 22 21            -0.001599106
  -5366127.050 9  -4007696.79948  20108685.921    20108685.6304   20108691.6264
      1526.092        1189.163
 -10747186.600 9  -7746209.558 9  20677297.832    20677297.792    20677303.411
      3251.498        2533.635
  -5133371.183 9  -3976489.29746  24330197.053    24330197.7924   24330204.4554
      4731.505        3686.887
  -4109262.888 9  -3190007.90848  21726352.063    21726352.1284   21726357.4934
       510.524         397.811
    914325.420 9    715638.53748  20654346.543    20654346.7574   20654352.7884
     -1110.441        -865.279
  -8057187.240 9  -6260041.34248  20337147.306    20337147.1274   20337153.1684
      2188.831        1705.582
  -4425161.906 9  -3436717.74647  22984864.871    22984863.8034   22984870.8624
       733.088         571.237
 -11791725.539 9  -9164676.87547  22748227.328    22748227.4684   22748234.4484
      3893.566        3033.948
 96 10 10 16  4 59.9980000  0  8 17 28  3 26  6 23 22 21            -0.001621479
  -5411775.097 9  -4043266.70648  20099999.353    20099999.0534   20100005.0994
      1517.186        1182.223
 -10844507.614 9  -7822044.112 9  20658778.230    20658778.225    20658783.859
      3236.691        2522.097
  -5275275.810 9  -4087064.33646  24303193.728    24303194.2414   24303201.0044
      4728.744        3684.736
  -4124255.674 9  -3201690.61848  21723498.966    21723499.0274   21723504.3814
       489.150         381.156
    947877.805 9    741783.23048  20660731.440    20660731.5954   20660737.5924
     -1126.222        -877.576
  -8122641.589 9  -6311044.71948  20324691.698    20324691.5784   20324697.6254
      2175.018        1694.819
  -4446893.889 9  -3453651.78947  22980728.412    22980728.3784   22980735.3884
       715.717         557.702
 -11908395.044 9  -9255588.15947  22726025.658    22726025.9634   22726032.9594
      3884.468        3026.858
 96 10 10 16  5 29.9980000  0  8 17 28  3 26  6 23 22 21            -0.001643818
  -5457173.122 9  -4078641.79148  20091360.281    20091360.0924   20091366.1504
      1509.438        1176.185
 -10941405.181 9  -7897548.713 9  20640339.198    20640339.260    20640344.858
      3223.065        2511.479
  -5417109.374 9  -4197584.01246  24276204.569    24276204.1674   24276211.0454
      4726.629        3683.088
  -4138630.598 9  -3212891.86748  21720763.411    21720763.6234   21720769.0564
       469.262         365.659
    981876.823 9    768275.96048  20667201.280    20667201.4114   20667207.3554
     -1140.404        -888.626
  -8187708.883 9  -6361746.49448  20312309.658    20312309.6664   20312315.7184
      2162.585        1685.131
  -4468120.158 9  -3470191.76247  22976689.726    22976689.2584   22976696.1654
       699.371         544.964
 -12024810.829 9  -9346301.72947  22703872.749    22703872.7854   22703879.7764
      3876.610        3020.735
 96 10 10 16  5 59.9980000  0  8 17 28  3 26  6 23 22 21            -0.001666146
  -5502335.365 9  -4113833.15848  20082766.134    20082766.0254   20082772.0574
      1501.220        1169.782
 -11037881.834 9  -7972725.328 9  20621980.141    20621980.378    20621985.961
      3208.479        2500.113
  -5558861.317 9  -4308040.08046  24249228.192    24249229.6804   24249236.6004
      4723.279        3680.477
  -4152404.393 9  -3223624.69548  21718142.839    21718142.6814   21718148.0144
       448.862         349.762
   1016312.155 9    795108.66848  20673754.099    20673754.3124   20673760.2394
     -1155.541        -900.422
  -8252378.373 9  -6412138.29848  20300003.532    20300003.4464   20300009.4824
      2148.346        1674.036
  -4488853.281 9  -3486347.45647  22972744.278    22972743.9244   22972750.8524
       682.754         532.016
 -12140985.783 9  -9436827.65647  22681766.131    22681765.4114   22681772.3804
      3868.149        3014.142
 96 10 10 16  6 29.9980000  0  8 17 28  3 26  6 23 22 21            -0.001688477
  -5547248.217 9  -4148830.18948  20074219.515    20074219.4024   20074225.4194
      1492.239        1162.784
 -11133917.897 9  -8047558.623 9  20603705.191    20603705.349    20603710.893
      3193.191        2488.201
  -5700502.164 9  -4418409.58546  24222275.276    24222276.3094   24222283.2214
      4718.687        3676.899
  -4165566.846 9  -3233881.16148  21715638.201    21715638.0144   21715643.3164
       427.985         333.495
   1051207.596 9    822299.90248  20680394.502    20680394.6714   20680400.6794
     -1171.568        -912.910
  -8316611.820 9  -6462190.32548  20287780.271    20287780.2324   20287786.2784
      2133.197        1662.231
  -4509099.266 9  -3502123.58147  22968891.236    22968891.2434   22968898.1814
       666.240         519.148
 -12256904.664 9  -9527154.03347  22659707.437    22659706.7274   22659713.7584
      3859.078        3007.074
 96 10 10 16  6 59.9980000  0  8 17 28  3 26  6 23 22 21            -0.001710817
  -5591904.094 9  -4183626.98148  20065721.871    20065721.6624   20065727.6764
      1483.206        1155.745
 -11229511.129 9  -8122046.853 9  20585514.398    20585514.557    20585520.096
      3178.030        2476.387
  -5842012.941 9  -4528677.72946  24195346.761    24195347.7594   24195354.5634
      4713.886        3673.158
  -4178122.300 9  -3243664.63848  21713248.847    21713248.7504   21713254.0894
       407.505         317.536
   1086567.558 9    849853.10548  20687123.292    20687123.5004   20687129.4404
     -1187.372        -925.225
  -8380400.019 9  -6511895.40948  20275641.800    20275641.7274   20275647.7814
      2117.736        1650.184
  -4528860.749 9  -3517522.15747  22965130.927    22965130.7254   22965137.7184
       649.444         506.060
 -12372574.853 9  -9617286.62247  22637695.918    22637695.4054   22637702.5164
      3850.546        3000.425
 96 10 10 16  7 29.9980000  0  8 17 28  3 26  6 23 22 21            -0.001733151
  -5636273.726 9  -4218200.72348  20057278.731    20057278.4414   20057284.3924
      1474.266        1148.779
 -11324629.209 9  -8196164.843 9  20567413.961    20567414.203    20567419.721
      3162.476        2464.267
  -5983369.983 9  -4638826.09246  24168447.219    24168448.4364   24168455.1944
      4709.299        3669.584
  -4190051.669 9  -3252960.25248  21710978.687    21710978.6344   21710983.9744
       387.178         301.697
   1122424.033 9    877793.19448  20693946.455    20693946.6984   20693952.7074
     -1203.809        -938.033
  -8443696.992 9  -6561217.71948  20263596.906    20263596.7074   20263602.7524
      2101.311        1637.385
  -4548097.033 9  -3532511.49347  22961470.623    22961470.1444   22961477.2124
       632.525         492.877
 -12487972.528 9  -9707206.86847  22615736.169    22615735.9374   22615743.0554
      3842.045        2993.801
 96 10 10 16  7 59.9980000  0  8 17 28  3 26  6 23 22 21            -0.001755486
  -5680375.745 9  -4252565.93648  20048886.435    20048886.1234   20048892.0584
      1467.007        1143.122
 -11419272.394 9  -8269912.776 9  20549404.126    20549404.217    20549409.702
      3148.087        2453.055
  -6124590.087 9  -4748867.74546  24141574.888    24141575.1354   24141581.8804
      4706.434        3667.351
  -4201367.564 9  -3261777.83648  21708825.192    21708825.3504   21708830.6124
       368.193         286.904
   1158785.737 9    906126.97648  20700865.900    20700866.1034   20700872.0954
     -1219.090        -949.940
  -8506491.350 9  -6610148.37448  20251647.342    20251647.3114   20251653.3564
      2086.314        1625.699
  -4566822.734 9  -3547102.96247  22957907.959    22957906.7904   22957913.8734
       616.836         480.651
 -12603111.070 9  -9796925.19447  22593825.947    22593825.7634   22593832.8864
      3834.853        2988.197
 96 10 10 16  8 29.9980000  0  8 17 28  3 26  6 23 22 21            -0.001777791
  -5724248.087 9  -4286752.17948  20040537.643    20040537.5074   20040543.4194
      1457.933        1136.052
 -11513471.263 9  -8343314.497 9  20531478.604    20531478.738    20531484.262
      3131.958        2440.487
  -6265715.133 9  -4858835.32146  24114719.312    24114719.9454   24114726.7664
      4702.010        3663.904
  -4212093.714 9  -3270135.88048  21706784.088    21706784.1404   21706789.4124
       347.041         270.422
   1195609.283 9    934820.62848  20707873.084    20707873.3704   20707879.4074
     -1235.567        -962.779
  -8568840.862 9  -6658732.40548  20239782.692    20239782.5804   20239788.6264
      2070.562        1613.425
  -4585059.378 9  -3561313.35947  22954437.135    22954436.4644   22954443.5574
       598.987         466.743
 -12718026.159 9  -9886469.40647  22571958.376    22571958.2294   22571965.2294
      3826.297        2981.530
 96 10 10 16  8 59.9980000  0  8 17 28  3 26  6 23 22 21            -0.001800069
  -5767866.812 9  -4320740.79748  20032237.303    20032237.1404   20032243.0264
      1450.522        1130.277
 -11607204.000 9  -8416352.990 9  20513642.105    20513641.947    20513647.511
      3117.231        2429.011
  -6406731.288 9  -4968718.05146  24087885.767    24087885.4814   24087892.2454
      4699.500        3661.948
  -4222200.747 9  -3278011.49548  21704861.096    21704860.8204   21704866.0744
       327.231         254.985
   1232904.125 9    963881.52348  20714970.344    20714970.3684   20714976.4314
     -1250.308        -974.266
  -8630740.972 9  -6706966.24648  20228003.621    20228003.3664   20228009.4154
      2056.575        1602.526
  -4602768.537 9  -3575112.73247  22951067.676    22951066.5834   22951073.6324
       582.000         453.506
 -12832702.308 9  -9975827.42247  22550136.353    22550136.1334   22550143.1044
      3818.980        2975.829
 96 10 10 16  9 29.9980000  0  8 17 28  3 26  6 23 22 21            -0.001822322
  -5811257.480 9  -4354551.70748  20023980.260    20023980.1614   20023986.0574
      1442.214        1123.803
 -11700476.672 9  -8489032.992 9  20495892.755    20495892.728    20495898.318
      3101.050        2416.403
  -6547658.707 9  -5078531.61146  24061068.972    24061067.8834   24061074.6574
      4695.600        3658.909
  -4231701.668 9  -3285414.79948  21703052.873    21703052.9614   21703058.1324
       306.344         238.710
   1270653.515 9    993296.61348  20722153.722    20722153.7914   20722159.9534
     -1266.219        -986.664
  -8692217.295 9  -6754869.86648  20216305.088    20216304.8334   20216310.8744
      2042.003        1591.171
  -4619957.725 9  -3588506.93147  22947797.000    22947795.6184   22947802.6124
       564.170         439.613
 -12947132.948 9 -10064994.12747  22528360.862    22528360.7134   22528367.6694
      3809.738        2968.627
 96 10 10 16  9 59.9980000  0  8 17 28  3 26  6 23 22 21            -0.001844539
  -5854391.497 9  -4388162.62648  20015772.170    20015772.0364   20015777.9274
      1434.306        1117.641
 -11793266.155 9  -8561336.481 9  20478235.442    20478235.462    20478241.061
      3085.891        2404.590
  -6688459.970 9  -5188246.90846  24034274.368    24034274.3224   24034281.0424
      4692.096        3656.179
  -4240578.264 9  -3292331.61548  21701363.135    21701363.8634   21701369.0184
       286.443         223.202
   1308870.908 9   1023076.37948  20729425.972    20729426.3464   20729432.5564
     -1280.515        -997.804
  -8753268.204 9  -6802441.99548  20204687.373    20204687.2454   20204693.2774
      2029.152        1581.157
  -4636613.110 9  -3601485.18147  22944627.048    22944626.2044   22944633.1404
       547.031         426.258
 -13061282.683 9 -10153941.95747  22506638.831    22506638.6894   22506645.6814
      3801.126        2961.916
 96 10 10 16 10 29.9980000  0  8 17 28  3 26  6 23 22 21            -0.001866727
  -5897274.479 9  -4421577.93348  20007611.840    20007611.7014   20007617.5814
      1424.407        1109.928
 -11885595.088 9  -8633281.104 9  20460665.728    20460665.857    20460671.448
      3069.245        2391.619
  -6829146.424 9  -5297872.71046  24007502.556    24007502.5214   24007509.3594
      4686.865        3652.102
  -4248857.456 9  -3298782.93348  21699787.284    21699788.3824   21699793.6094
       265.561         206.931
   1347522.658 9   1053194.61448  20736781.260    20736781.5764   20736787.8224
     -1296.501       -1010.261
  -8813927.163 9  -6849708.70748  20193144.355    20193144.2214   20193150.2474
      2014.527        1569.761
  -4652750.475 9  -3614059.77047  22941555.960    22941555.3504   22941562.2744
       528.668         411.949
 -13175161.432 9 -10242678.61747  22484968.523    22484968.2494   22484975.3184
      3790.683        2953.779
 96 10 10 16 10 59.9980000  0  8 17 28  3 26  6 23 22 21            -0.001888875
  -5939860.607 9  -4454761.92748  19999508.029    19999507.8334   19999513.7284
      1415.770        1103.197
 -11977421.942 9  -8704834.496 9  20443191.866    20443191.802    20443197.383
      3053.542        2379.383
  -6969664.991 9  -5407367.70346  23980762.759    23980762.7594   23980769.5394
      4681.961        3648.281
  -4256521.730 9  -3304755.09248  21698328.977    21698329.8734   21698335.1934
       246.379         191.984
   1386659.292 9   1083690.67448  20744228.720    20744229.0864   20744235.2814
     -1311.649       -1022.064
  -8874140.525 9  -6896628.20348  20181686.407    20181686.0234   20181692.0064
      2000.629        1558.932
  -4668340.603 9  -3626207.94347  22938588.957    22938588.6424   22938595.6014
       511.907         398.889
 -13288722.428 9 -10331167.69247  22463358.618    22463358.2364   22463365.3624
      3781.113        2946.322
 96 10 10 16 11 29.9980000  0  8 17 28  3 26  6 23 22 21            -0.001911027
  -5982204.634 9  -4487757.27448  19991450.204    19991450.0304   19991455.9324
      1406.392        1095.890
 -12068798.031 9  -8776036.640 9  20425803.876    20425803.528    20425809.113
      3037.554        2366.925
  -7110057.464 9  -5516764.43146  23954046.823    23954046.9324   23954053.7124
      4676.830        3644.283
  -4263635.109 9  -3310297.97648  21696975.687    21696976.1974   21696981.6524
       227.099         176.960
   1426232.881 9   1114527.22148  20751759.554    20751759.7434   20751765.9264
     -1327.239       -1034.212
  -8933951.442 9  -6943234.10648  20170304.889    20170304.3924   20170310.3634
      1986.104        1547.614
  -4683471.428 9  -3637998.23447  22935710.791    22935709.4224   22935716.3374
       496.189         386.641
 -13402018.578 9 -10419450.38947  22441798.974    22441798.6464   22441805.7924
      3771.571        2938.886
 96 10 10 16 11 59.9980000  0  8 17 28  3 26  6 23 22 21            -0.001933168
  -6024246.989 9  -4520517.55348  19983449.816    19983449.6454   19983455.5704
      1396.632        1088.285
 -12159678.465 9  -8846852.562 9  20408509.712    20408509.578    20408515.137
      3021.167        2354.156
  -7250279.674 9  -5626028.47446  23927363.927    23927363.6764   23927370.3444
      4671.498        3640.128
  -4270148.954 9  -3315373.68648  21695736.091    21695736.6114   21695742.0814
       207.142         161.409
   1466296.459 9   1145745.57448  20759383.420    20759383.5984   20759389.7344
     -1343.500       -1046.883
  -8993306.865 9  -6989485.07648  20159009.877    20159009.4164   20159015.4044
      1970.940        1535.797
  -4698110.645 9  -3649405.43447  22932925.045    22932923.7684   22932930.6534
       479.784         373.858
 -13515029.588 9 -10507510.87947  22420293.993    22420293.3194   22420300.4524
      3762.565        2931.869
 96 10 10 16 12 29.9980000  0  8 17 28  3 26  6 23 22 21            -0.001955283
  -6065984.721 9  -4553040.46348  19975507.499    19975507.2154   19975513.1354
      1387.302        1081.014
 -12250047.932 9  -8917270.325 9  20391313.022    20391312.857    20391318.410
      3004.762        2341.373
  -7390328.564 9  -5735157.49146  23900713.754    23900713.2734   23900719.9374
      4666.478        3636.217
  -4276042.509 9  -3319966.06948  21694615.378    21694615.0434   21694620.4984
       187.026         145.734
   1506867.336 9   1177359.23148  20767103.637    20767103.9544   20767110.1474
     -1359.935       -1059.690
  -9052182.826 9  -7035362.44348  20147805.755    20147805.6594   20147811.6594
      1955.537        1523.795
  -4712242.828 9  -3660417.54247  22930235.258    22930234.5984   22930241.4174
       463.703         361.327
 -13627755.944 9 -10595349.58647  22398842.400    22398842.2194   22398849.3184
      3753.907        2925.122
 96 10 10 16 12 59.9980000  0  8 17 28  3 26  6 23 22 21            -0.001977387
  -6107471.070 9  -4585367.48948  19967613.019    19967612.6504   19967618.5664
      1378.304        1074.003
 -12339945.184 9  -8987320.126 9  20374206.049    20374205.960    20374211.525
      2988.203        2328.470
  -7530246.859 9  -5844184.71246  23874088.577    23874087.7844   23874094.4354
      4661.418        3632.274
  -4281338.689 9  -3324092.96448  21693607.604    21693607.3124   21693612.6774
       165.749         129.155
   1547906.922 9   1209338.10648  20774913.339    20774913.5474   20774919.7504
     -1376.182       -1072.350
  -9110623.032 9  -7080900.25548  20136684.837    20136684.8614   20136690.8614
      1940.452        1512.041
  -4725914.908 9  -3671071.13847  22927633.852    22927632.8674   22927639.7104
       447.619         348.794
 -13740247.327 9 -10683005.18547  22377435.900    22377435.8334   22377442.9164
      3745.275        2918.396
 96 10 10 16 13 29.9980000  0  8 17 28  3 26  6 23 22 21            -0.001999457
  -6148695.514 9  -4617490.43448  19959768.215    19959767.9074   19959773.8074
      1369.679        1067.282
 -12429351.323 9  -9056987.246 9  20357192.580    20357192.558    20357198.086
      2971.907        2315.772
  -7670033.924 9  -5953109.68046  23847488.504    23847487.1004   23847493.8004
      4657.446        3629.179
  -4285993.745 9  -3327720.28148  21692722.255    21692721.5734   21692726.8664
       144.295         112.438
   1589421.977 9   1241687.48448  20782813.611    20782813.6224   20782819.7824
     -1391.705       -1084.445
  -9168626.941 9  -7126098.10148  20125647.113    20125647.0884   20125653.0874
      1926.257        1500.979
  -4739100.399 9  -3681345.57247  22925123.881    22925123.7234   22925130.6834
       430.894         335.762
 -13852485.246 9 -10770463.28847  22356077.879    22356077.6644   22356084.7454
      3736.966        2911.921
 96 10 10 16 13 59.9980000  0  8 17 28  3 26  6 23 22 21            -0.002021475
  -6189658.610 9  -4649409.73448  19951973.182    19951972.8864   19951978.7734
      1361.353        1060.794
 -12518259.682 9  -9126266.483 9  20340273.815    20340273.845    20340279.369
      2955.524        2303.006
  -7809697.798 9  -6061938.67846  23820910.718    23820909.9794   23820916.5664
      4653.622        3626.199
  -4289992.274 9  -3330836.01048  21691960.665    21691960.6574   21691965.9204
       122.610          95.540
   1631403.503 9   1274400.34348  20790802.461    20790802.4494   20790808.7014
     -1406.775       -1096.188
  -9226204.357 9  -7170963.61348  20114690.669    20114690.4744   20114696.4734
      1912.436        1490.210
  -4751757.774 9  -3691208.48347  22922715.471    22922715.0844   22922722.0754
       413.199         321.973
 -13964461.386 9 -10857717.39847  22334769.555    22334769.3064   22334776.3804
      3728.085        2905.001
 96 10 10 16 14 29.9970000  0  8 17 28  3 26  6 23 22 21            -0.002043437
  -6230361.779 9  -4681126.48748  19944227.569    19944227.3484   19944233.2154
      1351.981        1053.492
 -12606669.117 9  -9195156.950 9  20323450.088    20323450.114    20323455.606
      2938.454        2289.704
  -7949232.838 9  -6170667.26446  23794358.571    23794357.3884   23794363.8694
      4648.724        3622.382
  -4293340.355 9  -3333444.90748  21691323.421    21691323.6654   21691328.8454
       100.523          78.330
   1673834.765 9   1307463.64648  20798876.957    20798876.8524   20798883.1724
     -1422.177       -1108.190
  -9283366.222 9  -7215505.32148  20103812.963    20103812.9544   20103818.9304
      1898.413        1479.283
  -4763884.901 9  -3700658.21147  22920406.987    22920407.3874   22920414.3474
       395.302         308.028
 -14076147.128 9 -10944745.23247  22313516.256    22313516.2414   22313523.3174
      3717.719        2896.924
 96 10 10 16 14 59.9970000  0  8 17 28  3 26  6 23 22 21            -0.002065340
  -6270774.044 9  -4712616.56648  19936537.361    19936537.1364   19936543.0124
      1342.061        1045.762
 -12694560.486 9  -9263643.727 9  20306725.142    20306724.951    20306730.433
      2920.935        2276.053
  -8088619.616 9  -6279280.34646  23767833.548    23767832.9754   23767839.3904
      4643.604        3618.393
  -4296019.378 9  -3335532.44448  21690813.834    21690813.9044   21690819.1844
        78.247          60.972
   1716730.397 9   1340888.79348  20807039.430    20807039.5594   20807045.8794
     -1437.474       -1120.110
  -9340106.317 9  -7259718.37448  20093015.602    20093015.6594   20093021.6664
      1884.103        1468.132
  -4775473.384 9  -3709688.22047  22918202.559    22918202.1794   22918209.1554
       377.274         293.980
 -14187513.780 9 -11031524.42847  22292324.156    22292323.8894   22292330.9064
      3706.731        2888.362
 96 10 10 16 15 29.9970000  0  8 17 28  3 26  6 23 22 21            -0.002087227
  -6310929.304 9  -4743906.38248  19928896.015    19928895.8344   19928901.7274
      1334.980        1040.244
 -12781968.965 9  -9331754.228 9  20290091.812    20290091.663    20290097.148
      2906.275        2264.630
  -8227893.658 9  -6387805.56246  23741330.761    23741329.9934   23741336.3674
      4641.031        3616.388
  -4298094.367 9  -3337149.32848  21690418.462    21690419.1084   21690424.3714
        60.258          46.954
   1760036.720 9   1374633.96148  20815280.607    20815280.5194   20815286.8134
     -1449.700       -1129.636
  -9396454.984 9  -7303626.41748  20082292.816    20082292.8684   20082298.8794
      1872.305        1458.939
  -4786565.970 9  -3718331.81147  22916091.268    22916091.3464   22916098.3884
       362.222         282.251
 -14298594.698 9 -11118080.96447  22271186.567    22271185.8854   22271192.8794
      3698.796        2882.179
 96 10 10 16 15 59.9970000  0  8 17 28  3 26  6 23 22 21            -0.002109093
  -6350804.751 9  -4774978.15748  19921308.017    19921307.7914   19921313.6764
      1324.038        1031.718
 -12868870.280 9  -9399469.534 9  20273554.866    20273554.879    20273560.398
      2887.910        2250.319
  -8367012.276 9  -6496209.66246  23714857.945    23714856.5824   23714862.9234
      4634.237        3611.094
  -4299575.457 9  -3338303.43148  21690136.155    21690137.1984   21690142.4424
        39.315          30.635
   1803781.276 9   1408720.60648  20823604.716    20823604.8544   20823611.1354
     -1465.905       -1142.264
  -9452379.138 9  -7347203.67048  20071650.627    20071650.8624   20071656.8414
      1856.639        1446.732
  -4797150.389 9  -3726579.42747  22914077.284    22914077.2134   22914084.2744
       344.300         268.286
 -14409375.533 9 -11204403.66647  22250105.334    22250105.0034   22250111.9654
      3687.419        2873.314
 96 10 10 16 16 29.9970000  0  8 17 28  3 26  6 23 22 21            -0.002130959
  -6390396.771 9  -4805829.08448  19913773.923    19913773.6974   19913779.5814
      1314.429        1024.230
 -12955268.036 9  -9466792.460 9  20257113.993    20257113.939    20257119.459
      2870.902        2237.066
  -8505968.429 9  -6604487.19246  23688413.402    23688414.1874   23688420.4514
      4628.459        3606.591
  -4300479.206 9  -3339007.65548  21689964.152    21689965.2444   21689970.3374
        19.902          15.508
   1847964.873 9   1443149.36348  20832012.414    20832012.7004   20832018.9954
     -1480.624       -1153.733
  -9507871.710 9  -7390444.63048  20061090.754    20061090.9854   20061096.9654
      1841.756        1435.135
  -4807257.276 9  -3734454.94947  22912154.009    22912153.9424   22912161.0454
       328.514         255.985
 -14519868.812 9 -11290502.30947  22229079.198    22229078.8354   22229085.7544
      3677.897        2865.894
 96 10 10 16 16 59.9970000  0  8 17 28  3 26  6 23 22 21            -0.002152820
  -6429710.262 9  -4836462.97048  19906292.825    19906292.5814   19906298.4684
      1305.808        1017.513
 -13041160.245 9  -9533721.449 9  20240769.159    20240769.174    20240774.731
      2854.433        2224.234
  -8644761.137 9  -6712637.35546  23662004.161    23662002.7794   23662009.0634
      4623.576        3602.786
  -4300805.132 9  -3339261.63848  21689902.425    21689903.1944   21689908.3984
         1.010           0.787
   1892581.707 9   1477915.71048  20840503.077    20840503.0184   20840509.3124
     -1494.744       -1164.736
  -9562912.735 9  -7433333.72948  20050616.922    20050617.0534   20050623.0094
      1826.792        1423.474
  -4816890.849 9  -3741961.64647  22910321.417    22910320.7814   22910327.8434
       312.839         243.771
 -14630089.678 9 -11376388.68247  22208104.669    22208104.5174   22208111.3234
      3669.422        2859.290
 96 10 10 16 17 29.9970000  0  8 17 28  3 26  6 23 22 21            -0.002174677
  -6468747.379 9  -4866881.51048  19898864.283    19898864.0734   19898869.9584
      1298.927        1012.151
 -13126534.304 9  -9600246.694 9  20224522.994    20224523.037    20224528.623
      2839.481        2212.582
  -8783378.731 9  -6820651.05546  23635624.778    23635624.7074   23635631.0104
      4619.886        3599.911
  -4300544.452 9  -3339058.51848  21689952.130    21689952.8184   21689958.0044
       -16.200         -12.623
   1937651.729 9   1513035.17748  20849079.503    20849079.5344   20849085.8964
     -1507.595       -1174.749
  -9617483.075 9  -7475856.07148  20040232.607    20040232.6884   20040238.6134
      1813.626        1413.215
  -4826030.083 9  -3749083.14547  22908582.792    22908581.6364   22908588.7764
       298.751         232.793
 -14740036.920 9 -11462061.84147  22187182.075    22187182.2324   22187189.0304
      3662.722        2854.069
 96 10 10 16 17 59.9970000  0  8 17 28  3 26  6 23 22 21            -0.002196543
  -6507545.027 9  -4897113.44248  19891481.361    19891481.1044   19891486.9844
      1288.145        1003.749
 -13211432.383 9  -9666401.037 9  20208367.339    20208367.492    20208373.068
      2821.063        2198.231
  -8921862.186 9  -6928560.24746  23609272.969    23609272.1664   23609278.4254
      4613.035        3594.573
  -4299722.690 9  -3338418.17548  21690108.914    21690109.2354   21690114.3564
       -38.076         -29.670
   1983130.261 9   1548472.98148  20857733.567    20857733.8364   20857740.2054
     -1523.524       -1187.162
  -9671632.954 9  -7518050.76748  20029928.272    20029928.3224   20029934.2544
      1797.117        1400.351
  -4834725.056 9  -3755858.46947  22906927.119    22906927.0754   22906934.2044
       281.556         219.394
 -14849750.795 9 -11547553.15947  22166304.012    22166304.4254   22166311.1484
      3652.133        2845.818
 96 10 10 16 18 29.9970000  0  8 17 28  3 26  6 23 22 21            -0.002218393
  -6546059.119 9  -4927124.41848  19884152.394    19884152.1074   19884157.9944
      1279.281         996.842
 -13295817.544 9  -9732155.705 9  20192309.195    20192309.547    20192315.104
      2804.283        2185.156
  -9060177.508 9  -7036338.41446  23582952.584    23582951.5914   23582957.9534
      4607.726        3590.436
  -4298275.211 9  -3337290.28648  21690383.530    21690384.5714   21690389.7534
       -58.618         -45.676
   2029040.435 9   1584247.12148  20866470.032    20866470.2864   20866476.6984
     -1537.398       -1197.972
  -9725326.238 9  -7559889.68448  20019710.976    20019710.8354   20019716.7454
      1782.328        1388.827
  -4842942.452 9  -3762261.65847  22905364.263    22905363.3934   22905370.5174
       265.919         207.210
 -14959186.540 9 -11632827.74747  22145479.771    22145479.4664   22145486.1794
      3643.297        2838.933
 96 10 10 16 18 59.9970000  0  8 17 28  3 26  6 23 22 21            -0.002240200
  -6584281.146 9  -4956907.82048  19876878.975    19876878.7064   19876884.5594
      1270.138         989.718
 -13379664.058 9  -9797490.648 9  20176353.670    20176354.085    20176359.667
      2786.665        2171.427
  -9198297.625 9  -7143964.47646  23556669.142    23556668.2094   23556674.5824
      4601.507        3585.590
  -4296180.985 9  -3335658.44148  21690781.909    21690783.0334   21690788.2794
       -79.735         -62.131
   2075402.028 9   1620373.01148  20875292.343    20875292.6254   20875299.0314
     -1552.265       -1209.557
  -9778557.568 9  -7601368.62848  20009581.416    20009581.2354   20009587.1494
      1767.760        1377.475
  -4850645.724 9  -3768264.21747  22903898.663    22903897.5974   22903904.6714
       248.733         193.818
 -15068325.291 9 -11717870.91347  22124711.178    22124711.0774   22124717.7564
      3633.805        2831.536
 96 10 10 16 19 29.9970000  0  8 17 28  3 26  6 23 22 21            -0.002261967
  -6622243.992 9  -4986489.26248  19869654.947    19869654.6404   19869660.4714
      1260.752         982.404
 -13463003.590 9  -9862430.537 9  20160494.738    20160495.094    20160500.679
      2769.417        2157.987
  -9336245.194 9  -7251456.08146  23530419.015    23530417.6704   23530424.0424
      4595.078        3580.580
  -4293478.373 9  -3333552.52648  21691295.918    21691297.3594   21691302.7234
      -100.247         -78.115
   2122187.053 9   1656828.85648  20884195.260    20884195.6034   20884201.9334
     -1566.486       -1220.638
  -9831383.832 9  -7642531.94048  19999528.706    19999528.7254   19999534.6344
      1754.082        1366.817
  -4857859.044 9  -3773885.00247  22902526.269    22902524.9704   22902532.0154
       232.307         181.018
 -15177203.550 9 -11802711.09647  22103992.717    22103992.2384   22103998.9064
      3624.771        2824.497
 96 10 10 16 19 59.9970000  0  8 17 28  3 26  6 23 22 21            -0.002283697
  -6659938.173 9  -5015861.35548  19862481.921    19862481.6864   19862487.4784
      1251.742         975.383
 -13545834.457 9  -9926974.067 9  20144732.458    20144732.909    20144738.458
      2752.127        2144.515
  -9474011.342 9  -7358806.32146  23504203.408    23504201.7034   23504208.0864
      4588.764        3575.660
  -4290168.266 9  -3330973.22648  21691926.523    21691927.2274   21691932.6234
      -120.794         -94.125
   2169388.035 9   1693608.80848  20893177.422    20893177.6414   20893184.0314
     -1580.880       -1231.855
  -9883808.159 9  -7683382.05448  19989552.593    19989552.6554   19989558.6114
      1740.411        1356.164
  -4864583.518 9  -3779124.86847  22901246.214    22901245.3524   22901252.4404
       215.566         167.974
 -15285820.943 9 -11887348.01447  22083323.489    22083323.0074   22083329.6604
      3615.871        2817.562
 96 10 10 16 20 29.9970000  0  8 17 28  3 26  6 23 22 21            -0.002305361
  -6697341.923 9  -5045007.13848  19855364.206    19855364.0124   19855369.8184
      1243.130         968.673
 -13628118.538 9  -9991091.529 9  20129074.462    20129074.764    20129080.286
      2734.717        2130.948
  -9611554.395 9  -7465982.72646  23478028.655    23478028.1794   23478034.4894
      4582.026        3570.410
  -4286233.202 9  -3327906.96248  21692675.842    21692676.1294   21692681.4304
      -140.091        -109.162
   2217057.822 9   1730754.07248  20902248.824    20902248.9234   20902255.3144
     -1595.810       -1243.488
  -9935794.448 9  -7723890.84348  19979659.833    19979659.9844   19979665.9334
      1726.647        1345.439
  -4870779.019 9  -3783952.55347  22900067.751    22900066.3134   22900073.4794
       198.775         154.890
 -15394149.821 9 -11971760.11048  22062708.876    22062708.6914   22062715.3674
      3607.240        2810.836
 96 10 10 16 20 59.9970000  0  8 17 28  3 26  6 23 22 21            -0.002326982
  -6734484.681 9  -5073949.54148  19848296.220    19848295.9844   19848301.7994
      1233.285         961.001
 -13709878.964 9 -10054800.950 9  20113516.171    20113516.264    20113521.770
      2716.241        2116.551
  -9748895.583 9  -7573001.83246  23451893.928    23451892.9604   23451899.3964
      4574.219        3564.326
  -4281726.891 9  -3324395.55548  21693533.197    21693533.6634   21693538.8714
      -160.060        -124.722
   2265179.945 9   1768251.80748  20911406.062    20911406.2434   20911412.6584
     -1612.029       -1256.126
  -9987369.800 9  -7764079.42148  19969845.469    19969845.5204   19969851.4834
      1711.800        1333.870
  -4876477.012 9  -3788392.56647  22898982.739    22898982.0234   22898989.2334
       181.502         141.430
 -15502210.303 9 -12055963.06248  22042145.655    22042145.4714   22042152.1404
      3597.006        2802.862
 96 10 10 16 21 29.9970000  0  8 17 28  3 26  6 23 22 21            -0.002348563
  -6771344.373 9  -5102671.37748  19841281.927    19841281.8324   19841287.6544
      1223.864         953.660
 -13791104.557 9 -10118093.616 9  20098059.498    20098059.519    20098065.035
      2698.650        2102.844
  -9886017.632 8  -7679850.17046  23425799.919    23425799.4264   23425805.9184
      4567.146        3558.815
  -4276642.071 9  -3320433.36448  21694500.849    21694501.4184   21694506.5614
      -179.048        -139.518
   2313768.467 9   1806112.96448  20920652.136    20920652.3754   20920658.8084
     -1627.253       -1267.989
 -10038507.571 9  -7803927.02548  19960114.004    19960114.3034   19960120.2684
      1697.170        1322.470
  -4881695.886 9  -3792459.23247  22897989.927    22897988.9204   22897996.1394
       166.424         129.681
 -15609976.183 9 -12139936.45748  22021638.261    22021638.3324   22021644.9894
      3587.230        2795.244
 96 10 10 16 21 59.9970000  0  8 17 28  3 26  6 23 22 21            -0.002370145
  -6807953.648 9  -5131198.09048  19834315.449    19834315.3244   19834321.1444
      1216.085         947.599
 -13871829.622 9 -10180996.261 9  20082698.010    20082698.033    20082703.567
      2682.360        2090.151
 -10022960.239 9  -7786558.68646  23399739.658    23399740.0014   23399746.5764
      4561.715        3554.583
  -4271016.320 9  -3316049.67248  21695571.530    21695571.9624   21695577.1434
      -196.520        -153.132
   2362790.010 9   1844311.53948  20929980.510    20929980.8814   20929987.2964
     -1641.433       -1279.039
 -10089232.650 9  -7843453.04948  19950461.387    19950461.6634   19950467.6624
      1683.965        1312.181
  -4886492.698 9  -3796197.03947  22897076.482    22897076.1434   22897083.3124
       152.894         119.138
 -15717471.874 9 -12223699.31648  22001183.005    22001182.5744   22001189.2384
      3578.406        2788.368
 96 10 10 16 22 29.9970000  0  8 17 28  3 26  6 23 22 21            -0.002391711
  -6844280.715 9  -5159504.89548  19827402.556    19827402.5244   19827408.3424
      1205.897         939.660
 -13952026.247 9 -10243487.136 9  20067436.926    20067437.111    20067442.651
      2664.158        2075.967
 -10159699.940 9  -7893109.07346  23373719.797    23373719.3334   23373725.8294
      4554.447        3548.920
  -4264833.385 9  -3311231.82348  21696747.568    21696748.5534   21696753.6734
      -215.604        -168.003
   2412267.186 9   1882865.15648  20939395.994    20939396.1284   20939402.4394
     -1656.709       -1290.942
 -10139523.875 9  -7882641.01448  19940891.360    19940891.5784   19940897.5714
      1668.972        1300.498
  -4890852.793 9  -3799594.52547  22896247.067    22896246.4104   22896253.6324
       137.829         107.399
 -15824656.409 9 -12307219.70848  21980786.448    21980786.0354   21980792.7094
      3567.414        2779.803
 96 10 10 16 22 59.9970000  0  8 17 28  3 26  6 23 22 21            -0.002413267
  -6880318.919 9  -5187586.60748  19820544.792    19820544.7224   19820550.4964
      1195.719         931.729
 -14031691.837 9 -10305564.212 9  20052277.130    20052277.264    20052282.811
      2645.873        2061.719
 -10296244.546 9  -7999507.45746  23347736.196    23347735.7834   23347742.1304
      4547.595        3543.581
  -4258079.796 9  -3305969.28248  21698033.431    21698033.7334   21698038.9524
      -235.792        -183.734
   2462179.291 9   1921757.68148  20948894.094    20948894.0744   20948900.3714
     -1671.701       -1302.624
 -10189387.830 9  -7921496.03748  19931402.555    19931402.7904   19931408.7824
      1654.285        1289.053
  -4894771.805 9  -3802648.31447  22895502.002    22895500.6524   22895507.9274
       122.402          95.378
 -15931525.418 9 -12390494.23948  21960449.926    21960449.4994   21960456.1644
      3556.281        2771.128
 96 10 10 16 23 29.9970000  0  8 17 28  3 26  6 23 22 21            -0.002434813
  -6916073.653 9  -5215447.44048  19813740.856    19813740.8084   19813746.5744
      1187.814         925.569
 -14110827.443 9 -10367228.322 9  20037218.124    20037218.281    20037223.815
      2629.688        2049.108
 -10432612.966 9  -8105768.55646  23321784.910    23321785.7614   23321792.0524
      4543.416        3540.324
  -4250734.827 9  -3300245.93348  21699430.669    21699431.3284   21699436.5664
      -253.966        -197.895
   2512511.970 9   1960977.92548  20958472.109    20958472.0854   20958478.4394
     -1683.944       -1312.164
 -10238836.937 9  -7960027.80548  19921992.814    19921992.9504   19921998.9074
      1642.206        1279.641
  -4898240.901 9  -3805351.53047  22894841.106    22894840.4744   22894847.7644
       108.632          84.648
 -16038089.221 9 -12473530.95648  21940171.273    21940171.0524   21940177.6994
      3547.925        2764.617
 96 10 10 16 23 59.9970000  0  8 17 28  3 26  6 23 22 21            -0.002456338
  -6951558.336 9  -5243097.84248  19806988.342    19806988.2734   19806994.0594
      1178.697         918.465
 -14189437.327 9 -10428482.773 9  20022259.231    20022259.362    20022264.826
      2611.819        2035.184
 -10568823.633 9  -8211906.70746  23295864.748    23295865.7354   23295872.0044
      4538.028        3536.126
  -4242808.885 9  -3294069.86848  21700939.501    21700939.5994   21700944.7324
      -273.485        -213.105
   2563247.160 9   2000511.81948  20968126.521    20968126.6944   20968133.0674
     -1697.549       -1322.765
 -10287892.773 9  -7998253.12648  19912657.772    19912657.9554   19912663.8994
      1628.917        1269.286
  -4901249.735 9  -3807696.10347  22894268.263    22894267.8674   22894275.1884
        92.945          72.425
 -16144370.515 9 -12556347.52548  21919946.452    21919946.3474   21919953.0144
      3538.422        2757.212
 96 10 10 16 24 29.9970000  0  8 17 28  3 26  6 23 22 21            -0.002477859
  -6986796.196 9  -5270555.91848  19800282.793    19800282.7114   19800288.5084
      1170.758         912.279
 -14267533.608 9 -10489337.015 9  20007398.116    20007398.163    20007403.609
      2594.671        2021.822
 -10704891.292 9  -8317933.44746  23269971.125    23269972.8334   23269979.1544
      4533.195        3532.360
  -4234314.849 9  -3287451.14048  21702556.375    21702556.0074   21702561.0824
      -292.762        -228.126
   2614362.400 9   2040341.85548  20977853.547    20977853.6744   20977859.9914
     -1710.056       -1332.511
 -10336562.755 9  -8036177.78048  19903396.279    19903396.3354   19903402.2954
      1615.742        1259.020
  -4903813.562 9  -3809693.90247  22893780.229    22893780.0124   22893787.3234
        78.020          60.795
 -16250403.048 9 -12638970.25948  21899768.979    21899769.0214   21899775.6854
      3530.588        2751.108
 96 10 10 16 24 59.9970000  0  8 17 28  3 26  6 23 22 21            -0.002499347
  -7021768.740 9  -5297807.25548  19793627.827    19793627.6504   19793633.4914
      1161.444         905.021
 -14345079.006 9 -10549761.997 9  19992641.618    19992641.786    19992647.216
      2575.807        2007.122
 -10840778.389 9  -8423819.48546  23244113.691    23244114.2894   23244120.6354
      4526.387        3527.055
  -4225201.502 9  -3280349.82848  21704290.155    21704290.1544   21704295.2394
      -313.885        -244.586
   2665888.995 9   2080492.42348  20987659.038    20987658.8554   20987665.1924
     -1724.347       -1343.647
 -10384800.272 9  -8073765.44748  19894217.057    19894217.0204   19894222.9934
      1600.828        1247.398
  -4905899.391 9  -3811319.24847  22893383.417    22893383.0854   22893390.4574
        61.890          48.226
 -16356169.378 9 -12721385.55948  21879642.863    21879642.3594   21879649.0124
      3521.202        2743.794
 96 10 10 16 25 29.9970000  0  8 17 28  3 26  6 23 22 21            -0.002520820
  -7056487.544 9  -5324860.87148  19787021.006    19787020.8974   19787026.7274
      1152.919         898.378
 -14422085.398 9 -10609766.977 9  19977987.909    19977987.968    19977993.381
      2557.733        1993.039
 -10976467.788 9  -8529551.46646  23218292.775    23218293.4194   23218299.7084
      4519.352        3521.573
  -4215497.290 9  -3272788.10348  21706136.032    21706136.6624   21706141.8474
      -333.047        -259.517
   2717815.637 9   2120954.71448  20997540.487    20997540.2244   20997546.5534
     -1737.728       -1354.074
 -10432610.845 9  -8111020.43648  19885118.893    19885118.9614   19885124.9294
      1586.286        1236.067
  -4907535.958 9  -3812594.50947  22893071.250    22893071.7074   22893079.0564
        46.994          36.619
 -16461683.947 9 -12803604.68348  21859563.498    21859563.6124   21859570.2854
      3512.913        2737.335
 96 10 10 16 25 59.9970000  0  8 17 28  3 26  6 23 22 21            -0.002542285
  -7090963.357 9  -5351725.14048  19780460.501    19780460.3684   19780466.2104
      1144.570         891.873
 -14498560.019 9 -10669357.586 9  19963435.307    19963435.329    19963440.754
      2539.757        1979.031
 -11111948.805 9  -8635121.08746  23192512.429    23192512.0904   23192518.4564
      4511.913        3515.776
  -4205233.384 9  -3264790.25548  21708088.830    21708089.8324   21708095.0004
      -352.121        -274.380
   2770138.617 9   2161725.83948  21007497.003    21007496.9484   21007503.3694
     -1751.261       -1364.619
 -10479987.834 9  -8147937.56548  19876103.476    19876103.4224   19876109.3414
      1571.371        1224.445
  -4908744.236 9  -3813536.04747  22892841.398    22892841.9374   22892849.1634
        32.674          25.460
 -16566960.013 9 -12885637.96348  21839530.288    21839530.2184   21839536.9344
      3504.500        2730.779
 96 10 10 16 26 29.9970000  0  8 17 28  3 26  6 23 22 21            -0.002563719
  -7125164.611 9  -5378375.46948  19773952.199    19773952.1114   19773957.9124
      1135.648         884.921
 -14574472.923 9 -10728510.498 9  19948989.491    19948989.597    19948995.018
      2521.282        1964.635
 -11247183.679 9  -8740498.89846  23166777.985    23166777.7164   23166784.1324
      4503.909        3509.539
  -4194367.940 9  -3256323.67448  21710156.409    21710157.4504   21710162.5304
      -372.039        -289.901
   2822886.161 9   2202827.79448  21017534.611    21017534.5404   21017540.9384
     -1765.060       -1375.371
 -10526895.051 9  -8184488.63948  19867177.199    19867177.2534   19867183.1754
      1556.090        1212.538
  -4909494.537 9  -3814120.71547  22892699.465    22892699.2514   22892706.3934
        17.368          13.534
 -16671948.692 9 -12967447.30948  21819551.896    21819551.5354   21819558.2124
      3494.840        2723.252
 96 10 10 16 26 59.9970000  0  8 17 28  3 26  6 23 22 21            -0.002585130
  -7159099.797 9  -5404818.47448  19767494.669    19767494.4414   19767500.2484
      1126.870         878.081
 -14649843.580 9 -10787240.880 9  19934646.935    19934647.033    19934652.434
      2503.682        1950.921
 -11382182.433 9  -8845692.73346  23141088.882    23141088.3494   23141094.6644
      4496.297        3503.608
  -4182927.911 9  -3247409.33748  21712333.602    21712334.4764   21712339.5094
      -390.285        -304.118
   2876036.928 9   2244243.95348  21027648.766    21027648.7954   21027655.1714
     -1778.094       -1385.528
 -10573370.503 9  -8220703.26748  19858333.479    19858333.2764   19858339.1914
      1542.584        1202.014
  -4909795.114 9  -3814354.94447  22892643.067    22892642.1144   22892649.1254
         2.843           2.215
 -16776647.169 9 -13049030.52248  21799628.113    21799628.1064   21799634.7584
      3485.275        2715.799
 96 10 10 16 27 29.9970000  0  8 17 28  3 26  6 23 22 21            -0.002606534
  -7192779.857 9  -5431062.67848  19761085.474    19761085.3644   19761091.1604
      1119.066         871.999
 -14724694.608 9 -10845566.352 9  19920403.315    19920403.386    19920408.762
      2486.974        1937.902
 -11516978.165 9  -8950728.35946  23115438.306    23115437.5454   23115443.7974
      4490.875        3499.383
  -4170959.076 9  -3238082.97548  21714611.137    21714612.0384   21714617.1184
      -407.157        -317.265
   2929570.005 9   2285958.01248  21037835.565    21037835.8244   21037842.2574
     -1790.232       -1394.986
 -10619452.858 9  -8256611.58948  19849564.417    19849564.1084   19849570.0114
      1530.187        1192.354
  -4909664.235 9  -3814252.98846  22892668.611    22892667.0154   22892674.0594
       -10.859          -8.462
 -16881063.803 9 -13130394.11748  21779758.196    21779758.2904   21779764.8974
      3476.398        2708.881
 96 10 10 16 27 59.9970000  0  8 17 28  3 26  6 23 22 21            -0.002627914
  -7226163.174 9  -5457075.65148  19754732.906    19754732.7324   19754738.5144
      1107.601         863.066
 -14798987.570 9 -10903456.968 9  19906265.764    19906265.898    19906271.298
      2467.022        1922.355
 -11651565.186 9  -9055601.34546  23089826.368    23089826.4984   23089832.8184
      4482.799        3493.090
  -4158411.669 9  -3228305.76648  21716999.027    21716999.6524   21717004.8164
      -428.273        -333.719
   2983523.030 9   2327999.30248  21048102.347    21048102.7404   21048109.1874
     -1805.439       -1406.836
 -10665113.509 9  -8292191.30548  19840875.307    19840875.1694   19840881.0684
      1515.128        1180.619
  -4909073.998 9  -3813793.06746  22892780.592    22892779.3104   22892786.3934
       -27.280         -21.257
 -16985152.504 9 -13211502.17648  21759950.413    21759950.8814   21759957.4544
      3463.920        2699.158
 96 10 10 16 28 29.9970000  0  8 17 28  3 26  6 23 22 21            -0.002649267
  -7259241.191 9  -5482850.73148  19748438.434    19748438.2214   19748443.9914
      1097.261         855.009
 -14872722.830 9 -10960913.015 9  19892234.242    19892234.572    19892239.938
      2448.325        1907.786
 -11785955.319 9  -9160320.92046  23064252.397    23064252.8994   23064259.1824
      4476.276        3488.007
  -4145276.834 9  -3218070.81448  21719498.295    21719499.0584   21719504.3494
      -447.514        -348.712
   3037889.110 9   2370362.45648  21058447.930    21058448.3234   21058454.6894
     -1819.242       -1417.591
 -10710371.818 9  -8327457.51448  19832262.878    19832262.8124   19832268.7154
      1501.793        1170.228
  -4908029.374 9  -3812979.10447  22892978.500    22892978.1084   22892985.2664
       -42.649         -33.233
 -17088907.657 9 -13292350.33448  21740206.666    21740206.8984   21740213.4514
      3452.922        2690.589
 96 10 10 16 28 59.9970000  0  8 17 28  3 26  6 23 22 21            -0.002670593
  -7291998.037 9  -5508375.54548  19742204.973    19742204.7524   19742210.5854
      1086.999         847.012
 -14945889.224 9 -11017925.789 9  19878311.076    19878311.478    19878316.858
      2429.797        1893.348
 -11920152.486 9  -9264890.12146  23038715.923    23038716.0064   23038722.2524
      4470.567        3483.559
  -4131568.825 9  -3207389.26648  21722106.922    21722107.5324   21722112.9514
      -466.036        -363.145
   3092673.308 9   2413051.40848  21068873.015    21068873.3944   21068879.7794
     -1832.570       -1427.977
 -10755234.351 9  -8362415.32548  19823725.571    19823725.7454   19823731.6354
      1489.280        1160.478
  -4906526.740 9  -3811808.23347  22893263.763    22893264.0154   22893271.1984
       -57.198         -44.570
 -17192338.135 9 -13372945.49348  21720524.519    21720524.7104   21720531.2754
      3442.864        2682.751
 96 10 10 16 29 29.9970000  0  8 17 28  3 26  6 23 22 21            -0.002691920
  -7324465.083 9  -5533674.54448  19736026.727    19736026.4524   19736032.3144
      1077.821         839.861
 -15018511.268 9 -11074514.391 9  19864491.513    19864491.965    19864497.352
      2412.106        1879.563
 -12054198.320 9  -9369341.41246  23013207.973    23013207.9024   23013214.0784
      4465.971        3479.977
  -4117311.690 9  -3196279.80648  21724819.761    21724820.6524   21724825.9044
      -484.076        -377.202
   3147844.029 9   2456041.54848  21079371.737    21079372.0334   21079378.4304
     -1845.005       -1437.666
 -10799720.873 9  -8397080.14048  19815259.892    19815260.2184   19815266.1104
      1476.877        1150.813
  -4904599.600 9  -3810306.58147  22893630.374    22893630.7924   22893637.9254
       -70.851         -55.209
 -17295486.866 9 -13453321.11248  21700896.163    21700896.1354   21700902.7444
      3434.141        2675.954
 96 10 10 16 29 59.9970000  0  8 17 28  3 26  6 23 22 21            -0.002713244
  -7356636.879 9  -5558743.47848  19729904.570    19729904.3504   19729910.2284
      1068.067         832.260
 -15090590.475 9 -11130680.009 9  19850775.280    19850775.733    19850781.130
      2394.102        1865.534
 -12188079.039 9  -9473664.02946  22987730.954    22987731.2814   22987737.3984
      4460.110        3475.410
  -4102496.741 9  -3184735.69448  21727639.633    21727639.9684   21727645.1234
      -502.528        -391.580
   3203394.950 9   2499327.95948  21089942.501    21089942.9984   21089949.4164
     -1857.513       -1447.413
 -10843823.566 9  -8431445.86448  19806867.473    19806867.7124   19806873.6414
      1464.187        1140.925
  -4902250.253 9  -3808475.93347  22894077.130    22894077.9354   22894085.0024
       -85.060         -66.281
 -17398368.642 9 -13533488.71348  21681318.752    21681318.3554   21681324.9674
      3425.587        2669.289
 96 10 10 16 30 29.9970000  0  8 17 28  3 26  6 23 22 21            -0.002734551
  -7388510.282 9  -5583579.89448  19723839.230    19723839.0704   19723844.9314
      1057.915         824.349
 -15162112.615 9 -11186411.544 9  19837165.288    19837165.531    19837170.933
      2375.080        1850.712
 -12321758.601 9  -9577829.90346  22962292.672    22962292.9324   22962299.0744
      4452.721        3469.653
  -4087127.152 9  -3172759.37948  21730564.265    21730564.7084   21730569.8574
      -520.983        -405.961
   3259337.697 9   2542919.68248  21100588.294    21100588.5774   21100595.0404
     -1870.911       -1457.853
 -10887521.378 9  -8465496.10148  19798551.989    19798552.3104   19798558.2364
      1450.131        1129.972
  -4899447.907 9  -3806292.30947  22894610.744    22894611.2114   22894618.3834
      -100.666         -78.441
 -17500984.481 9 -13613449.08548  21661791.812    21661791.2054   21661797.8274
      3416.615        2662.297
 96 10 10 16 30 59.9970000  0  8 17 28  3 26  6 23 22 21            -0.002755847
  -7420109.259 9  -5608202.47448  19717826.292    19717826.0084   19717831.8344
      1048.328         816.879
 -15233091.809 9 -11241720.007 9  19823658.246    19823658.661    19823664.034
      2356.345        1836.113
 -12455229.356 9  -9681833.07346  22936893.856    22936894.3064   22936900.4944
      4444.619        3463.339
  -4071222.245 9  -3160365.94848  21733590.896    21733591.1884   21733596.5254
      -539.971        -420.757
   3315654.277 9   2586802.70948  21111305.214    21111305.3144   21111311.7494
     -1884.144       -1468.164
 -10930825.350 9  -8499239.45048  19790311.625    19790311.8274   19790317.7814
      1436.077        1119.021
  -4896213.474 9  -3803771.97847  22895226.848    22895226.6814   22895233.9074
      -115.486         -89.989
 -17603360.194 9 -13693222.35148  21642309.885    21642309.7644   21642316.3564
      3407.787        2655.418
 96 10 10 16 31 29.9970000  0  8 17 28  3 26  6 23 22 21            -0.002777092
  -7451398.611 9  -5632583.78748  19711872.126    19711871.8504   19711877.6754
      1038.368         809.118
 -15303479.735 9 -11296567.739 9  19810263.859    19810264.280    19810269.677
      2336.941        1820.993
 -12588410.144 9  -9785610.30646  22911550.022    22911550.8524   22911557.0814
      4434.758        3455.656
  -4054714.760 9  -3147502.98248  21736732.030    21736732.4704   21736737.8854
      -559.690        -436.122
   3372404.493 9   2631023.63548  21122104.373    21122104.6254   21122111.0324
     -1898.413       -1479.283
 -10973666.328 9  -8532622.02248  19782159.341    19782159.4414   19782165.4094
      1420.888        1107.185
  -4892509.956 9  -3800886.12647  22895932.010    22895931.4414   22895938.7044
      -130.563        -101.737
 -17705438.304 9 -13772763.72348  21622884.955    21622884.9374   21622891.5254
      3398.073        2647.849
 96 10 10 16 31 59.9970000  0  8 17 28  3 26  6 23 22 21            -0.002798308
  -7482435.024 9  -5656768.00348  19705966.176    19705965.8354   19705971.6224
      1030.142         802.708
 -15373325.624 9 -11350993.104 9  19796972.791    19796973.053    19796978.453
      2318.617        1806.715
 -12721326.378 9  -9889181.37846  22886257.047    22886257.7854   22886263.9764
      4425.607        3448.525
  -4037656.880 9  -3134211.12648  21739978.263    21739978.4254   21739983.7674
      -578.224        -450.564
   3429539.671 9   2675544.52748  21132977.045    21132977.1374   21132983.5104
     -1911.417       -1489.416
 -11016104.531 9  -8565690.74848  19774083.544    19774083.7224   19774089.6714
      1407.532        1096.778
  -4888401.596 9  -3797684.83147  22896712.548    22896713.2104   22896720.5434
      -144.100        -112.286
 -17807258.574 9 -13852104.17148  21603509.401    21603509.1754   21603515.7494
      3389.157        2640.901
 96 10 10 16 32 29.9970000  0  8 17 28  3 26  6 23 22 21            -0.002819469
  -7513202.480 9  -5680742.64648  19700111.302    19700111.0134   19700116.7524
      1021.007         795.590
 -15442592.542 9 -11404967.322 9  19783791.862    19783791.995    19783797.420
      2299.339        1791.693
 -12853941.174 9  -9992517.56846  22861021.098    22861022.0114   22861028.1824
      4415.642        3440.760
  -4020019.061 9  -3120467.38548  21743334.267    21743334.8574   21743340.1864
      -597.611        -465.671
   3487089.824 9   2720388.78548  21143928.282    21143928.5964   21143934.9054
     -1925.069       -1500.054
 -11058120.317 9  -8598430.31548  19766088.359    19766088.3644   19766094.3194
      1393.773        1086.057
  -4883857.789 9  -3794144.20346  22897577.460    22897577.8824   22897585.1354
      -158.629        -123.607
 -17908782.433 9 -13931213.65648  21584189.905    21584189.8114   21584196.4114
      3379.187        2633.133
 96 10 10 16 32 59.9970000  0  8 17 28  3 26  6 23 22 21            -0.002840592
  -7543718.704 9  -5704521.52448  19694304.272    19694303.9634   19694309.7114
      1012.726         789.137
 -15511309.709 9 -11458513.172 9  19770715.785    19770715.545    19770720.991
      2281.055        1777.445
 -12986289.789 9 -10095646.33746  22835836.089    22835836.8834   22835843.1074
      4406.963        3433.997
  -4001818.288 9  -3106284.97448  21746797.765    21746798.2514   21746803.6954
      -616.472        -480.368
   3545015.509 9   2765525.65147  21154951.314    21154951.4854   21154957.9174
     -1937.330       -1509.608
 -11099754.083 9  -8630872.20548  19758165.586    19758165.7054   19758171.6634
      1381.021        1076.120
  -4878911.649 9  -3790290.08746  22898518.070    22898519.0134   22898526.3714
      -172.089        -134.095
 -18010029.445 9 -14010107.41448  21564923.390    21564923.1014   21564929.7034
      3369.742        2625.773
 96 10 10 16 33 29.9970000  0  8 17 28  3 26  6 23 22 21            -0.002861685
  -7573985.299 9  -5728105.88348  19688544.684    19688544.4204   19688550.1644
      1003.503         781.950
 -15579478.422 9 -11511631.648 9  19757743.639    19757743.462    19757748.907
      2262.039        1762.628
 -13118388.667 9 -10198580.50546  22810698.318    22810699.2734   22810705.5384
      4398.251        3427.209
  -3983065.230 9  -3091672.21647  21750366.234    21750366.8954   21750372.3574
      -635.032        -494.830
   3603299.254 9   2810941.54247  21166042.402    21166042.4894   21166048.8694
     -1949.611       -1519.177
 -11141009.268 9  -8663019.09548  19750315.129    19750315.0874   19750321.0294
      1367.931        1065.920
  -4873551.396 9  -3786113.27746  22899538.317    22899538.9574   22899546.2994
      -186.737        -145.509
 -18110991.645 9 -14088779.23548  21545711.136    21545710.6374   21545717.2494
      3359.732        2617.973
 96 10 10 16 33 59.9970000  0  8 17 28  3 26  6 23 22 21            -0.002882749
  -7603975.573 9  -5751474.92648  19682837.709    19682837.4684   19682843.2154
       995.043         775.358
 -15647076.820 9 -11564305.725 9  19744879.641    19744879.921    19744885.361
      2243.756        1748.381
 -13250242.398 9 -10301323.66946  22785607.642    22785608.2934   22785614.6534
      4391.237        3421.743
  -3963759.552 9  -3076628.84348  21754040.181    21754040.6974   21754046.0664
      -652.672        -508.576
   3661936.231 9   2856632.66047  21177200.450    21177200.6874   21177207.1694
     -1960.310       -1527.514
 -11181875.141 9  -8694862.62848  19742538.446    19742538.5604   19742544.4984
      1355.584        1056.299
  -4867748.615 9  -3781591.64846  22900643.216    22900643.1634   22900650.5204
      -200.842        -156.500
 -18211662.968 9 -14167224.40548  21526553.746    21526553.5184   21526560.1494
      3350.933        2611.117
 96 10 10 16 34 29.9970000  0  8 17 28  3 26  6 23 22 21            -0.002903788
  -7633649.357 9  -5774597.35948  19677191.098    19677190.7504   19677196.5294
       983.617         766.455
 -15714076.074 9 -11616512.934 9  19732130.232    19732130.394    19732135.825
      2223.380        1732.504
 -13381839.344 9 -10403866.71946  22760565.525    22760566.2434   22760572.6914
      4382.384        3414.845
  -3943881.905 9  -3061139.80247  21757822.862    21757823.2654   21757828.6904
      -672.126        -523.735
   3720938.985 9   2902608.80947  21188428.443    21188428.5934   21188435.0944
     -1972.682       -1537.155
 -11222310.310 9  -8726370.54448  19734843.847    19734843.9894   19734849.9494
      1340.579        1044.607
  -4861472.770 9  -3776701.39546  22901837.403    22901837.4974   22901844.8084
      -216.842        -168.968
 -18312020.960 9 -14245425.41748  21507456.342    21507456.0124   21507462.6104
      3340.006        2602.602
 96 10 10 16 34 59.9970000  0  8 17 28  3 26  6 23 22 21            -0.002924839
  -7663040.356 9  -5797499.43548  19671598.242    19671597.8244   19671603.6164
       975.393         760.046
 -15780518.093 9 -11668285.935 9  19719486.741    19719486.882    19719492.317
      2205.607        1718.655
 -13513226.338 9 -10506246.18146  22735564.138    22735564.0544   22735570.6014
      4376.390        3410.174
  -3923476.922 9  -3045239.80148  21761705.703    21761706.3284   21761711.5044
      -688.503        -536.496
   3780258.249 9   2948831.59247  21199716.387    21199716.6424   21199723.2144
     -1982.506       -1544.810
 -11262346.909 9  -8757567.88548  19727225.012    19727225.2794   19727231.2324
      1328.144        1034.917
  -4854781.575 9  -3771487.49246  22903111.188    22903110.8134   22903118.0934
      -229.627        -178.930
 -18412103.146 9 -14323411.51448  21488411.445    21488411.0004   21488417.5664
      3331.672        2596.108
 96 10 10 16 35 29.9970000  0  8 17 28  3 26  6 23 22 21            -0.002945895
  -7692139.696 9  -5820174.24748  19666060.812    19666060.4004   19666066.2094
       965.748         752.531
 -15846380.205 9 -11719607.061 9  19706953.433    19706953.744    19706959.158
      2186.457        1703.733
 -13644396.953 9 -10608457.02646  22710603.128    22710603.0414   22710609.6724
      4369.516        3404.818
  -3902543.371 9  -3028927.98348  21765689.315    21765689.8034   21765695.0614
      -705.770        -549.951
   3839927.825 9   2995327.34347  21211071.182    21211071.4614   21211078.0224
     -1994.270       -1553.977
 -11301972.249 9  -8788444.76248  19719684.692    19719684.8704   19719690.7844
      1314.775        1024.500
  -4847670.913 9  -3765946.73146  22904465.052    22904463.9764   22904471.2414
      -242.922        -189.290
 -18511895.111 9 -14401171.46748  21469421.603    21469421.1964   21469427.7574
      3322.397        2588.881
 96 10 10 16 35 59.9970000  0  8 17 28  3 26  6 23 22 21            -0.002966969
  -7720971.522 9  -5842640.60548  19660574.232    19660573.8614   19660579.6974
       956.228         745.113
 -15911684.374 9 -11770493.431 9  19694526.348    19694526.777    19694532.209
      2167.075        1688.630
 -13775377.011 9 -10710519.39646  22685678.525    22685678.3674   22685684.9914
      4362.325        3399.214
  -3881105.381 9  -3012223.05647  21769768.786    21769769.3684   21769774.6674
      -723.530        -563.790
   3899940.426 9   3042090.38247  21222491.312    21222491.4474   21222498.0454
     -2006.769       -1563.716
 -11341220.053 9  -8819027.46248  19712216.223    19712216.2494   19712222.1534
      1301.764        1014.362
  -4840191.196 9  -3760118.39646  22905888.970    22905887.4104   22905894.6934
      -255.840        -199.356
 -18611417.488 9 -14478721.35548  21450482.974    21450482.7114   21450489.2484
      3312.206        2580.940
 96 10 10 16 36 29.9970000  0  8 17 28  3 26  6 23 22 21            -0.002988021
  -7749504.757 9  -5864874.29548  19655144.448    19655144.1504   19655150.0044
       946.205         737.303
 -15976394.130 9 -11820916.618 9  19682212.813    19682212.916    19682218.366
      2147.052        1673.028
 -13906115.650 9 -10812393.63946  22660798.346    22660799.5994   22660806.2834
      4353.697        3392.491
  -3859119.286 9  -2995091.06948  21773952.564    21773953.2774   21773958.5934
      -742.044        -578.216
   3960357.606 9   3089168.66747  21233988.125    21233988.5304   21233995.1444
     -2020.778       -1574.632
 -11380071.321 9  -8849301.17148  19704822.951    19704823.0794   19704829.0054
      1288.567        1004.078
  -4832310.834 9  -3753977.87746  22907388.686    22907387.0724   22907394.2844
      -269.417        -209.935
 -18710619.443 9 -14556021.55948  21431605.455    21431605.2214   21431611.7234
      3301.428        2572.541
 96 10 10 16 36 59.9970000  0  8 17 28  3 26  6 23 22 21            -0.003009039
  -7777771.140 9  -5886900.04848  19649765.593    19649765.2204   19649771.1004
       938.358         731.188
 -16040529.743 9 -11870892.423 9  19670008.255    19670008.303    19670013.777
      2128.873        1658.862
 -14036625.002 9 -10914089.22446  22635962.772    22635964.4964   22635971.1944
      4347.033        3387.298
  -3836602.725 9  -2977545.72447  21778237.486    21778238.0504   21778243.3224
      -758.643        -591.150
   4021169.568 9   3136554.59247  21245560.117    21245560.6964   21245567.2874
     -2033.105       -1584.238
 -11418566.940 9  -8879297.75048  19697497.504    19697497.6124   19697503.5434
      1277.990         995.836
  -4824043.672 9  -3747535.95746  22908962.775    22908960.3064   22908967.4264
      -281.574        -219.408
 -18809527.300 9 -14633092.60148  21412783.894    21412783.7184   21412790.1794
      3292.791        2565.811
 96 10 10 16 37 29.9960000  0  8 17 28  3 26  6 23 22 21            -0.003030019
  -7805762.014 9  -5908711.11748  19644438.956    19644438.7314   19644444.5864
       927.126         722.436
 -16104087.718 9 -11920418.121 9  19657913.481    19657913.624    19657919.122
      2107.820        1642.457
 -14166886.863 9 -11015591.94846  22611174.478    22611176.4434   22611183.1974
      4336.521        3379.107
  -3813563.684 9  -2959593.24048  21782621.935    21782622.2904   21782627.5154
      -778.010        -606.241
   4082378.535 9   3184249.85347  21257208.188    21257208.3334   21257215.0174
     -2047.991       -1595.837
 -11456704.151 9  -8909015.05348  19690240.195    19690240.3314   19690246.2784
      1263.916         984.870
  -4815382.911 9  -3740787.32546  22910610.401    22910608.4194   22910615.5184
      -296.385        -230.949
 -18908141.142 9 -14709934.53348  21394018.589    21394018.1454   21394024.5554
      3280.998        2556.622
 96 10 10 16 37 59.9960000  0  8 17 28  3 26  6 23 22 21            -0.003050944
  -7833439.819 9  -5930278.23648  19639171.935    19639171.8064   19639177.6674
       917.267         714.754
 -16167041.533 9 -11969473.039 9  19645933.945    19645933.926    19645939.417
      2088.342        1627.279
 -14296848.560 9 -11116860.78046  22586443.219    22586445.5164   22586452.3224
      4326.748        3371.492
  -3789964.101 9  -2941203.99047  21787112.943    21787113.1084   21787118.4174
      -796.068        -620.313
   4144004.607 9   3232270.14647  21268935.291    21268935.4124   21268942.0814
     -2061.053       -1606.015
 -11494446.865 9  -8938424.95148  19683057.961    19683058.1454   19683064.0604
      1251.438         975.146
  -4806297.460 9  -3733707.76746  22912338.605    22912337.3404   22912344.3734
      -310.138        -241.666
 -19006422.672 9 -14786517.52248  21375315.870    21375315.7914   21375322.2134
      3270.494        2548.437
 96 10 10 16 38 29.9960000  0  8 17 28  3 26  6 23 22 21            -0.003071825
  -7860823.935 9  -5951616.51248  19633960.981    19633960.7934   19633966.6654
       907.842         707.409
 -16229417.751 9 -12018077.886 9  19634063.954    19634064.138    19634069.611
      2069.502        1612.599
 -14426517.268 9 -11217901.30846  22561768.751    22561770.3614   22561777.1224
      4317.342        3364.163
  -3765829.158 9  -2922397.54348  21791705.676    21791705.8974   21791711.2194
      -813.365        -633.791
   4206003.499 9   3280580.94447  21280733.093    21280733.4244   21280740.0854
     -2072.524       -1614.954
 -11531811.519 9  -8967540.26048  19675947.486    19675947.8844   19675953.7764
      1238.937         965.405
  -4796805.759 9  -3726311.66146  22914145.021    22914143.5294   22914150.6824
      -323.035        -251.716
 -19104407.887 9 -14862869.61748  21356669.624    21356669.7674   21356676.2404
      3261.361        2541.320
 96 10 10 16 38 59.9960000  0  8 17 28  3 26  6 23 22 21            -0.003092697
  -7887920.772 9  -5972730.93148  19628804.647    19628804.4174   19628810.2864
       897.645         699.464
 -16291226.367 9 -12066240.442 9  19622302.038    19622302.369    19622307.799
      2050.110        1597.488
 -14555907.072 9 -11318724.50946  22537147.421    22537148.3154   22537155.0244
      4307.649        3356.610
  -3741185.153 9  -2903194.45648  21796395.070    21796395.4154   21796400.8804
      -830.519        -647.158
   4268331.509 9   3329148.19147  21292593.938    21292594.0864   21292600.7394
     -2083.692       -1623.656
 -11568795.456 9  -8996358.90148  19668909.710    19668910.0584   19668915.9404
      1225.684         955.078
  -4786937.316 9  -3718621.98446  22916022.823    22916021.4464   22916028.5984
      -335.726        -261.605
 -19202114.019 9 -14939004.24848  21338076.876    21338076.8774   21338083.3834
      3251.397        2533.556
 96 10 10 16 39 29.9960000  0  8 17 28  3 26  6 23 22 21            -0.003113557
  -7914704.832 9  -5993601.63248  19623707.822    19623707.6234   19623713.4414
       888.677         692.476
 -16352441.609 9 -12113940.627 9  19610653.298    19610653.473    19610658.915
      2031.555        1583.030
 -14684990.674 9 -11419309.10646  22512583.715    22512584.5544   22512591.1914
      4298.755        3349.679
  -3716014.752 9  -2883581.16948  21801185.048    21801185.2694   21801190.5914
      -846.841        -659.876
   4331007.985 9   3377986.98247  21304520.869    21304521.0574   21304527.6864
     -2094.005       -1631.692
 -11605367.003 9  -9024856.21048  19661950.395    19661950.7284   19661956.5994
      1213.218         945.365
  -4776688.849 9  -3710636.18946  22917972.563    22917971.6334   22917978.8424
      -346.763        -270.205
 -19299507.107 9 -15014894.94248  21319543.310    21319543.5584   21319550.0654
      3242.146        2526.348
 96 10 10 16 39 59.9960000  0  8 17 28  3 26  6 23 22 21            -0.003134413
  -7941195.951 9  -6014244.06248  19618666.713    19618666.5394   19618672.3354
       877.379         683.672
 -16413073.349 9 -12161186.137 9  19599115.280    19599115.614    19599121.086
      2010.439        1566.576
 -14813790.015 9 -11519672.20046  22488073.832    22488074.8314   22488081.4674
      4287.783        3341.130
  -3690328.176 9  -2863565.67547  21806072.857    21806073.2994   21806078.6434
      -865.704        -674.575
   4394018.447 9   3427086.01647  21316511.675    21316511.5804   21316518.1034
     -2106.826       -1641.683
 -11641549.262 9  -9053050.17248  19655065.305    19655065.4884   19655071.3714
      1198.638         934.004
  -4766080.128 9  -3702369.66946  22919990.182    22919990.3234   22919997.6394
      -360.590        -280.979
 -19396605.064 9 -15090555.67048  21301066.165    21301066.4194   21301072.9214
      3231.126        2517.761
 96 10 10 16 40 29.9960000  0  8 17 28  3 26  6 23 22 21            -0.003155264
  -7967398.493 9  -6034661.62848  19613680.543    19613680.3864   19613686.1624
       869.159         677.267
 -16473112.397 9 -12207969.811 9  19587690.035    19587690.574    19587696.040
      1991.825        1552.071
 -14942308.895 9 -11619816.76146  22463617.760    22463618.5434   22463625.1164
      4279.832        3334.934
  -3664122.966 9  -2843146.04247  21811059.530    21811059.9464   21811065.2754
      -881.489        -686.875
   4457361.322 9   3476444.07847  21328565.376    21328565.3634   21328571.8974
     -2116.378       -1649.126
 -11677325.836 9  -9080928.02148  19648257.429    19648257.4074   19648263.3004
      1186.229         924.334
  -4755105.180 9  -3693817.79446  22922078.936    22922078.8114   22922086.1374
      -371.374        -289.382
 -19493420.148 9 -15165995.98248  21282643.148    21282643.1184   21282649.5744
      3222.851        2511.312
 96 10 10 16 40 59.9960000  0  8 17 28  3 26  6 23 22 21            -0.003176125
  -7993320.283 9  -6054860.43448  19608747.724    19608747.6274   19608753.4384
       858.887         669.263
 -16532564.033 9 -12254295.762 9  19576376.980    19576377.318    19576382.747
      1971.529        1536.256
 -15070566.102 9 -11719757.42446  22439210.997    22439212.0274   22439218.4754
      4270.535        3327.690
  -3637417.126 9  -2822336.32947  21816141.334    21816142.0094   21816147.2974
      -899.158        -700.643
   4521029.238 9   3526055.42247  21340680.766    21340680.9814   21340687.4634
     -2128.374       -1658.473
 -11712705.525 9  -9108496.60748  19641524.787    19641524.8574   19641530.7474
      1172.396         913.555
  -4743770.695 9  -3684985.73446  22924235.947    22924235.6904   22924242.9744
      -384.409        -299.539
 -19589955.364 9 -15241218.21248  21264273.317    21264273.0484   21264279.5604
      3212.721        2503.419
 96 10 10 16 41 29.9960000  0  8 17 28  3 26  6 23 22 21            -0.003196969
  -8018958.401 9  -6074838.19448  19603868.934    19603868.8644   19603874.6684
       851.298         663.349
 -16591424.263 9 -12300160.876 9  19565176.248    19565176.613    19565182.019
      1953.547        1522.244
 -15198556.554 9 -11819490.21846  22414855.723    22414856.3024   22414862.6644
      4263.278        3322.035
  -3610186.130 9  -2801117.38547  21821323.249    21821323.7944   21821328.9214
      -915.092        -713.059
   4585045.396 9   3575938.10147  21352862.954    21352862.9464   21352869.4594
     -2138.144       -1666.086
 -11747686.970 9  -9135754.87548  19634868.036    19634868.1164   19634874.0054
      1160.808         904.526
  -4732057.509 9  -3675858.59846  22926464.529    22926464.6624   22926471.8464
      -395.470        -308.158
 -19686206.742 9 -15316219.26948  21245957.192    21245957.0274   21245963.5244
      3205.096        2497.477
 96 10 10 16 41 59.9960000  0  8 17 28  3 26  6 23 22 21            -0.003217800
  -8044322.035 9  -6094602.07148  19599042.283    19599042.3274   19599048.1174
       840.235         654.729
 -16649701.063 9 -12345571.371 9  19554086.435    19554086.899    19554092.291
      1932.119        1505.547
 -15326289.818 9 -11919022.60846  22390550.012    22390549.5104   22390555.8154
      4252.712        3313.802
  -3582438.486 9  -2779495.85747  21826603.665    21826604.1924   21826609.3584
      -934.322        -728.043
   4649388.448 9   3626075.52747  21365107.235    21365107.1544   21365113.5794
     -2150.818       -1675.962
 -11782274.345 9  -9162706.07948  19628286.203    19628286.3554   19628292.2314
      1145.557         892.642
  -4719958.074 9  -3666430.48846  22928767.927    22928767.1284   22928774.3304
      -410.626        -319.968
 -19782191.642 9 -15391012.67948  21227691.684    21227691.6784   21227698.2194
      3194.446        2489.179
 96 10 10 16 42 29.9960000  0  8 17 28  3 26  6 23 22 21            -0.003238618
  -8069403.338 9  -6114145.95048  19594269.533    19594269.5364   19594275.3034
       830.810         647.384
 -16707385.148 9 -12390520.009 9  19543109.619    19543109.996    19543115.373
      1912.546        1490.296
 -15453754.918 9 -12018346.04146  22366295.095    22366293.7214   22366300.0064
      4244.071        3307.068
  -3554156.866 9  -2757458.25847  21831985.171    21831985.9394   21831991.1424
      -951.976        -741.799
   4714056.613 9   3676466.28047  21377413.176    21377413.1224   21377419.6344
     -2161.401       -1684.209
 -11816456.728 9  -9189341.69448  19621781.440    19621781.6344   19621787.5484
      1132.566         882.519
  -4707455.223 9  -3656688.02446  22931146.528    22931146.3914   22931153.5784
      -423.746        -330.192
 -19877907.723 9 -15465596.61648  21209477.382    21209477.5104   21209484.0554
      3185.643        2482.319
 96 10 10 16 42 59.9960000  0  8 17 28  3 26  6 23 22 21            -0.003259398
  -8094168.415 9  -6133443.42048  19589556.980    19589556.9494   19589562.6654
       821.890         640.434
 -16764453.735 9 -12434989.044 9  19532250.048    19532250.201    19532255.594
      1893.585        1475.521
 -15580927.848 9 -12117441.80547  22342093.688    22342093.4934   22342099.8094
      4235.603        3300.470
  -3525313.680 9  -2734983.07247  21837474.117    21837474.6534   21837479.8104
      -969.309        -755.306
   4779077.825 9   3727132.12647  21389786.486    21389786.2824   21389792.6954
     -2171.782       -1692.298
 -11850233.333 9  -9215661.12448  19615354.165    19615354.1594   19615360.0594
      1120.700         873.273
  -4694534.832 9  -3646620.20146  22933605.342    22933605.1594   22933612.3214
      -435.988        -339.731
 -19973331.620 9 -15539952.88648  21191318.718    21191318.9534   21191325.4834
      3177.475        2475.955
 96 10 10 16 43 29.9960000  0  8 17 28  3 26  6 23 22 21            -0.003280159
  -8118667.623 9  -6152533.71748  19584894.979    19584894.9124   19584900.6444
       811.920         632.665
 -16820940.032 9 -12479004.340 9  19521501.082    19521501.208    19521506.630
      1872.771        1459.302
 -15707826.884 9 -12216324.15047  22317945.323    22317945.4154   22317951.6544
      4224.958        3292.175
  -3495947.391 9  -2712100.28547  21843062.229    21843062.8694   21843068.1694
      -987.643        -769.592
   4844408.627 9   3778039.20847  21402218.278    21402218.3334   21402224.7724
     -2182.932       -1700.986
 -11883640.022 9  -9241692.30748  19608997.046    19608997.0824   19609003.0124
      1107.062         862.646
  -4681247.932 9  -3636266.81046  22936134.353    22936133.5844   22936140.7524
      -449.233        -350.052
 -20068498.332 9 -15614108.74948  21173209.275    21173209.3214   21173215.8134
      3167.514        2468.193
 96 10 10 16 43 59.9960000  0  8 17 28  3 26  6 23 22 21            -0.003300918
  -8142904.781 9  -6171419.82048  19580282.832    19580282.7584   19580288.4814
       805.232         627.454
 -16876845.170 9 -12522566.789 9  19510862.385    19510862.836    19510868.254
      1855.558        1445.889
 -15834454.168 9 -12314994.73647  22293848.259    22293849.0384   22293855.2584
      4218.055        3286.796
  -3466083.497 9  -2688829.70847  21848745.316    21848745.9074   21848751.0264
     -1002.029        -780.802
   4910027.452 9   3829170.72947  21414705.287    21414705.1634   21414711.5704
     -2190.448       -1706.842
 -11916683.836 9  -9267440.73548  19602708.883    19602709.0454   19602714.9514
      1097.259         855.007
  -4667607.117 9  -3625637.63346  22938730.390    22938729.3754   22938736.5934
      -458.689        -357.420
 -20163404.751 9 -15688061.79248  21155149.236    21155149.2504   21155155.6994
      3160.830        2462.984
 96 10 10 16 44 29.9960000  0  8 17 28  3 26  6 23 22 21            -0.003321668
  -8166867.243 9  -6190091.87248  19575722.959    19575722.8614   19575728.5894
       793.222         618.095
 -16932158.315 9 -12565667.940 9  19500336.848    19500337.116    19500342.495
      1833.034        1428.338
 -15960791.308 9 -12413439.24447  22269806.677    22269807.8614   22269814.0834
      4205.452        3276.976
  -3435717.510 9  -2665167.95947  21854523.491    21854524.2664   21854529.5594
     -1021.029        -795.607
   4975953.322 9   3880541.50447  21427250.445    21427250.3984   21427256.8924
     -2203.600       -1717.091
 -11949366.768 9  -9292907.95148  19596489.661    19596489.7064   19596495.6034
      1082.615         843.596
  -4653620.237 9  -3614738.78946  22941391.638    22941390.9774   22941398.3224
      -472.700        -368.338
 -20258026.218 9 -15761792.78348  21137143.603    21137143.3674   21137149.7844
      3148.191        2453.136
 96 10 10 16 44 59.9960000  0  8 17 28  3 26  6 23 22 21            -0.003342382
  -8190513.555 9  -6208517.57348  19571223.014    19571223.0824   19571228.8634
       784.013         610.919
 -16986838.855 9 -12608276.154 9  19489931.594    19489931.763    19489937.150
      1813.123        1412.823
 -16086787.071 9 -12511617.73947  22245830.325    22245831.6314   22245837.8824
      4195.093        3268.904
  -3404837.089 9  -2641105.28547  21860399.947    21860400.7604   21860405.6884
     -1036.917        -807.987
   5042235.575 9   3932189.97847  21439863.206    21439863.4854   21439870.0554
     -2214.260       -1725.397
 -11981651.417 9  -9318064.81748  19590346.225    19590346.1484   19590352.0654
      1070.454         834.120
  -4639256.951 9  -3603546.65546  22944125.219    22944124.2134   22944131.5884
      -484.225        -377.318
 -20352299.635 9 -15835252.56948  21119203.691    21119203.7154   21119210.1334
      3137.551        2444.845
 96 10 10 16 45 29.9960000  0  8 17 28  3 26  6 23 22 21            -0.003363081
  -8213873.327 9  -6226720.00248  19566777.876    19566777.8914   19566783.6574
       773.281         602.557
 -17040912.800 9 -12650411.698 9  19479641.973    19479641.853    19479647.214
      1791.902        1396.287
 -16212468.514 9 -12609551.30647  22221914.298    22221915.1704   22221921.5014
      4183.857        3260.148
  -3373471.459 9  -2616664.56247  21866368.585    21866369.3214   21866374.3394
     -1054.016        -821.311
   5108840.766 9   3984090.09847  21452537.626    21452538.0414   21452544.6684
     -2226.087       -1734.613
 -12013563.222 9  -9342931.15948  19584273.833    19584273.5574   19584279.4414
      1057.232         823.817
  -4624533.934 9  -3592074.20046  22946926.335    22946925.9544   22946933.3244
      -497.317        -387.520
 -20446243.427 9 -15908455.50648  21101326.989    21101326.7894   21101333.2264
      3125.596        2435.529
 96 10 10 16 45 59.9960000  0  8 17 28  3 26  6 23 22 21            -0.003383751
  -8236922.297 9  -6244680.24148  19562391.829    19562391.8084   19562397.6224
       763.277         594.761
 -17094376.867 9 -12692072.005 9  19469468.058    19469467.959    19469473.342
      1772.228        1380.957
 -16337843.646 9 -12707246.19347  22198056.204    22198056.9814   22198063.3994
      4174.178        3252.606
  -3341613.173 9  -2591839.96147  21872430.985    21872431.8004   21872436.9274
     -1069.991        -833.759
   5175785.520 9   4036254.80947  21465276.673    21465277.1734   21465283.8114
     -2237.059       -1743.163
 -12045110.500 9  -9367513.45248  19578270.464    19578270.2734   19578276.1874
      1045.753         814.872
  -4609443.699 9  -3580315.60746  22949798.151    22949797.4864   22949804.9694
      -508.837        -396.496
 -20539856.878 9 -15981401.03048  21083512.571    21083512.7064   21083519.1794
      3115.350        2427.545
 96 10 10 16 46 29.9960000  0  8 17 28  3 26  6 23 22 21            -0.003404395
  -8259671.581 9  -6262406.95848  19558062.569    19558062.7584   19558068.5754
       751.644         585.697
 -17147246.056 9 -12733268.782 9  19459407.307    19459407.297    19459412.697
      1750.835        1364.287
 -16462916.192 9 -12804705.29647  22174255.488    22174256.4554   22174262.8554
      4162.459        3243.475
  -3309275.217 9  -2566641.55547  21878584.950    21878585.5644   21878590.4784
     -1087.532        -847.428
   5243065.744 9   4088680.92847  21478080.154    21478080.2424   21478086.8574
     -2249.853       -1753.132
 -12076312.503 9  -9391826.69448  19572332.826    19572332.7124   19572338.6324
      1032.617         804.637
  -4594003.974 9  -3568284.68046  22952736.251    22952735.4934   22952743.0614
      -522.051        -406.793
 -20633173.315 9 -16054115.12248  21065754.835    21065755.1194   21065761.6214
      3104.202        2418.859
 96 10 10 16 46 59.9960000  0  8 17 28  3 26  6 23 22 21            -0.003425001
  -8282089.030 9  -6279875.10948  19553796.765    19553796.8504   19553802.6894
       742.414         578.504
 -17199496.641 9 -12773983.527 9  19449464.178    19449464.356    19449469.734
      1732.036        1349.638
 -16587668.261 9 -12901914.68347  22150516.636    22150516.8404   22150523.2844
      4153.835        3236.755
  -3276426.316 9  -2541045.05047  21884836.000    21884836.5204   21884841.5404
     -1103.017        -859.494
   5310700.181 9   4141383.05247  21490950.556    21490950.6764   21490957.3064
     -2259.478       -1760.632
 -12107135.257 9  -9415844.42648  19566467.422    19566467.3714   19566473.2944
      1021.806         796.212
  -4578192.050 9  -3555963.71746  22955746.096    22955744.5004   22955751.9764
      -532.596        -415.010
 -20726188.723 9 -16126594.64148  21048054.882    21048054.8414   21048061.3804
      3096.413        2412.789
 96 10 10 16 47 29.9960000  0  8 17 28  3 26  6 23 22 21            -0.003445597
  -8304216.785 9  -6297117.51548  19549585.996    19549586.1004   19549591.9014
       731.879         570.295
 -17251165.767 9 -12814245.182 9  19439631.950    19439632.030    19439637.433
      1711.772        1333.848
 -16712141.742 9 -12998906.97947  22126829.697    22126830.3184   22126836.8274
      4143.554        3228.743
  -3243094.357 9  -2515072.09847  21891178.903    21891179.4554   21891184.2754
     -1119.779        -872.555
   5378641.434 9   4194324.26447  21503879.270    21503879.4974   21503886.2254
     -2270.756       -1769.420
 -12137617.394 9  -9439596.73148  19560666.846    19560666.8274   19560672.7394
      1009.453         786.587
  -4562046.183 9  -3543382.55646  22958818.154    22958816.9264   22958824.4604
      -544.430        -424.231
 -20818954.323 9 -16198879.50548  21030402.278    21030402.1254   21030408.6834
      3087.129        2405.555
 96 10 10 16 47 59.9960000  0  8 17 28  3 26  6 23 22 21            -0.003466176
  -8326045.975 9  -6314127.28048  19545432.045    19545432.1144   19545437.9384
       723.269         563.586
 -17302245.919 9 -12854047.899 9  19429911.833    19429911.838    19429917.188
      1693.301        1319.455
 -16836320.216 9 -13095669.40747  22103199.412    22103199.9554   22103206.4814
      4134.574        3221.746
  -3209285.348 9  -2488727.46447  21897612.410    21897612.8924   21897617.9804
     -1134.356        -883.914
   5446900.594 9   4247513.18047  21516868.285    21516868.7954   21516875.5644
     -2279.973       -1776.602
 -12167744.178 9  -9463072.14748  19554933.967    19554933.8984   19554939.7724
       998.665         778.181
  -4545566.132 9  -3530540.98346  22961954.873    22961953.0794   22961960.4684
      -554.473        -432.057
 -20911461.082 9 -16270962.67748  21012798.815    21012798.6654   21012805.2124
      3079.647        2399.725
 96 10 10 16 48 29.9960000  0  8 17 28  3 26  6 23 22 21            -0.003486733
  -8347578.213 9  -6330905.64848  19541334.681    19541334.6854   19541340.5124
       713.206         555.745
 -17352719.527 9 -12893377.984 9  19420307.122    19420307.036    19420312.379
      1672.612        1303.334
 -16960173.001 9 -13192178.05447  22079631.276    22079631.5634   22079638.1184
      4123.369        3213.015
  -3174990.954 9  -2462004.57547  21904138.374    21904138.9934   21904144.0374
     -1150.988        -896.874
   5515477.247 9   4300949.49847  21529918.105    21529918.4774   21529925.2844
     -2290.661       -1784.931
 -12197496.166 9  -9486255.50248  19549272.239    19549272.2644   19549278.1434
       985.729         768.101
  -4528732.070 9  -3517423.56246  22965157.560    22965156.5504   22965163.8204
      -566.706        -441.589
 -21003683.733 9 -16342824.46448  20995248.967    20995249.2614   20995255.8254
      3069.399        2391.739
 96 10 10 16 48 59.9960000  0  9  1 17 28  3 26  6 23 22 21         -0.003507262
   -347724.70118   -254513.91055  23618336.525           0.0005          0.0005
      4783.012        3727.022
  -8368810.289 9  -6347450.12548  19537294.442    19537294.3954   19537300.1964
       701.373         546.524
 -17402567.492 9 -12932220.555 9  19410821.158    19410821.284    19410826.642
      1649.707        1285.486
 -17083688.845 9 -13288424.14747  22056127.660    22056127.2614   22056133.8224
      4110.020        3202.613
  -3140194.812 9  -2434890.71447  21910759.878    21910760.4394   21910765.5684
     -1169.514        -911.310
   5584371.889 9   4354633.60847  21543027.982    21543028.7214   21543035.5374
     -2303.021       -1794.562
 -12226854.707 9  -9509132.28548  19543685.459    19543685.5294   19543691.3884
       970.791         756.461
  -4511531.567 9  -3504020.59246  22968430.780    22968429.6564   22968436.8474
      -580.927        -452.670
 -21095586.988 9 -16414437.37048  20977760.174    20977760.6574   20977767.2164
      3056.583        2381.753
 96 10 10 16 49 29.9960000  0  9  1 17 28  3 26  6 23 22 21         -0.003527759
   -491252.348 8   -366353.57856  23591027.444           0.0005   23591036.2005
      4786.169        3729.482
  -8389738.286 9  -6363757.66148  19533311.902    19533311.9334   19533317.7634
       694.459         541.137
 -17451779.451 9 -12970567.537 9  19401456.388    19401456.552    19401461.920
      1631.867        1271.585
 -17206847.040 9 -13384391.54447  22032691.421    22032691.0794   22032697.5594
      4101.355        3195.861
  -3104895.612 9  -2407384.85447  21917477.003    21917477.6424   21917482.8934
     -1182.937        -921.769
   5653581.419 9   4408563.07447  21556198.215    21556198.9204   21556205.7654
     -2310.220       -1800.171
 -12255819.814 9  -9531702.48948  19538173.539    19538173.6664   19538179.4884
       960.934         748.780
  -4493955.292 9  -3490324.82846  22971774.351    22971774.3714   22971781.4424
      -589.978        -459.723
 -21187154.455 9 -16485788.62248  20960335.551    20960335.9614   20960342.5054
      3048.849        2375.726
 96 10 10 16 49 59.9960000  0  9  1 17 28  3 26  6 23 22 21         -0.003548252
   -634795.189 8   -478205.11156  23563711.089    23563711.4515   23563720.1895
      4785.067        3728.624
  -8410381.672 9  -6379843.42248  19529383.628    19529383.6354   19529389.4794
       683.942         532.942
 -17500386.348 9 -13008443.045 9  19392206.970    19392206.945    19392212.339
      1610.598        1255.011
 -17329676.341 9 -13480102.67047  22009318.437    22009317.4844   22009323.8964
      4089.322        3186.485
  -3069122.447 9  -2379509.67847  21924284.113    21924284.9914   21924290.2384
     -1199.971        -935.042
   5723069.288 9   4462709.43547  21569421.187    21569422.0584   21569428.9434
     -2320.292       -1808.020
 -12284424.944 9  -9553992.20348  19532730.181    19532730.2654   19532736.0984
       948.147         738.816
  -4476036.584 9  -3476362.22246  22975184.646    22975184.1254   22975191.2764
      -602.523        -469.498
 -21278430.066 9 -16556912.46048  20942966.551    20942966.7774   20942973.3504
      3038.249        2367.467
 96 10 10 16 50 29.9960000  0  9  1 17 28  3 26  6 23 22 21         -0.003568724
   -778304.318 8   -590030.35346  23536403.509    23536403.5355   23536411.4074
      4781.919        3726.171
  -8430729.356 9  -6395698.76148  19525511.454    19525511.5744   19525517.4534
       672.173         523.771
 -17548371.388 9 -13045833.989 9  19383075.553    19383075.716    19383081.073
      1588.126        1237.501
 -17452164.339 9 -13575547.84247  21986009.132    21986008.8384   21986015.1504
      4076.432        3176.441
  -3032848.231 9  -2351244.07247  21931187.230    21931187.7284   21931193.1154
     -1218.591        -949.551
   5792839.589 9   4517075.87247  21582698.005    21582698.9204   21582705.8464
     -2331.355       -1816.640
 -12312663.161 9  -9575996.00448  19527356.689    19527356.7084   19527362.5574
       934.120         727.886
  -4457767.356 9  -3462126.48246  22978660.210    22978660.6484   22978667.8864
      -615.618        -479.702
 -21369405.865 9 -16627802.67048  20925654.453    20925654.6574   20925661.2174
      3026.552        2358.352
 96 10 10 16 50 59.9960000  0  9  1 17 28  3 26  6 23 22 21         -0.003589184
   -921781.181 8   -701830.44446  23509099.395    23509100.8384   23509109.1674
      4782.022        3726.251
  -8450776.463 9  -6411319.88448  19521696.650    19521696.7094   19521702.6104
       663.261         516.827
 -17595749.764 9 -13082752.208 9  19374059.966    19374059.915    19374065.285
      1569.371        1222.886
 -17574335.935 9 -13670746.46647  21962760.228    21962760.3114   21962766.6014
      4067.253        3169.288
  -2996083.817 9  -2322596.48047  21938183.089    21938183.8264   21938189.0924
     -1233.288        -961.004
   5862874.849 9   4571648.75947  21596025.934    21596026.3384   21596033.0634
     -2338.759       -1822.410
 -12340551.803 9  -9597727.40648  19522049.672    19522049.6694   19522055.5314
       924.126         720.098
  -4439176.192 9  -3447639.88346  22982197.938    22982198.4704   22982205.7564
      -624.876        -486.916
 -21460105.209 9 -16698477.46748  20908394.875    20908395.1524   20908401.6674
      3019.056        2352.511
 96 10 10 16 51 29.9960000  0  9  1 17 28  3 26  6 23 22 21         -0.003609604
  -1065202.476 8   -813587.24346  23481807.573    23481808.6454   23481816.9514
      4779.755        3724.484
  -8470497.284 9  -6426686.76248  19517943.970    19517943.9474   19517949.8664
       651.974         508.032
 -17642508.584 9 -13119187.654 9  19365161.726    19365161.986    19365167.374
      1548.283        1206.454
 -17696176.447 9 -13765687.10047  21939574.467    21939574.8894   21939581.0544
      4055.937        3160.470
  -2958819.408 9  -2293559.31747  21945274.220    21945274.8054   21945280.4174
     -1250.362        -974.308
   5933193.682 9   4626442.62847  21609407.663    21609407.6854   21609414.2534
     -2348.809       -1830.241
 -12368086.696 9  -9619183.16648  19516810.133    19516809.9444   19516815.8344
       911.881         710.557
  -4420247.005 9  -3432889.88746  22985799.890    22985800.6194   22985808.0294
      -636.707        -496.135
 -21550521.041 9 -16768931.34348  20891189.221    20891189.5804   20891196.0934
      3009.051        2344.715
 96 10 10 16 51 59.9960000  0  9  1 17 28  3 26  6 23 22 21         -0.003630015
  -1208592.320 8   -925319.52646  23454522.476    23454522.5294   23454530.7594
      4778.799        3723.739
  -8489931.509 9  -6441830.31048  19514245.670    19514245.7204   19514251.6704
       642.960         501.008
 -17688678.372 9 -13155164.114 9  19356375.990    19356376.158    19356381.554
      1528.832        1191.298
 -17817727.120 9 -13860401.88647  21916443.824    21916444.5244   21916450.6694
      4046.585        3153.183
  -2921100.078 9  -2264167.61347  21952451.951    21952452.6574   21952458.1254
     -1265.075        -985.773
   6003773.037 9   4681439.48047  21622838.158    21622838.4604   21622845.0784
     -2357.296       -1836.854
 -12395300.662 9  -9640388.84948  19511631.292    19511631.2654   19511637.1544
       901.396         702.386
  -4401006.716 9  -3417897.48446  22989462.389    22989461.9204   22989469.3894
      -646.695        -503.918
 -21640672.429 9 -16839179.15448  20874034.254    20874034.3194   20874040.8284
      3000.024        2337.681
 96 10 10 16 52 29.9960000  0  9  1 17 28  3 26  6 23 22 21         -0.003650411
  -1351922.514 8  -1037005.34346  23427247.381    23427247.6654   23427255.8934
      4776.393        3721.865
  -8509065.099 9  -6456739.60348  19510604.746    19510604.7554   19510610.6804
       632.100         492.545
 -17734231.751 9 -13190660.254 9  19347707.280    19347707.646    19347713.025
      1507.654        1174.795
 -17938964.927 9 -13954872.88947  21893373.455    21893373.6974   21893379.8524
      4035.419        3144.482
  -2882913.211 9  -2234411.63847  21959718.930    21959719.3294   21959724.8374
     -1280.995        -998.178
   6074642.838 9   4736662.68147  21636324.413    21636324.6024   21636331.1434
     -2367.775       -1845.019
 -12422156.261 9  -9661315.28448  19506520.839    19506520.8324   19506526.7214
       888.631         692.440
  -4381443.876 9  -3402653.74346  22993185.173    22993184.4834   22993192.2054
      -657.938        -512.679
 -21730510.399 9 -16909182.74548  20856938.376    20856938.6834   20856945.2084
      2988.796        2328.932
 96 10 10 16 52 59.9960000  0  9  1 17 28  3 26  6 23 22 21         -0.003670786
  -1495191.869 8  -1148643.71546  23399984.248    23399984.2644   23399992.5434
      4775.360        3721.060
  -8527872.912 9  -6471395.03748  19507025.774    19507025.7584   19507031.6804
       622.454         485.029
 -17779152.032 9 -13225663.069 9  19339159.103    19339159.605    19339164.963
      1487.480        1159.075
 -18059863.808 9 -14049079.78447  21870366.811    21870367.3534   21870373.5244
      4024.802        3136.209
  -2844256.905 9  -2204289.85347  21967075.062    21967075.5684   21967081.0794
     -1295.589       -1009.550
   6145828.740 9   4792132.18247  21649870.560    21649870.8394   21649877.4234
     -2377.460       -1852.566
 -12448634.046 9  -9681947.31848  19501482.258    19501482.2764   19501488.1604
       877.000         683.377
  -4361538.259 9  -3387142.90746  22996972.464    22996972.4084   22996980.1474
      -668.731        -521.089
 -21820015.221 9 -16978926.73548  20839906.337    20839906.4464   20839913.0164
      2978.659        2321.033
 96 10 10 16 53 29.9960000  0  9  1 17 28  3 26  6 23 22 21         -0.003691150
  -1638429.957 8  -1260257.69446  23372727.603    23372726.7764   23372735.1714
      4773.691        3719.759
  -8546397.947 9  -6485830.12848  19503500.598    19503500.5714   19503506.4814
       612.370         477.171
 -17823463.887 9 -13260191.788 9  19330726.947    19330727.355    19330732.699
      1466.493        1142.722
 -18180436.747 9 -14143032.69647  21847422.979    21847423.0004   21847429.2774
      4013.152        3127.131
  -2805164.400 9  -2173828.17747  21974514.155    21974514.5164   21974519.9334
     -1310.739       -1021.355
   6217307.207 9   4847829.65147  21663472.545    21663472.6504   21663479.3804
     -2387.921       -1860.718
 -12474755.841 9  -9702301.96148  19496511.570    19496511.4814   19496517.3224
       864.298         673.479
  -4341306.219 9  -3371377.70846  23000823.209    23000822.5424   23000830.1724
      -680.113        -529.958
 -21909213.506 9 -17048431.86848  20822932.435    20822932.5814   20822939.1354
      2967.850        2312.610
 96 10 10 16 53 59.9960000  0  9  1 17 28  3 26  6 23 22 21         -0.003711514
  -1781637.468 8  -1371847.88746  23345473.861    23345475.2334   23345483.5274
      4772.808        3719.071
  -8564639.718 9  -6500044.49248  19500029.403    19500029.3084   19500035.2274
       602.969         469.846
 -17867168.177 9 -13294247.076 9  19322410.248    19322410.683    19322416.073
      1446.467        1127.117
 -18300677.738 9 -14236726.95047  21824541.411    21824541.8234   21824548.1764
      4002.044        3118.476
  -2765640.333 9  -2143030.18947  21982035.630    21982035.7564   21982041.2394
     -1324.946       -1032.425
   6289075.093 9   4903752.63947  21677129.272    21677129.5864   21677136.3164
     -2397.114       -1867.881
 -12500515.288 9  -9722374.25548  19491609.576    19491609.6234   19491615.4514
       852.413         664.218
  -4320770.093 9  -3355375.55846  23004730.800    23004730.4524   23004738.0864
      -689.484        -537.260
 -21998115.161 9 -17117705.86548  20806015.108    20806015.1704   20806021.7024
      2958.304        2305.172
 96 10 10 16 54 29.9960000  0  9  1 17 28  3 26  6 23 22 21         -0.003731869
  -1924818.593 8  -1483417.52346  23318228.505    23318228.6984   23318237.0414
      4772.513        3718.841
  -8582588.429 9  -6514030.50748  19496613.775    19496613.8024   19496619.7014
       593.320         462.327
 -17910266.615 9 -13327830.279 9  19314208.948    19314209.335    19314214.717
      1426.571        1111.614
 -18420563.462 9 -14330144.37547  21801727.854    21801728.2494   21801734.7244
      3990.062        3109.139
  -2725680.566 9  -2111892.74947  21989639.235    21989639.8324   21989645.4014
     -1339.341       -1043.642
   6361125.843 9   4959896.06447  21690840.175    21690840.4404   21690847.1734
     -2406.385       -1875.105
 -12525918.349 9  -9742168.84248  19486775.607    19486775.5484   19486781.4184
       841.186         655.470
  -4299952.918 9  -3339154.41446  23008692.373    23008691.8694   23008699.5894
      -698.666        -544.415
 -22086738.565 9 -17186763.03948  20789150.696    20789150.6754   20789157.1964
      2949.788        2298.536
 96 10 10 16 54 59.9960000  0  9  1 17 28  3 26  6 23 22 21         -0.003752194
  -2067972.798 8  -1594966.17846  23290987.897    23290987.0964   23290995.4404
      4772.149        3718.558
  -8600223.125 9  -6527771.82548  19493257.891    19493258.0294   19493263.9174
       583.379         454.581
 -17952743.304 9 -13360928.998 9  19306126.073    19306126.314    19306131.677
      1406.195        1095.736
 -18540061.676 9 -14423259.83947  21778988.009    21778988.4534   21778994.9524
      3977.534        3099.377
  -2685254.325 9  -2080391.77347  21997332.240    21997332.8634   21997338.1344
     -1354.747       -1055.647
   6433465.876 9   5016264.88247  21704605.870    21704606.2444   21704613.1524
     -2415.373       -1882.109
 -12550974.477 9  -9761693.09448  19482007.585    19482007.4844   19482013.3674
       830.193         646.904
  -4278837.450 9  -3322700.82246  23012710.424    23012709.9664   23012717.7414
      -708.121        -551.783
 -22175086.176 9 -17255605.31548  20772338.207    20772338.6454   20772345.1984
      2941.009        2291.695
 96 10 10 16 55 29.9960000  0  9  1 17 28  3 26  6 23 22 21         -0.003772504
  -2211118.450 8  -1706508.17946  23263747.756    23263747.2964   23263755.6724
      4771.368        3717.949
  -8617564.325 9  -6541284.45348  19489957.966    19489958.0784   19489964.0074
       573.080         446.556
 -17994613.979 9 -13393555.496 9  19298158.249    19298158.576    19298163.966
      1385.677        1079.748
 -18659197.935 9 -14516093.26047  21756317.199    21756317.5414   21756324.0874
      3965.374        3089.902
  -2644377.070 9  -2048539.38047  22005110.822    22005111.6004   22005116.8054
     -1369.923       -1067.472
   6506071.536 9   5072840.68947  21718422.033    21718422.6764   21718429.6044
     -2424.530       -1889.244
 -12575707.182 9  -9780965.32748  19477300.923    19477301.0084   19477306.8864
       819.142         638.292
  -4257450.633 9  -3306035.80146  23016780.328    23016779.8204   23016787.5564
      -717.110        -558.787
 -22263172.067 9 -17324243.64948  20755576.111    20755576.4234   20755582.9994
      2931.810        2284.527
 96 10 10 16 55 59.9960000  0  9  1 17 28  3 26  6 23 22 21         -0.003792793
  -2354238.828 8  -1818030.48546  23236512.629    23236512.3184   23236520.7204
      4769.858        3716.772
  -8634590.201 9  -6554551.36548  19486718.155    19486718.1604   19486724.0914
       561.926         437.864
 -18035866.135 9 -13425700.033 9  19290308.111    19290308.544    19290313.924
      1364.356        1063.135
 -18777966.358 9 -14608640.05847  21733716.286    21733716.7014   21733723.1834
      3952.463        3079.841
  -2603036.814 9  -2016326.22847  22012977.777    22012978.4774   22012983.6794
     -1386.121       -1080.094
   6578953.434 9   5129631.74247  21732291.108    21732291.6454   21732298.4994
     -2434.305       -1896.861
 -12600104.245 9  -9799976.02048  19472658.433    19472658.3664   19472664.2574
       807.248         629.024
  -4235786.452 9  -3289154.64646  23020902.884    23020902.4794   23020910.0314
      -727.385        -566.793
 -22350977.400 9 -17392663.36548  20738867.424    20738867.6404   20738874.2024
      2921.709        2276.656
 96 10 10 16 56 29.9960000  0  9  1 17 28  3 26  6 23 22 21         -0.003813048
  -2497322.524 8  -1929524.21146  23209284.657    23209284.3064   23209292.7534
      4768.843        3715.982
  -8651283.525 9  -6567559.15548  19483541.537    19483541.5454   19483547.4784
       550.916         429.285
 -18076477.753 9 -13457345.451 9  19282580.207    19282580.419    19282585.802
      1342.987        1046.483
 -18896356.641 9 -14700892.20247  21711187.084    21711187.7854   21711194.2384
      3940.273        3070.343
  -2561215.686 9  -1983738.31947  22020936.273    22020936.8524   22020941.9024
     -1402.105       -1092.549
   6652127.181 9   5186650.22247  21746215.836    21746216.1934   21746223.0304
     -2444.035       -1904.443
 -12624148.446 9  -9818711.75348  19468083.021    19468082.9184   19468088.8004
       795.661         619.995
  -4213803.829 9  -3272025.36346  23025086.627    23025085.6494   23025093.1144
      -738.309        -575.306
 -22438481.392 9 -17460848.27748  20722216.022    20722216.1854   20722222.7454
      2911.647        2268.816
 96 10 10 16 56 59.9960000  0  9  1 17 28  3 26  6 23 22 21         -0.003833290
  -2640386.765 9  -2041002.79946  23182059.723    23182060.0174   23182068.3864
      4768.701        3715.871
  -8667675.185 9  -6580331.87848  19480422.334    19480422.3234   19480428.2434
       542.062         422.386
 -18116470.269 9 -13488508.450 9  19274970.071    19274970.121    19274975.467
      1323.246        1031.101
 -19014416.703 9 -14792887.03247  21688721.529    21688721.7784   21688728.0714
      3930.431        3062.674
  -2518941.899 9  -1950797.76247  22028980.626    22028981.0464   22028986.2884
     -1415.787       -1103.211
   6725564.152 9   5243873.79247  21760190.658    21760190.9114   21760197.6614
     -2451.758       -1910.461
 -12647867.382 9  -9837194.03448  19463569.400    19463569.3374   19463575.2494
       785.502         612.079
  -4191509.822 9  -3254653.43946  23029328.886    23029328.1204   23029335.5094
      -747.887        -582.769
 -22525696.580 9 -17528808.14648  20705619.397    20705619.6824   20705626.1964
      2902.655        2261.809
 96 10 10 16 57 29.9960000  0  9  1 17 28  3 26  6 23 22 21         -0.003853537
  -2783422.705 8  -2152459.33546  23154840.682    23154841.2064   23154849.4364
      4767.039        3714.576
  -8683792.779 9  -6592891.04148  19477355.167    19477355.2344   19477361.1744
       532.560         414.982
 -18155855.881 9 -13519198.534 9  19267475.121    19267475.293    19267480.619
      1302.562        1014.983
 -19132165.245 9 -14884639.11247  21666314.515    21666314.9914   21666321.2424
      3919.420        3054.093
  -2476259.911 9  -1917539.06947  22037102.451    22037103.3274   22037108.4464
     -1429.596       -1113.971
   6799254.652 9   5301294.94947  21774213.579    21774213.8344   21774220.4804
     -2460.666       -1917.402
 -12671257.283 9  -9855419.92148  19459118.412    19459118.3914   19459124.2854
       773.902         603.041
  -4168908.814 9  -3237042.28846  23033629.577    23033628.9684   23033636.4404
      -758.613        -591.127
 -22612625.247 9 -17596544.75048  20689077.260    20689077.6604   20689084.1584
      2892.789        2254.121
 96 10 10 16 57 59.9960000  0  9  1 17 28  3 26  6 23 22 21         -0.003873780
  -2926409.212 8  -2263877.35446  23127631.319    23127631.7374   23127639.9364
      4765.437        3713.328
  -8699633.010 9  -6605234.07548  19474340.955    19474340.9234   19474346.8714
       523.530         407.945
 -18194622.932 9 -13549406.627 9  19260098.128    19260098.172    19260103.501
      1281.911         998.892
 -19249576.343 9 -14976128.25647  21643971.955    21643972.3984   21643978.6134
      3908.042        3045.227
  -2433163.011 9  -1883957.10747  22045303.520    22045304.2734   22045309.6364
     -1443.462       -1124.775
   6873200.082 9   5358914.71147  21788284.910    21788285.1564   21788291.8414
     -2469.060       -1923.943
 -12694300.470 9  -9873375.64748  19454733.411    19454733.4324   19454739.3104
       762.459         594.124
  -4145990.443 9  -3219183.84046  23037990.613    23037990.2844   23037997.8114
      -769.137        -599.327
 -22699264.905 9 -17664056.15248  20672590.504    20672590.6394   20672597.1624
      2883.201        2246.650
 96 10 10 16 58 29.9960000  0  9  1 17 28  3 26  6 23 22 21         -0.003894029
  -3069363.780 8  -2375270.48546  23100427.986    23100428.3144   23100436.4794
      4762.435        3710.988
  -8715229.150 9  -6617386.91148  19471373.040    19471373.0734   19471379.0224
       513.881         400.427
 -18232791.170 9 -13579148.108 9  19252834.963    19252834.993    19252840.325
      1260.327         982.073
 -19366660.832 9 -15067362.90647  21621691.960    21621691.9154   21621698.1034
      3895.243        3035.254
  -2389673.215 9  -1850068.96947  22053579.345    22053580.0724   22053585.5574
     -1458.253       -1136.301
   6947372.980 9   5416711.76047  21802399.438    21802399.8384   21802406.3624
     -2478.170       -1931.042
 -12717028.040 9  -9891085.43548  19450408.371    19450408.5074   19450414.4164
       750.381         584.712
  -4122783.882 9  -3201100.82246  23042407.437    23042406.3114   23042413.9794
      -780.133        -607.896
 -22785638.122 9 -17731359.94248  20656154.111    20656154.3414   20656160.8644
      2872.611        2238.398
 96 10 10 16 58 59.9960000  0  9  1 17 28  3 26  6 23 22 21         -0.003914284
  -3212260.078 8  -2486618.21646  23073236.433    23073236.0144   23073244.1824
      4761.338        3710.134
  -8730585.884 9  -6629353.20548  19468450.727    19468450.7984   19468456.7514
       507.087         395.133
 -18270359.022 9 -13608421.761 9  19245686.087    19245686.064    19245691.416
      1241.478         967.385
 -19483404.437 9 -15158331.92147  21599475.818    21599476.3144   21599482.5144
      3884.927        3027.216
  -2345787.224 9  -1815872.13747  22061930.483    22061931.3304   22061936.8194
     -1470.251       -1145.650
   7021764.641 9   5474679.24247  21816555.822    21816556.1404   21816562.6264
     -2484.050       -1935.623
 -12739432.898 9  -9908543.76848  19446144.873    19446145.0024   19446150.9044
       740.476         576.994
  -4099302.604 9  -3182803.74646  23046875.334    23046874.5834   23046882.3564
      -787.902        -613.950
 -22871738.623 9 -17798451.22248  20639769.671    20639769.9584   20639776.4434
      2864.735        2232.261
 96 10 10 16 59 29.9960000  0  9  1 17 28  3 26  6 23 22 21         -0.003934527
  -3355065.796 8  -2597895.35446  23046060.186    23046060.7574   23046069.0284
      4758.796        3708.153
  -8745665.889 9  -6641103.85748  19465581.150    19465581.2234   19465587.1444
       497.753         387.859
 -18307301.083 9 -13637207.782 9  19238655.999    19238656.224    19238661.582
      1221.064         951.478
 -19599774.914 9 -15249010.19347  21577331.151    21577331.7274   21577337.9354
      3872.879        3017.828
  -2301469.799 9  -1781339.09647  22070364.025    22070364.7954   22070370.2694
     -1484.618       -1156.845
   7096394.276 9   5532832.16947  21830757.425    21830757.6234   21830764.1664
     -2491.430       -1941.374
 -12761476.387 9  -9925720.50848  19441949.983    19441950.2884   19441956.1604
       728.893         567.969
  -4075533.958 9  -3164282.74646  23051398.314    23051397.6494   23051405.4064
      -796.887        -620.951
 -22957553.054 9 -17865319.59148  20623439.588    20623440.0164   20623446.4634
      2855.976        2225.436
 96 10 10 16 59 59.9960000  0  9  1 17 28  3 26  6 23 22 21         -0.003954750
  -3497779.936 9  -2709101.13746  23018902.935    23018903.1404   23018911.4054
      4756.767        3706.572
  -8760437.405 9  -6652614.12848  19462770.362    19462770.3284   19462776.2174
       488.159         380.384
 -18343615.339 9 -13665504.605 9  19231745.781    19231745.809    19231751.211
      1201.079         935.906
 -19715768.605 9 -15339394.86447  21555257.893    21555258.8034   21555265.0784
      3861.306        3008.810
  -2256698.362 9  -1746452.30247  22078883.464    22078884.4454   22078890.0284
     -1498.869       -1167.950
   7171259.444 9   5591168.62547  21845003.709    21845003.9464   21845010.5454
     -2498.398       -1946.804
 -12783167.082 9  -9942622.34848  19437822.482    19437822.6814   19437828.5564
       718.405         559.796
  -4051487.482 9  -3145545.27846  23055974.622    23055973.4684   23055981.2914
      -805.007        -627.278
 -23043083.621 9 -17931966.76448  20607163.751    20607164.0694   20607170.5274
      2847.208        2218.604
 96 10 10 17  0 29.9960000  0  9  1 17 28  3 26  6 23 22 21         -0.003974967
  -3640433.164 9  -2820259.41846  22991757.500    22991757.2044   22991765.4304
      4753.307        3703.876
  -8774909.219 9  -6663890.86848  19460016.504    19460016.4594   19460022.3344
       476.479         371.282
 -18379328.203 9 -13693332.811 9  19224949.654    19224949.873    19224955.298
      1179.732         919.272
 -19831414.278 9 -15429508.35547  21533251.609    21533252.1484   21533258.4704
      3848.350        2998.714
  -2211500.371 9  -1711233.10247  22087484.603    22087485.3794   22087490.8674
     -1514.217       -1179.909
   7246334.417 9   5649668.58246  21859289.865    21859290.2604   21859296.8204
     -2506.623       -1953.213
 -12804542.089 9  -9959278.18848  19433755.060    19433755.1164   19433761.0234
       706.546         550.555
  -4027198.360 9  -3126618.71046  23060596.302    23060595.5484   23060603.3084
      -814.199        -634.441
 -23128347.639 9 -17998406.24448  20590938.511    20590938.8824   20590945.3164
      2836.991        2210.642
 96 10 10 17  0 59.9960000  0  9  1 17 28  3 26  6 23 22 21         -0.003995172
  -3782998.606 9  -2931349.31346  22964627.903    22964627.9854   22964636.0424
      4750.340        3701.564
  -8789036.111 9  -6674898.83948  19457328.335    19457328.2204   19457334.0754
       464.422         361.887
 -18414416.023 9 -13720673.969 9  19218272.618    19218272.875    19218278.293
      1158.584         902.793
 -19946694.157 9 -15519336.80847  21511314.242    21511315.0934   21511321.4394
      3835.937        2989.042
  -2165861.067 9  -1675670.02447  22096169.711    22096170.3444   22096175.7264
     -1529.261       -1191.632
   7321642.404 9   5708350.09946  21873620.652    21873620.8684   21873627.4534
     -2514.806       -1959.589
 -12825579.615 9  -9975671.06248  19429751.597    19429751.7794   19429757.7084
       695.222         541.731
  -4002654.042 9  -3107493.31046  23065266.227    23065266.1324   23065273.9584
      -823.034        -641.325
 -23213322.087 9 -18064620.07848  20574768.560    20574768.7774   20574775.2304
      2827.109        2202.942
 96 10 10 17  1 29.9960000  0  9  1 17 28  3 26  6 23 22 21         -0.004015357
  -3925495.613 9  -3042385.87146  22937512.017    22937511.5494   22937519.6454
      4749.333        3700.779
  -8802803.249 9  -6685626.48248  19454708.413    19454708.4184   19454714.2624
       453.334         353.247
 -18448880.875 9 -13747529.700 9  19211714.222    19211714.461    19211719.867
      1138.931         887.479
 -20061598.924 9 -15608872.96747  21489449.317    21489449.4284   21489455.7674
      3824.212        2979.905
  -2119788.100 9  -1639769.05247  22104936.994    22104937.7364   22104943.1924
     -1542.208       -1201.721
   7397194.134 9   5767221.54647  21887997.715    21887997.9254   21888004.4774
     -2521.976       -1965.176
 -12846299.180 9  -9991816.17848  19425808.723    19425808.9814   19425814.8484
       685.957         534.512
  -3977855.459 9  -3088169.77546  23069984.247    23069985.1974   23069992.9634
      -830.321        -647.003
 -23298009.730 9 -18130610.42748  20558652.944    20558653.2534   20558659.7124
      2818.542        2196.266
 96 10 10 17  1 59.9950000  0  9  1 17 28  3 26  6 23 22 21         -0.004035532
  -4067935.413 9  -3153377.84146  22910406.518    22910406.0644   22910414.2224
      4746.731        3698.751
  -8816219.341 9  -6696080.58148  19452155.434    19452155.4104   19452161.2644
       441.045         343.671
 -18482726.536 9 -13773902.941 9  19205273.398    19205273.840    19205279.272
      1117.293         870.618
 -20176119.461 9 -15698109.72947  21467656.944    21467656.9244   21467663.2494
      3810.544        2969.255
  -2073309.731 9  -1603552.15547  22113781.648    22113782.1864   22113787.7474
     -1556.607       -1212.941
   7472974.952 9   5826271.48746  21902418.297    21902418.5684   21902425.2404
     -2530.500       -1971.818
 -12866713.480 9 -10007723.41848  19421924.259    19421924.2474   19421930.1034
       674.762         525.788
  -3952817.700 9  -3068659.85646  23074747.746    23074749.8114   23074757.5204
      -839.148        -653.882
 -23382400.867 9 -18196369.73448  20542593.730    20542594.1344   20542600.6414
      2807.615        2187.752
 96 10 10 17  2 29.9950000  0  9  1 17 28  3 26  6 23 22 21         -0.004055697
  -4210319.637 9  -3264326.51046  22883310.931    22883311.2664   22883319.3314
      4744.999        3697.402
  -8829288.533 9  -6706264.37148  19449668.615    19449668.4434   19449674.2624
       430.051         335.105
 -18515938.775 9 -13799782.609 9  19198953.557    19198953.764    19198959.185
      1096.477         854.398
 -20290248.251 9 -15787041.23347  21445938.599    21445938.9574   21445945.2564
      3797.647        2959.205
  -2026417.743 9  -1567012.96747  22122704.915    22122705.5214   22122710.9944
     -1569.859       -1223.267
   7548999.600 9   5885511.43846  21916885.322    21916885.6354   21916892.2344
     -2538.102       -1977.742
 -12886804.065 9 -10023378.41848  19418100.983    19418101.0854   19418106.9564
       664.194         517.554
  -3927525.655 9  -3048951.79146  23079561.148    23079562.8054   23079570.5214
      -847.438        -660.341
 -23466493.118 9 -18261896.14148  20526591.329    20526591.8904   20526598.4004
      2798.097        2180.335
 96 10 10 17  2 59.9950000  0  9  1 17 28  3 26  6 23 22 21         -0.004075839
  -4352628.681 9  -3375216.58446  22856230.266    22856230.6264   22856238.7384
      4743.859        3696.514
  -8842019.281 9  -6716184.44448  19447245.896    19447245.8704   19447251.6844
       420.211         327.437
 -18548507.876 9 -13825161.132 9  19192755.770    19192756.048    19192761.480
      1076.242         838.630
 -20403969.992 9 -15875655.55747  21424297.750    21424298.4144   21424304.6984
      3785.040        2949.382
  -1979104.950 9  -1530145.89447  22131708.431    22131709.0044   22131714.4364
     -1582.829       -1233.373
   7625271.447 9   5944944.00746  21931399.692    21931399.7974   21931406.3154
     -2545.120       -1983.210
 -12906553.095 9 -10038767.27248  19414342.800    19414342.9904   19414348.8434
       653.854         509.497
  -3901956.604 9  -3029027.88746  23084427.852    23084428.4884   23084436.1724
      -855.774        -666.837
 -23550278.911 9 -18327183.75248  20510647.247    20510647.9764   20510654.4854
      2789.103        2173.327
 96 10 10 17  3 29.9950000  0  9  1 17 28  3 26  6 23 22 21         -0.004095973
  -4494894.491 9  -3486072.99946  22829157.752    22829158.3704   22829166.3944
      4741.587        3694.743
  -8854447.793 9  -6725868.99848  19444880.842    19444880.8234   19444886.6214
       409.778         319.308
 -18580455.409 9 -13850055.312 9  19186676.136    19186676.633    19186682.037
      1054.831         821.946
 -20517286.186 9 -15963953.85947  21402733.566    21402735.0364   21402741.2634
      3770.716        2938.220
  -1931391.658 9  -1492966.70747  22140787.883    22140788.5574   22140793.8884
     -1596.802       -1244.261
   7701763.693 9   6004548.31846  21945955.960    21945955.9154   21945962.4504
     -2552.992       -1989.344
 -12925971.049 9 -10053898.13648  19410647.710    19410647.8804   19410653.7474
       641.889         500.173
  -3876119.735 9  -3008895.30446  23089344.263    23089345.1904   23089352.7194
      -865.323        -674.278
 -23633779.806 9 -18392249.35948  20494757.441    20494758.2864   20494764.7454
      2778.922        2165.394
 96 10 10 17  3 59.9950000  0  9  1 17 28  3 26  6 23 22 21         -0.004116088
  -4637090.995 9  -3596875.39446  22802098.885    22802099.2384   22802107.1214
      4738.088        3692.017
  -8866580.717 9  -6735323.22748  19442571.857    19442572.0024   19442577.8124
       399.266         311.116
 -18611761.148 9 -13874449.391 9  19180718.645    19180719.330    19180724.730
      1032.388         804.458
 -20630184.822 9 -16051926.80847  21381250.233    21381251.0904   21381257.2934
      3755.949        2926.714
  -1883254.690 9  -1455457.38447  22149948.128    22149948.6174   22149953.9884
     -1612.212       -1256.269
   7778481.406 9   6064328.32046  21960554.911    21960554.7304   21960561.3494
     -2561.623       -1996.070
 -12945031.289 9 -10068750.26948  19407020.576    19407020.8454   19407026.6764
       629.079         490.191
  -3849999.778 9  -2988542.12646  23094314.768    23094315.5864   23094323.2134
      -875.842        -682.474
 -23716975.679 9 -18457077.28448  20478925.789    20478926.6104   20478933.0484
      2767.740        2156.680
 96 10 10 17  4 29.9950000  0  9  1 17 28  3 26  6 23 22 21         -0.004136185
  -4779207.383 9  -3707615.36746  22775055.524    22775055.3144   22775063.1284
      4736.534        3690.806
  -8878439.650 9  -6744563.95748  19440315.324    19440315.3604   19440321.1504
       391.667         305.195
 -18642440.415 9 -13898355.318 9  19174880.816    19174881.299    19174886.661
      1013.161         789.476
 -20742681.493 9 -16139586.53147  21359843.258    21359843.6444   21359849.8414
      3744.060        2917.449
  -1834702.989 9  -1417624.92747  22159186.853    22159187.6294   22159193.1884
     -1624.344       -1265.723
   7855419.696 9   6124280.18446  21975195.219    21975195.5384   21975202.3744
     -2567.277       -2000.476
 -12963758.263 9 -10083342.71448  19403456.863    19403457.1864   19403463.0584
       619.556         482.771
  -3823606.380 9  -2967975.88046  23099338.244    23099338.1044   23099345.7704
      -883.351        -688.325
 -23799881.424 9 -18521679.14648  20463149.571    20463150.1344   20463156.5604
      2759.519        2150.274
 96 10 10 17  4 59.9950000  0  9  1 17 28  3 26  6 23 22 21         -0.004156272
  -4921233.736 9  -3818285.17246  22748028.763    22748028.6764   22748036.3784
      4732.175        3687.409
  -8890032.979 9  -6753597.72748  19438109.179    19438109.2094   19438115.0454
       381.308         297.123
 -18672504.945 9 -13921782.220 9  19169159.690    19169160.212    19169165.573
       991.343         772.475
 -20854780.531 9 -16226936.40447  21338511.037    21338511.8704   21338518.0794
      3729.457        2906.070
  -1785752.398 9  -1379481.61947  22168501.762    22168502.5644   22168508.1984
     -1638.826       -1277.007
   7932563.293 9   6184392.03546  21989874.676    21989875.4344   21989882.2794
     -2575.434       -2006.832
 -12982161.265 9 -10097682.71148  19399955.012    19399955.2094   19399961.0904
       607.719         473.547
  -3796958.107 9  -2947211.01346  23104408.642    23104409.0764   23104416.8834
      -892.961        -695.814
 -23882500.177 9 -18586057.37048  20447427.770    20447428.3014   20447434.7264
      2748.642        2141.799
 96 10 10 17  5 29.9950000  0  9  1 17 28  3 26  6 23 22 21         -0.004176334
  -5063154.292 9  -3928872.55846  22721022.954    22721022.1844   22721029.7624
      4728.944        3684.891
  -8901339.904 9  -6762408.32548  19435957.518    19435957.5704   19435963.3954
       372.305         290.108
 -18701941.979 9 -13944720.172 9  19163558.173    19163558.560    19163563.899
       971.055         756.666
 -20966470.749 9 -16313967.71747  21317256.761    21317257.9234   21317264.0904
      3716.707        2896.135
  -1736401.317 9  -1341026.24847  22177893.078    22177893.8134   22177899.4324
     -1651.323       -1286.745
   8009922.337 9   6244671.77346  22004595.871    22004596.4414   22004603.1134
     -2582.017       -2011.961
 -13000252.248 9 -10111779.58248  19396512.512    19396512.6694   19396518.4924
       598.399         466.285
  -3770053.892 9  -2926246.71546  23109529.030    23109528.7334   23109536.6124
      -900.730        -701.868
 -23964823.670 9 -18650205.52148  20431762.137    20431762.6384   20431769.0484
      2739.494        2134.671
 96 10 10 17  5 59.9950000  0  9  1 17 28  3 26  6 23 22 21         -0.004196368
  -5204935.587 9  -4039351.41646  22694042.559    22694042.0834   22694049.6344
      4722.916        3680.194
  -8912335.405 9  -6770976.25348  19433865.004    19433865.1834   19433871.0324
       360.379         280.815
 -18730738.709 9 -13967159.184 9  19158078.466    19158078.726    19158084.055
       948.546         739.127
 -21077757.361 9 -16400684.53447  21296079.868    21296080.7824   21296086.9264
      3702.110        2884.761
  -1686646.445 9  -1302256.23547  22187361.165    22187361.8754   22187367.4994
     -1665.727       -1297.969
   8087516.248 9   6305134.51446  22019361.974    22019362.1944   22019368.8134
     -2591.153       -2019.080
 -13018038.348 9 -10125638.87548  19393127.906    19393128.0804   19393133.8874
       587.082         457.466
  -3742881.643 9  -2905073.55546  23114699.581    23114699.5114   23114707.4104
      -910.896        -709.789
 -24046841.597 9 -18714115.57248  20416154.620    20416155.1764   20416161.5864
      2728.311        2125.957
 96 10 10 17  6 29.9950000  0  9  1 17 28  3 26  6 23 22 21         -0.004216390
  -5346605.934 9  -4149743.83846  22667082.537    22667083.0044   22667090.6124
      4719.722        3677.705
  -8923025.761 9  -6779306.40448  19431830.688    19431830.8824   19431836.7684
       350.160         272.852
 -18758926.530 9 -13989123.719 9  19152714.426    19152714.773    19152720.093
       928.370         723.405
 -21188663.181 9 -16487104.63547  21274975.141    21274976.1634   21274982.2534
      3689.289        2874.771
  -1636525.570 9  -1263201.03147  22196898.796    22196899.4794   22196905.0694
     -1677.899       -1307.454
   8165320.580 9   6365761.24046  22034167.791    22034167.9634   22034174.5824
     -2597.941       -2024.370
 -13035549.234 9 -10139283.71448  19389795.730    19389795.8724   19389801.6744
       577.995         450.386
  -3715472.022 9  -2883715.43646  23119914.845    23119915.3924   23119923.2814
      -918.675        -715.851
 -24128595.133 9 -18777819.60148  20400597.606    20400597.9694   20400604.3824
      2719.719        2119.262
 96 10 10 17  6 59.9950000  0  9  1 17 28  3 26  6 23 22 21         -0.004236362
  -5488140.630 9  -4260030.54746  22640150.074    22640149.7934   22640157.4004
      4717.266        3675.792
  -8933356.700 9  -6787356.49848  19429864.827    19429864.9944   19429870.8684
       339.759         264.747
 -18786453.887 9 -14010573.620 9  19147475.984    19147476.512    19147481.832
       908.028         707.554
 -21299126.826 9 -16573180.18247  21253954.890    21253955.6354   21253961.6964
      3676.166        2864.545
  -1585983.948 9  -1223817.97247  22206516.542    22206517.3674   22206522.7884
     -1690.341       -1317.149
   8243386.257 9   6426591.58146  22049023.374    22049023.4304   22049030.1404
     -2605.228       -2030.048
 -13052739.015 9 -10152678.35348  19386524.506    19386524.7494   19386530.5894
       569.362         443.659
  -3687773.647 9  -2862132.31746  23125186.775    23125186.2994   23125194.0914
      -926.610        -722.034
 -24210042.439 9 -18841285.01948  20385098.631    20385099.0414   20385105.4524
      2711.284        2112.689
 96 10 10 17  7 29.9950000  0  9  1 17 28  3 26  6 23 22 21         -0.004256315
  -5629603.372 9  -4370261.19246  22613230.256    22613230.2344   22613237.9064
      4715.074        3674.084
  -8943364.580 9  -6795154.84648  19427960.387    19427960.5564   19427966.4634
       329.059         256.410
 -18813364.851 9 -14031543.198 9  19142354.974    19142355.500    19142360.853
       887.606         691.641
 -21409188.870 9 -16658942.78847  21233010.574    21233011.5274   21233017.5554
      3662.945        2854.243
  -1535056.542 9  -1184134.27847  22216207.984    22216208.6254   22216214.0144
     -1703.154       -1327.133
   8321682.685 9   6487601.73146  22063922.301    22063922.7474   22063929.6504
     -2612.982       -2036.090
 -13069662.307 9 -10165865.33248  19383304.140    19383304.3824   19383310.2074
       560.102         436.443
  -3659836.144 9  -2840362.86046  23130502.792    23130502.7094   23130510.4994
      -934.157        -727.915
 -24291223.525 9 -18904542.98548  20369650.377    20369650.7664   20369657.2064
      2702.317        2105.702
 96 10 10 17  7 59.9950000  0  9  1 17 28  3 26  6 23 22 21         -0.004276262
  -5771012.025 9  -4480449.67546  22586321.503    22586320.9594   22586328.8234
      4712.731        3672.258
  -8953060.819 9  -6802710.36548  19426115.269    19426115.4234   19426121.3274
       318.045         247.827
 -18839672.520 9 -14052042.683 9  19137348.726    19137349.292    19137354.676
       866.808         675.435
 -21518865.552 9 -16744405.12247  21212139.847    21212140.6804   21212146.7224
      3649.342        2843.643
  -1483755.194 9  -1144159.23947  22225970.317    22225970.9554   22225976.3834
     -1716.375       -1337.435
   8400201.306 9   6548785.03646  22078864.217    22078864.4404   22078871.2614
     -2620.820       -2042.197
 -13086296.862 9 -10178827.32148  19380138.758    19380138.9324   19380144.7514
       549.358         428.071
  -3631693.888 9  -2818433.85746  23135859.031    23135857.9874   23135865.7564
      -941.302        -733.482
 -24372143.701 9 -18967597.64648  20354252.006    20354252.1514   20354258.5684
      2692.857        2098.330
 96 10 10 17  8 29.9950000  0  9  1 17 28  3 26  6 23 22 21         -0.004296194
  -5912340.574 9  -4590575.74146  22559427.035    22559426.9384   22559434.9604
      4709.695        3669.892
  -8962418.417 9  -6810002.00948  19424334.609    19424334.7124   19424340.6204
       306.553         238.872
 -18865343.306 9 -14072045.900 9  19132463.674    19132464.307    19132469.705
       845.251         658.637
 -21628121.169 9 -16829539.34447  21191349.492    21191349.9704   21191356.0224
      3635.050        2832.506
  -1432040.432 9  -1103862.06047  22235811.067    22235811.9214   22235817.3494
     -1730.544       -1348.476
   8478955.187 9   6610151.65746  22093850.523    22093850.8934   22093857.6994
     -2628.684       -2048.325
 -13102599.616 9 -10191530.76748  19377036.400    19377036.6284   19377042.4154
       538.276         419.436
  -3603336.405 9  -2796337.14646  23141255.259    23141254.2934   23141261.9914
      -948.595        -739.165
 -24452765.320 9 -19030419.66348  20338910.247    20338910.3604   20338916.7544
      2682.461        2090.229
 96 10 10 17  8 59.9950000  0  9  1 17 28  3 26  6 23 22 21         -0.004316122
  -6053592.819 9  -4700642.35646  22532547.368    22532547.3954   22532555.5234
      4705.970        3666.990
  -8971454.487 9  -6817043.10348  19422615.107    19422615.2154   19422621.1244
       294.918         229.806
 -18890388.281 9 -14091561.467 9  19127698.026    19127698.432    19127703.803
       823.516         641.701
 -21736976.454 9 -16914361.62447  21170634.500    21170635.4634   21170641.5034
      3621.115        2821.648
  -1379926.523 9  -1063253.81847  22245728.118    22245728.7964   22245734.2854
     -1744.390       -1359.265
   8557918.368 9   6671681.33746  22108876.341    22108877.0404   22108883.9924
     -2636.283       -2054.246
 -13118586.737 9 -10203988.26248  19373994.143    19373994.3644   19374000.1584
       526.569         410.314
  -3574783.567 9  -2774088.21346  23146688.828    23146687.6634   23146695.4504
      -955.725        -744.721
 -24533091.604 9 -19093011.55448  20323624.791    20323624.7684   20323631.1624
      2671.617        2081.779
 96 10 10 17  9 29.9950000  0  9  1 17 28  3 26  6 23 22 21         -0.004336057
  -6194739.255 9  -4810626.52346  22505688.547    22505688.0434   22505696.1554
      4702.957        3664.642
  -8980161.919 9  -6823828.12348  19420958.073    19420958.2484   19420964.1784
       285.071         222.133
 -18914801.435 9 -14110584.708 9  19123052.497    19123052.765    19123058.134
       803.414         626.037
 -21845433.661 9 -16998873.70747  21149996.051    21149996.7054   21150002.7634
      3608.710        2811.982
  -1327434.223 9  -1022350.76247  22255716.621    22255717.6574   22255723.3874
     -1755.607       -1368.005
   8637072.843 9   6733360.11346  22123939.125    22123939.6464   22123946.5244
     -2641.167       -2058.052
 -13134229.030 9 -10216177.06148  19371017.468    19371017.7304   19371023.5214
       515.626         401.786
  -3546040.941 9  -2751691.39346  23152157.498    23152157.2444   23152165.0844
      -961.199        -748.986
 -24613113.576 9 -19155366.32248  20308397.125    20308397.0714   20308403.4624
      2662.760        2074.878
 96 10 10 17  9 59.9950000  0  9  1 17 28  3 26  6 23 22 21         -0.004356016
  -6335773.814 9  -4920523.52746  22478849.970    22478850.0804   22478858.1164
      4699.369        3661.846
  -8988569.927 9  -6830379.82348  19419358.067    19419358.2684   19419364.1924
       275.569         214.729
 -18938600.902 9 -14129129.754 9  19118523.588    19118523.874    19118529.239
       783.187         610.276
 -21953503.569 9 -17083084.00747  21129431.020    21129431.7064   21129437.7534
      3595.725        2801.864
  -1274599.906 9   -981181.19747  22265770.680    22265771.6864   22265777.3694
     -1766.681       -1376.635
   8716370.247 9   6795150.24746  22139029.342    22139029.4474   22139036.2774
     -2645.308       -2061.279
 -13149540.365 9 -10228107.96948  19368103.839    19368104.0954   19368109.8944
       505.339         393.771
  -3517114.530 9  -2729151.37046  23157661.355    23157661.7424   23157669.6624
      -967.548        -753.933
 -24692869.284 9 -19217513.60648  20293219.987    20293220.0434   20293226.4364
      2654.202        2068.209
 96 10 10 17 10 29.9950000  0  9  1 17 28  3 26  6 23 22 21         -0.004375968
  -6476661.897 9  -5030306.38846  22452039.607    22452040.0744   22452047.9284
      4694.212        3657.828
  -8996668.548 9  -6836690.44648  19417816.928    19417817.1324   19417823.0644
       265.304         206.730
 -18961763.117 9 -14147178.232 9  19114115.900    19114116.218    19114121.586
       761.953         593.730
 -22061139.875 9 -17166956.42947  21108948.727    21108949.2074   21108955.2424
      3580.891        2790.305
  -1221406.928 9   -939732.15447  22275892.924    22275893.9514   22275899.6374
     -1778.518       -1385.858
   8795818.630 9   6857058.03646  22154147.866    22154148.0054   22154154.7584
     -2650.366       -2065.220
 -13164522.573 9 -10239782.41448  19365252.882    19365253.0474   19365258.8734
       494.392         385.240
  -3487948.708 9  -2706424.77746  23163212.449    23163211.7984   23163219.8514
      -975.894        -760.437
 -24772338.707 9 -19279437.81248  20278097.167    20278097.4824   20278103.8764
      2644.717        2060.818
 96 10 10 17 10 59.9950000  0  9  1 17 28  3 26  6 23 22 21         -0.004395928
  -6617428.108 9  -5139994.26946  22425252.796    22425253.1504   22425261.0084
      4689.580        3654.218
  -9004493.123 9  -6842787.52448  19416328.014    19416328.1734   19416334.1164
       255.602         199.170
 -18984318.250 9 -14164753.659 9  19109823.762    19109824.094    19109829.496
       741.066         577.454
 -22168348.539 9 -17250495.63347  21088547.778    21088548.0624   21088554.0824
      3565.656        2778.433
  -1167896.825 9   -898036.02047  22286075.509    22286076.6574   22286082.4634
     -1789.455       -1394.380
   8875397.992 9   6919067.87646  22169291.305    22169291.4014   22169298.2434
     -2655.512       -2069.230
 -13179195.974 9 -10251216.22948  19362460.537    19362460.7774   19362466.6104
       483.223         376.537
  -3458563.263 9  -2683527.05846  23168803.549    23168803.6844   23168811.7844
      -983.812        -766.607
 -24851550.887 9 -19341161.56848  20263023.161    20263023.8654   20263030.2584
      2635.437        2053.587
 96 10 10 17 11 29.9950000  0  9  1 17 28  3 26  6 23 22 21         -0.004415884
  -6758070.713 9  -5249585.83946  22398488.898    22398489.7064   22398497.4994
      4685.793        3651.267
  -9012036.535 9  -6848665.51448  19414892.473    19414892.7284   19414898.6944
       246.313         191.932
 -19006260.738 9 -14181851.709 9  19105648.289    19105648.581    19105653.992
       720.771         561.640
 -22275105.045 9 -17333682.51047  21068232.863    21068232.9944   21068238.9784
      3550.502        2766.625
  -1114065.931 9   -856089.90247  22296319.575    22296320.3984   22296326.1034
     -1800.454       -1402.951
   8955119.700 9   6981188.64646  22184461.472    22184461.9404   22184468.9114
     -2660.368       -2073.014
 -13193557.913 9 -10262407.35048  19359727.528    19359727.8324   19359733.6144
       473.411         368.892
  -3428945.042 9  -2660447.95046  23174439.839    23174439.8314   23174447.9444
      -991.639        -772.706
 -24930498.940 9 -19402679.51148  20247999.810    20248000.5124   20248006.9014
      2626.780        2046.841
 96 10 10 17 11 59.9950000  0  9  1 17 28  3 26  6 23 22 21         -0.004435807
  -6898581.725 9  -5359074.87246  22371750.389    22371751.2534   22371759.0504
      4681.171        3647.666
  -9019271.321 9  -6854303.01948  19413515.676    19413515.9984   19413521.9884
       235.473         183.485
 -19027565.294 9 -14198452.667 9  19101594.095    19101594.437    19101599.889
       699.091         544.746
 -22381382.630 9 -17416496.19247  21048008.421    21048009.0354   21048015.0654
      3534.329        2754.023
  -1059867.166 9   -813857.09947  22306633.211    22306634.1154   22306639.5464
     -1813.260       -1412.930
   9035029.594 9   7043456.02446  22199668.485    22199668.3334   22199675.3994
     -2667.562       -2078.620
 -13207610.271 9 -10273357.23548  19357053.622    19357053.7564   19357059.5184
       462.992         360.773
  -3399066.647 9  -2637166.10846  23180126.190    23180125.4624   23180133.5964
     -1000.579        -779.672
 -25009147.189 9 -19463963.84348  20233033.498    20233034.2104   20233040.6054
      2615.984        2038.429
 96 10 10 17 12 29.9950000  0  9  1 17 28  3 26  6 23 22 21         -0.004455698
  -7038969.971 9  -5468468.24746  22345035.171    22345036.1564   22345043.9034
      4677.985        3645.183
  -9026189.155 9  -6859693.54148  19412199.311    19412199.5554   19412205.5694
       225.429         175.659
 -19048234.462 9 -14214558.521 9  19097660.834    19097661.249    19097666.672
       678.746         528.893
 -22487194.304 9 -17498946.82647  21027872.755    21027873.7204   21027879.7394
      3519.866        2742.753
  -1005291.014 9   -771330.29047  22317019.169    22317019.5954   22317024.9064
     -1825.251       -1422.274
   9115143.964 8   7105882.74746  22214914.178    22214913.6804   22214920.7324
     -2673.668       -2083.378
 -13221360.568 9 -10284071.74748  19354436.945    19354437.1444   19354442.9194
       453.675         353.513
  -3368951.195 9  -2613699.54246  23185856.345    23185856.3234   23185864.4854
     -1007.044        -784.710
 -25087488.954 9 -19525009.35548  20218125.588    20218126.2994   20218132.6724
      2606.796        2031.270
 96 10 10 17 12 59.9950000  0  9  1 17 28  3 26  6 23 22 21         -0.004475576
  -7179264.597 9  -5577788.69046  22318338.548    22318338.9164   22318346.6174
      4674.030        3642.101
  -9032793.249 9  -6864839.59948  19410942.516    19410942.8314   19410948.8514
       213.922         166.692
 -19068287.041 9 -14230183.913 9  19093845.007    19093845.400    19093850.813
       657.147         512.062
 -22592578.920 9 -17581064.69347  21007818.516    21007819.6904   21007825.7204
      3504.887        2731.081
   -950348.444 9   -728517.91447  22327474.574    22327474.9034   22327480.1104
     -1838.595       -1432.671
   9195452.734 9   7168460.97046  22230195.332    22230195.8124   22230203.0604
     -2681.095       -2089.165
 -13234834.659 9 -10294571.03548  19351872.753    19351873.0984   19351878.8784
       443.788         345.809
  -3338647.436 9  -2590086.25246  23191622.597    23191622.9234   23191631.1414
     -1014.192        -790.279
 -25165553.972 9 -19585839.22248  20203270.702    20203271.0354   20203277.3884
      2596.761        2023.450
 96 10 10 17 13 29.9950000  0  9  1 17 28  3 26  6 23 22 21         -0.004495434
  -7319459.457 9  -5687031.39646  22291659.936    22291660.7294   22291668.2924
      4670.999        3639.739
  -9039072.350 9  -6869732.41348  19409747.757    19409747.9204   19409753.9774
       203.523         158.589
 -19087714.087 9 -14245321.876 9  19090148.075    19090148.572    19090153.974
       636.656         496.096
 -22697545.784 9 -17662857.03447  20987844.357    20987845.1214   20987851.1914
      3491.561        2720.697
   -895022.672 9   -685406.95147  22338003.010    22338003.2244   22338008.4434
     -1851.140       -1442.447
   9275953.957 8   7231189.13846  22245514.146    22245514.7644   22245521.9004
     -2687.090       -2093.836
 -13248045.401 9 -10304865.12148  19349358.933    19349359.1814   19349364.9554
       435.473         339.330
  -3308148.535 9  -2566320.88746  23197426.534    23197426.6854   23197434.7984
     -1020.189        -794.952
 -25243353.517 9 -19646462.22348  20188466.116    20188466.2874   20188472.6414
      2588.449        2016.973
 96 10 10 17 13 59.9950000  0  9  1 17 28  3 26  6 23 22 21         -0.004515261
  -7459519.204 9  -5796168.80646  22265007.631    22265008.2064   22265015.8134
      4665.985        3635.832
  -9045009.673 9  -6874358.90648  19408617.894    19408618.1524   19408624.1704
       191.999         149.610
 -19106491.284 9 -14259953.466 9  19086574.768    19086575.413    19086580.794
       614.927         479.164
 -22802081.245 9 -17744313.22047  20967951.734    20967952.6994   20967958.7374
      3477.119        2709.443
   -839287.954 9   -641977.36847  22348608.756    22348609.0774   22348614.6734
     -1864.671       -1452.990
   9356673.512 8   7294087.43246  22260874.983    22260875.2544   22260882.4664
     -2694.359       -2099.501
 -13260964.814 9 -10314932.19248  19346900.417    19346900.7044   19346906.4584
       425.453         331.522
  -3277438.916 9  -2542391.33546  23203269.588    23203270.5404   23203278.6194
     -1027.336        -800.522
 -25320869.218 9 -19706864.05048  20173715.271    20173715.5264   20173721.8924
      2579.044        2009.645
 96 10 10 17 14 29.9950000  0  9  1 17 28  3 26  6 23 22 21         -0.004535078
  -7599457.872 9  -5905211.87846  22238378.449    22238378.6974   22238386.3024
      4662.702        3633.274
  -9050637.719 9  -6878744.39948  19407546.864    19407547.2114   19407553.1974
       182.509         142.215
 -19124652.049 9 -14274104.718 9  19083119.183    19083119.533    19083124.930
       595.139         463.745
 -22906211.142 9 -17825453.37947  20948136.481    20948137.4754   20948143.4304
      3464.218        2699.391
   -783184.029 9   -598260.04547  22359284.881    22359285.3184   22359291.0914
     -1876.148       -1461.934
   9437561.997 8   7357117.36046  22276267.955    22276267.9344   22276275.0824
     -2698.774       -2102.941
 -13273613.454 9 -10324788.27148  19344493.445    19344493.7194   19344499.4864
       417.204         325.094
  -3246550.792 9  -2518322.69446  23209147.798    23209148.3534   23209156.4894
     -1032.670        -804.678
 -25398143.150 9 -19767077.48648  20159010.788    20159010.7824   20159017.1444
      2571.633        2003.870
 96 10 10 17 14 59.9950000  0  9  1 17 28  3 26  6 23 22 21         -0.004554879
  -7739255.169 9  -6014144.77646  22211775.789    22211776.1124   22211783.7084
      4657.400        3629.143
  -9055943.122 9  -6882878.48548  19406537.202    19406537.6174   19406543.6274
       171.705         133.796
 -19142182.005 9 -14287764.428 9  19079783.287    19079783.674    19079789.067
       573.944         447.229
 -23009914.405 9 -17906261.10647  20928401.999    20928403.3854   20928409.3284
      3449.537        2687.951
   -726710.369 9   -554254.61847  22370031.507    22370031.8774   22370037.7274
     -1888.243       -1471.358
   9518618.793 8   7420278.43646  22291692.151    22291692.4534   22291699.7904
     -2704.505       -2107.406
 -13285979.912 9 -10334424.46948  19342140.237    19342140.4374   19342146.2364
       407.536         317.560
  -3215456.698 9  -2494093.55346  23215064.829    23215065.4294   23215073.3834
     -1039.870        -810.288
 -25475146.714 9 -19827080.24948  20144357.119    20144357.4704   20144363.8414
      2562.355        1996.640
 96 10 10 17 15 29.9950000  0  9  1 17 28  3 26  6 23 22 21         -0.004574653
  -7878873.648 9  -6122938.36246  22185206.900    22185207.5294   22185215.2174
      4651.284        3624.377
  -9060916.438 9  -6886753.79648  19405590.905    19405591.2464   19405597.2804
       160.628         125.165
 -19159068.819 9 -14300922.994 9  19076569.742    19076570.219    19076575.620
       552.634         430.624
 -23113163.991 9 -17986715.31547  20908754.627    20908755.5744   20908761.5474
      3434.475        2676.214
   -669870.799 9   -509964.09747  22380847.668    22380848.1384   22380854.0524
     -1900.133       -1480.623
   9599851.180 8   7483576.34646  22307150.087    22307150.3804   22307157.9354
     -2710.275       -2111.903
 -13298038.576 9 -10343820.83248  19339845.281    19339845.7514   19339851.5484
       397.191         309.499
  -3184139.034 9  -2469690.20946  23221023.932    23221025.1254   23221032.8564
     -1047.070        -815.899
 -25551850.646 9 -19886849.52848  20129760.856    20129761.1754   20129767.5364
      2551.848        1988.453
 96 10 10 17 15 59.9950000  0  9  1 17 28  3 26  6 23 22 21         -0.004594411
  -8018315.887 9  -6231594.60946  22158672.200    22158672.4784   22158680.1694
      4644.742        3619.279
  -9065566.976 9  -6890377.59948  19404705.998    19404706.3214   19404712.3284
       149.223         116.278
 -19175329.619 9 -14313593.752 9  19073475.403    19073475.866    19073481.284
       531.229         413.945
 -23215966.210 9 -18066820.92347  20889192.164    20889192.9164   20889198.8954
      3418.820        2664.015
   -612693.975 9   -465410.77147  22391727.547    22391728.3754   22391734.5574
     -1911.760       -1489.683
   9681248.628 8   7547002.87246  22322639.692    22322639.8254   22322647.5214
     -2716.220       -2116.535
 -13309802.595 9 -10352987.59548  19337606.727    19337607.1374   19337612.9454
       387.008         301.565
  -3152623.504 9  -2445132.68546  23227022.114    23227022.3614   23227030.1594
     -1054.101        -821.377
 -25628242.612 9 -19946375.71948  20115223.509    20115224.2434   20115230.6174
      2540.909        1979.929
 96 10 10 17 16 29.9950000  0  9  1 17 28  3 26  6 23 22 21         -0.004614164
  -8157596.711 9  -6340125.08446  22132167.892    22132168.1504   22132175.8824
      4640.690        3616.122
  -9069909.511 9  -6893761.40148  19403879.594    19403879.9854   19403885.9864
       140.393         109.397
 -19190978.071 9 -14325787.362 9  19070497.588    19070498.059    19070503.500
       512.005         398.965
 -23318324.545 9 -18146580.64948  20869714.209    20869714.7904   20869720.7334
      3405.070        2653.301
   -555205.723 9   -420614.76947  22402667.140    22402667.9894   22402674.1704
     -1920.653       -1496.613
   9762779.200 8   7610533.11146  22338154.390    22338154.6054   22338162.3584
     -2719.182       -2118.843
 -13321294.535 9 -10361942.35248  19335420.001    19335420.3134   19335426.1274
       379.114         295.413
  -3120932.068 9  -2420438.08446  23233053.186    23233053.0624   23233060.9354
     -1058.644        -824.917
 -25704336.579 9 -20005669.70948  20100743.364    20100744.0604   20100750.4094
      2532.130        1973.088
 96 10 10 17 16 59.9950000  0  9  1 17 28  3 26  6 23 22 21         -0.004633931
  -8296741.970 9  -6448549.93646  22105689.665    22105689.6674   22105697.3554
      4635.725        3612.253
  -9073972.886 9  -6896927.67648  19403106.330    19403106.7374   19403112.7714
       130.523         101.706
 -19206034.638 9 -14337519.761 9  19067632.417    19067632.900    19067638.364
       491.728         383.165
 -23420251.660 9 -18226004.35948  20850317.991    20850318.6714   20850324.6184
      3389.940        2641.512
   -497436.872 9   -375600.12447  22413660.241    22413661.1034   22413667.1984
     -1930.663       -1504.413
   9844427.102 8   7674154.80746  22353691.126    22353691.7704   22353699.3914
     -2724.014       -2122.608
 -13332532.354 9 -10370699.09348  19333281.486    19333281.8244   19333287.6344
       369.996         288.309
  -3089099.356 9  -2395633.39346  23239111.238    23239110.6074   23239118.5294
     -1063.482        -828.687
 -25780164.374 9 -20064756.28648  20086313.804    20086314.4684   20086320.8104
      2523.184        1966.117
 96 10 10 17 17 29.9950000  0  9  1 17 28  3 26  6 23 22 21         -0.004653683
  -8435724.183 9  -6556847.72846  22079242.584    22079242.2614   22079249.9244
      4630.453        3608.145
  -9077715.587 9  -6899844.06948  19402394.179    19402394.5174   19402400.5884
       119.560          93.164
 -19220454.670 9 -14348756.156 9  19064888.197    19064888.892    19064894.334
       470.208         366.396
 -23521696.157 9 -18305052.00148  20831013.708    20831014.4104   20831020.4174
      3373.715        2628.869
   -439336.011 9   -330326.76947  22424716.225    22424717.3394   22424723.5044
     -1942.184       -1513.390
   9926248.330 8   7737911.57246  22369260.144    22369261.6754   22369269.4504
     -2730.102       -2127.352
 -13343467.505 9 -10379219.98848  19331200.478    19331200.8954   19331206.7484
       359.700         280.286
  -3057096.467 9  -2370696.10946  23245200.729    23245200.4774   23245208.4614
     -1069.462        -833.347
 -25855695.144 9 -20123611.41948  20071940.998    20071941.4334   20071947.7684
      2512.783        1958.013
 96 10 10 17 17 59.9950000  0  9  1 17 28  3 26  6 23 22 21         -0.004673397
  -8574527.352 9  -6665005.99546  22052829.357    22052828.8684   22052836.5424
      4625.841        3604.551
  -9081104.650 9  -6902484.90148  19401749.393    19401749.6024   19401755.6784
       109.110          85.021
 -19234205.946 9 -14359471.443 9  19062271.219    19062272.117    19062277.570
       449.263         350.075
 -23622628.013 9 -18383700.18648  20811807.152    20811807.7284   20811813.7514
      3357.855        2616.510
   -380862.338 9   -284762.89047  22435842.991    22435844.5024   22435850.7604
     -1953.239       -1522.004
  10008271.792 8   7801825.84446  22384869.934    22384870.3644   22384878.1634
     -2735.304       -2131.406
 -13354074.001 9 -10387484.79248  19329182.112    19329182.5144   19329188.3824
       350.030         272.751
  -3024887.546 9  -2345598.27846  23251329.612    23251329.6664   23251337.6854
     -1075.145        -837.775
 -25930900.775 9 -20182213.19648  20057629.949    20057630.2534   20057636.5984
      2503.768        1950.988
 96 10 10 17 18 29.9950000  0  9  1 17 28  3 26  6 23 22 21         -0.004693120
  -8713230.890 9  -6773086.62846  22026434.937    22026434.4634   22026442.0414
      4620.869        3600.677
  -9084206.018 9  -6904901.55548  19401159.148    19401159.4564   19401165.5124
        97.403          75.898
 -19247355.799 9 -14369718.086 9  19059768.859    19059769.784    19059775.227
       427.286         332.950
 -23723113.207 9 -18462000.32448  20792685.624    20792685.9984   20792692.0584
      3341.080        2603.439
   -322085.461 9   -238962.78847  22447027.975    22447029.3814   22447035.6094
     -1965.330       -1531.426
  10090420.444 8   7865837.73046  22400502.179    22400502.8044   22400510.4114
     -2741.527       -2136.255
 -13364407.986 9 -10395537.24048  19327215.744    19327215.9984   19327221.8944
       338.805         264.004
  -2992527.072 9  -2320382.35646  23257487.234    23257487.6714   23257495.6934
     -1082.386        -843.418
 -26005863.541 9 -20240625.72348  20043365.034    20043365.3504   20043371.6524
      2493.550        1943.026
 96 10 10 17 18 59.9950000  0  9  1 17 28  3 26  6 23 22 21         -0.004712847
  -8851840.116 9  -6881093.78546  22000058.549    22000058.0324   22000065.4474
      4618.868        3599.118
  -9086998.043 9  -6907077.16348  19400627.920    19400628.1954   19400634.1804
        87.804          68.419
 -19259903.712 9 -14379495.684 9  19057381.193    19057381.973    19057387.454
       408.379         318.217
 -23823154.889 9 -18539954.86748  20773648.567    20773648.6654   20773654.7564
      3327.631        2592.959
   -262996.887 9   -192919.79447  22458272.514    22458273.7854   22458279.7404
     -1974.606       -1538.654
  10172711.581 8   7929960.64446  22416161.492    22416162.3784   22416169.8224
     -2745.299       -2139.194
 -13374468.943 9 -10403376.94548  19325301.154    19325301.4694   19325307.3424
       331.191         258.071
  -2960006.677 9  -2295041.80446  23263675.777    23263676.1844   23263684.1584
     -1086.553        -846.665
 -26080573.288 9 -20298841.09648  20029148.199    20029148.5524   20029154.8424
      2486.048        1937.180
 96 10 10 17 19 29.9950000  0  9  1 17 28  3 26  6 23 22 21         -0.004732587
  -8990361.897 9  -6989032.79146  21973698.689    21973698.2084   21973705.5324
      4614.968        3596.079
  -9089477.982 9  -6909009.59348  19400156.080    19400156.2614   19400162.2524
        76.884          59.910
 -19271864.852 9 -14388816.060 9  19055105.103    19055105.868    19055111.295
       388.322         302.589
 -23922779.902 9 -18617584.73648  20754690.626    20754690.5814   20754696.7394
      3313.315        2581.804
   -203619.174 9   -146651.50647  22469572.031    22469573.1474   22469578.9374
     -1984.463       -1546.335
  10255124.591 8   7994178.53246  22431843.769    22431845.2454   22431852.5474
     -2749.492       -2142.461
 -13384285.184 9 -10411025.96448  19323433.423    19323433.5374   19323439.3604
       322.631         251.401
  -2927331.157 9  -2269580.36746  23269893.978    23269894.2084   23269902.1704
     -1092.543        -851.332
 -26155021.811 9 -20356852.91448  20014981.042    20014981.4654   20014987.7524
      2476.544        1929.774
 96 10 10 17 19 59.9950000  0  9  1 17 28  3 26  6 23 22 21         -0.004752326
  -9128744.204 9  -7096863.13046  21947365.215    21947364.9724   21947372.1664
      4610.949        3592.947
  -9091619.216 9  -6910678.09448  19399748.555    19399748.8084   19399754.8064
        66.382          51.726
 -19283215.159 9 -14397660.463 9  19052945.259    19052945.982    19052951.409
       368.779         287.360
 -24021960.712 9 -18694868.47048  20735817.191    20735817.0994   20735823.2434
      3299.027        2570.670
   -143944.166 9   -100151.54947  22480927.851    22480928.9514   22480934.7844
     -1993.350       -1553.260
  10337664.664 8   8058495.38246  22447551.096    22447552.0994   22447559.7254
     -2752.753       -2145.002
 -13393836.525 9 -10418468.56548  19321615.784    19321616.0014   19321621.7904
       314.563         245.114
  -2894467.039 9  -2243972.00446  23276148.283    23276148.0134   23276156.0234
     -1097.824        -855.447
 -26229187.823 9 -20414644.59848  20000867.887    20000868.1214   20000874.4324
      2468.299        1923.350
 96 10 10 17 20 29.9950000  0  9  1 17 28  3 26  6 23 22 21         -0.004772074
  -9266997.238 9  -7204592.71846  21921057.201    21921056.3074   21921063.4534
      4604.946        3588.270
  -9093439.986 9  -6912096.88448  19399402.007    19399402.3464   19399408.3614
        54.200          42.234
 -19293971.197 9 -14406041.791 9  19050898.346    19050899.162    19050904.595
       347.432         270.726
 -24120705.260 9 -18771812.25748  20717026.333    20717026.7024   20717032.8044
      3283.084        2558.247
    -83992.483 9    -53435.98247  22492336.352    22492337.3724   22492343.3214
     -2004.327       -1561.813
  10420314.178 8   8122897.54446  22463279.599    22463279.9964   22463287.3324
     -2758.153       -2149.210
 -13403139.195 9 -10425717.40148  19319845.577    19319845.7354   19319851.5314
       304.854         237.549
  -2861455.181 9  -2218248.51346  23282430.735    23282429.9404   23282437.9844
     -1103.678        -860.009
 -26303095.093 9 -20472234.66648  19986803.691    19986804.0394   19986810.3184
      2457.991        1915.318
 96 10 10 17 20 59.9950000  0  9  1 17 28  3 26  6 23 22 21         -0.004791812
  -9405065.951 9  -7312178.68547  21894782.828    21894782.6294   21894789.7094
      4598.886        3583.548
  -9094912.612 9  -6913244.39548  19399121.848    19399122.1564   19399128.1504
        43.382          33.804
 -19304100.412 9 -14413934.695 9  19048970.827    19048971.651    19048977.065
       327.098         254.882
 -24218985.981 9 -18848394.62148  20698323.818    20698324.5314   20698330.6024
      3268.059        2546.539
    -23728.232 9     -6476.86347  22503804.451    22503805.2834   22503811.3134
     -2013.937       -1569.302
  10503117.678 8   8187419.69046  22479037.796    22479037.2124   22479044.4244
     -2762.626       -2152.696
 -13412172.702 9 -10432756.49648  19318126.627    19318126.7204   19318132.5224
       296.538         231.069
  -2828293.069 9  -2192407.92246  23288740.511    23288740.5154   23288748.5574
     -1107.843        -863.254
 -26376712.132 9 -20529598.58048  19972794.877    19972795.1594   19972801.4684
      2449.082        1908.376
 96 10 10 17 21 29.9950000  0  9  1 17 28  3 26  6 23 22 21         -0.004811535
  -9542924.545 9  -7419600.91746  21868548.854    21868548.9574   21868555.9744
      4589.564        3576.284
  -9096058.008 9  -6914136.92148  19398904.016    19398904.1974   19398910.2504
        30.859          24.046
 -19313600.769 9 -14421337.577 9  19047162.874    19047163.807    19047169.214
       304.105         236.965
 -24316784.903 9 -18924601.56748  20679712.894    20679714.0124   20679720.0634
      3249.633        2532.182
     36840.395 9     40719.39947  22515330.453    22515331.0294   22515337.2364
     -2026.210       -1578.865
  10586065.552 8   8252054.29146  22494821.602    22494821.6564   22494828.9684
     -2769.274       -2157.876
 -13420930.757 9 -10439580.95948  19316459.749    19316460.1214   19316465.9204
       285.145         222.191
  -2794989.333 9  -2166456.99346  23295078.651    23295078.0674   23295085.9384
     -1114.476        -868.423
 -26450051.972 9 -20586746.49248  19958838.639    19958839.0484   19958845.3344
      2438.259        1899.942
 96 10 10 17 21 59.9950000  0  9  1 17 28  3 26  6 23 22 21         -0.004831234
  -9680560.649 9  -7526849.77146  21842357.335    21842357.6224   21842364.6834
      4585.745        3573.308
  -9096881.433 9  -6914778.56048  19398747.370    19398747.5564   19398753.5864
        23.466          18.285
 -19322465.074 9 -14428244.836 9  19045476.237    19045477.007    19045482.394
       286.362         223.139
 -24414078.545 9 -19000414.77748  20661198.568    20661199.6514   20661205.6774
      3236.155        2521.679
     97734.883 9     88169.58747  22526918.548    22526918.9944   22526925.1174
     -2033.961       -1584.905
  10669159.746 8   8316802.96946  22510633.597    22510633.9774   22510641.2924
     -2770.845       -2159.100
 -13429401.605 9 -10446181.62048  19314848.131    19314848.1614   19314853.9614
       279.055         217.445
  -2761547.464 9  -2140398.42246  23301442.686    23301441.9904   23301449.6874
     -1115.424        -869.162
 -26523130.226 9 -20643690.57848  19944932.388    19944932.6884   19944938.9904
      2433.070        1895.899
 96 10 10 17 22 29.9950000  0  9  1 17 28  3 26  6 23 22 21         -0.004850913
  -9817997.602 9  -7633943.45347  21816204.230    21816204.1734   21816211.3134
      4577.123        3566.589
  -9097391.346 9  -6915175.90148  19398650.284    19398650.5464   19398656.5274
        10.946           8.529
 -19330711.911 9 -14434670.951 9  19043907.123    19043907.663    19043913.082
       263.977         205.696
 -24510888.717 9 -19075851.26448  20642776.499    20642777.2844   20642783.3204
      3218.379        2507.828
    158949.631 9    135869.35846  22538567.392    22538567.8444   22538573.8224
     -2046.415       -1594.609
  10752395.112 8   8381661.61246  22526472.834    22526473.0274   22526480.4954
     -2777.592       -2164.357
 -13437607.091 9 -10452575.51048  19313286.550    19313286.7384   19313292.5014
       268.552         209.261
  -2727990.217 9  -2114249.96546  23307828.469    23307827.7124   23307835.3264
     -1121.406        -873.823
 -26595960.040 9 -20700441.07348  19931073.640    19931073.6354   19931079.9224
      2422.731        1887.842
 96 10 10 17 22 59.9950000  0  9  1 17 28  3 26  6 23 22 21         -0.004870572
  -9955226.316 9  -7740874.87246  21790090.216    21790090.4104   21790097.4674
      4572.217        3562.766
  -9097576.353 9  -6915320.07748  19398614.966    19398615.3164   19398621.3034
         1.904           1.484
 -19338340.745 9 -14440615.502 9  19042455.248    19042455.931    19042461.358
       245.228         191.087
 -24607209.451 9 -19150906.37248  20624447.283    20624448.0644   20624454.1154
      3203.581        2496.297
    220474.603 9    183810.84846  22550275.147    22550275.6154   22550281.4584
     -2054.598       -1600.985
  10835759.328 8   8446620.62746  22542336.485    22542336.5854   22542344.2124
     -2779.380       -2165.751
 -13445551.893 9 -10458766.26648  19311774.798    19311774.8944   19311780.6344
       261.640         203.875
  -2694291.711 9  -2087991.40146  23314240.553    23314240.3574   23314247.8734
     -1124.650        -876.351
 -26668535.449 9 -20756993.32948  19917262.940    19917262.9594   19917269.2454
      2416.138        1882.705
 96 10 10 17 23 29.9950000  0  9  1 17 28  3 26  6 23 22 21         -0.004890225
 -10092280.730 9  -7847670.45747  21764009.784    21764009.7804   21764016.7624
      4565.795        3557.762
  -9097450.072 9  -6915221.67448  19398639.034    19398639.3424   19398645.2824
        -9.513          -7.413
 -19345373.534 9 -14446095.603 9  19041116.927    19041117.644    19041123.084
       224.502         174.937
 -24703045.618 9 -19225583.90048  20606210.276    20606211.0394   20606217.1174
      3186.459        2482.955
    282283.110 9    231973.28246  22562036.676    22562037.3674   22562043.0744
     -2065.123       -1609.187
  10919204.186 8   8511642.56046  22558214.939    22558215.6474   22558223.1614
     -2782.839       -2168.446
 -13453244.273 9 -10464760.32548  19310310.856    19310311.0884   19310316.8434
       252.098         196.440
  -2660454.209 9  -2061624.55146  23320679.527    23320679.4494   23320687.1214
     -1130.283        -880.740
 -26740870.483 9 -20813358.27548  19903497.782    19903498.0224   19903504.3414
      2406.953        1875.548
 96 10 10 17 23 59.9950000  0  9  1 17 28  3 26  6 23 22 21         -0.004909868
 -10229168.982 9  -7954336.57947  21737961.138    21737960.7784   21737967.7434
      4559.606        3552.940
  -9096991.366 9  -6914864.24748  19398726.287    19398726.6284   19398732.5634
       -21.559         -16.799
 -19351801.576 9 -14451104.473 9  19039893.514    19039894.433    19039899.878
       203.550         158.610
 -24798391.671 9 -19299879.50948  20588066.572    20588067.2794   20588073.3764
      3169.431        2469.686
    344393.797 9    280371.19347  22573855.335    22573856.6164   22573862.4214
     -2075.987       -1617.652
  11002740.193 8   8576735.45246  22574110.997    22574111.9164   22574119.7484
     -2786.843       -2171.566
 -13460668.021 9 -10470545.06648  19308898.100    19308898.3664   19308904.1444
       242.219         188.742
  -2626469.296 9  -2035142.84746  23327147.213    23327146.6324   23327154.3034
     -1135.892        -885.111
 -26812936.622 9 -20869513.69448  19889783.954    19889784.2724   19889790.5944
      2396.877        1867.696
 96 10 10 17 24 29.9950000  0  9  1 17 28  3 26  6 23 22 21         -0.004929511
 -10365905.780 9  -8060884.69347  21711939.953    21711940.5344   21711947.5804
      4555.206        3549.511
  -9096205.550 9  -6914251.93548  19398875.713    19398876.1224   19398882.0844
       -31.656         -24.667
 -19357633.611 9 -14455648.929 9  19038783.883    19038784.636    19038790.100
       184.339         143.641
 -24893257.386 9 -19373800.84348  20570013.781    20570014.9074   20570021.0174
      3154.008        2457.669
    406789.245 9    328990.97146  22585728.875    22585730.0594   22585735.9704
     -2084.477       -1624.268
  11086363.007 8   8641895.99946  22590024.942    22590025.0084   22590032.6884
     -2788.872       -2173.147
 -13467824.362 9 -10476121.43548  19307536.189    19307536.5174   19307542.3274
       233.949         182.298
  -2592351.350 9  -2008557.46146  23333640.028    23333639.1374   23333646.8134
     -1139.545        -887.957
 -26884718.263 9 -20925447.43248  19876124.320    19876124.6684   19876131.0224
      2387.698        1860.544
 96 10 10 17 24 59.9950000  0  9  1 17 28  3 26  6 23 22 21         -0.004949155
 -10502478.442 9  -8167304.89247  21685950.735    21685951.5934   21685958.6104
      4550.326        3545.709
  -9095097.884 9  -6913388.82948  19399086.472    19399086.9164   19399092.8994
       -41.602         -32.417
 -19362858.321 9 -14459720.141 9  19037789.690    19037790.419    19037795.868
       164.586         128.249
 -24987625.854 9 -19447334.70648  20552055.869    20552057.1484   20552063.2924
      3137.895        2445.113
    469471.622 9    377834.29146  22597657.112    22597658.1624   22597664.0334
     -2093.754       -1631.497
  11170070.037 8   8707122.18346  22605953.368    22605953.9374   22605961.6874
     -2791.172       -2174.939
 -13474693.256 9 -10481473.83248  19306229.125    19306229.4414   19306235.2324
       224.592         175.007
  -2558097.640 9  -1981866.30146  23340157.502    23340157.4384   23340165.1004
     -1143.305        -890.887
 -26956193.655 9 -20981142.53148  19862523.095    19862523.3784   19862529.6894
      2377.980        1852.971
 96 10 10 17 25 29.9950000  0  9  1 17 28  3 26  6 23 22 21         -0.004968807
 -10638907.000 9  -8273612.81247  21659989.017    21659990.0744   21659997.1344
      4544.279        3540.997
  -9093695.431 9  -6912296.01448  19399353.166    19399353.8004   19399359.7824
       -52.394         -40.826
 -19367490.188 9 -14463329.390 9  19036908.543    19036909.024    19036914.465
       143.632         111.921
 -25081514.146 9 -19520494.40048  20534188.877    20534190.7664   20534196.9544
      3120.885        2431.858
    532436.759 9    426898.03946  22609638.868    22609640.1334   22609645.8494
     -2104.397       -1639.790
  11253866.861 8   8772418.30846  22621899.533    22621899.9954   22621907.9024
     -2796.076       -2178.761
 -13481284.495 9 -10486609.85248  19304974.913    19304975.1844   19304980.9804
       214.471         167.120
  -2523742.600 9  -1955096.17946  23346694.971    23346695.0104   23346702.6204
     -1147.534        -894.182
 -27027375.856 9 -21036609.16548  19848977.511    19848977.8364   19848984.1624
      2367.119        1844.508
 96 10 10 17 25 59.9950000  0  9  1 17 28  3 26  6 23 22 21         -0.004988456
 -10775161.355 9  -8379784.99647  21634060.103    21634061.7634   21634068.9134
      4538.607        3536.577
  -9091980.618 9  -6910959.80648  19399679.721    19399680.1824   19399686.1154
       -62.541         -48.733
 -19371506.545 9 -14466459.023 9  19036144.194    19036144.756    19036150.162
       123.573          96.291
 -25174913.388 9 -19593273.02748  20516415.555    20516417.5194   20516423.6884
      3105.156        2419.602
    595699.725 9    476193.83347  22621677.557    22621678.7124   22621684.5694
     -2113.407       -1646.811
  11337795.702 8   8837817.29146  22637870.693    22637871.2074   22637879.1544
     -2799.632       -2181.531
 -13487597.526 9 -10491529.10348  19303773.588    19303773.8704   19303779.6544
       205.940         160.473
  -2489274.141 9  -1928237.67646  23353254.677    23353254.1864   23353261.7634
     -1150.868        -896.780
 -27098253.111 9 -21091838.18148  19835489.987    19835490.3544   19835496.6584
      2357.535        1837.040
 96 10 10 17 26 29.9950000  0  9  1 17 28  3 26  6 23 22 21         -0.005008104
 -10911246.152 9  -8485825.04647  21608164.461    21608165.6134   21608172.8794
      4533.460        3532.566
  -9089968.205 9  -6909391.70548  19400062.799    19400063.1314   19400069.0844
       -71.822         -55.965
 -19374932.190 9 -14469128.365 9  19035492.307    19035492.885    19035498.284
       104.589          81.498
 -25267848.784 9 -19665690.20548  20498730.727    20498732.5064   20498738.6554
      3090.299        2408.025
    659208.340 9    525680.99547  22633762.871    22633763.9924   22633770.0444
     -2120.636       -1652.444
  11421817.060 8   8903288.43946  22653859.283    22653860.2344   22653867.8364
     -2801.812       -2183.230
 -13493679.865 9 -10496268.59448  19302616.115    19302616.4294   19302622.2144
       199.397         155.374
  -2454716.533 9  -1901309.71746  23359830.869    23359830.2034   23359837.9994
     -1153.230        -898.621
 -27168853.981 9 -21146851.83348  19822055.213    19822055.4554   19822061.7244
      2349.243        1830.579
 96 10 10 17 26 59.9940000  0  9  1 17 28  3 26  6 23 22 21         -0.005027764
 -11047152.348 9  -8591725.94447  21582302.223    21582303.5034   21582310.7204
      4526.648        3527.258
  -9087660.921 9  -6907593.83148  19400501.738    19400502.2054   19400508.2044
       -82.787         -64.509
 -19377771.653 9 -14471340.944 9  19034952.162    19034952.551    19034957.965
        84.011          65.463
 -25360318.446 9 -19737744.48548  20481134.380    20481136.0764   20481142.2484
      3073.824        2395.188
    722948.563 9    575348.62947  22645892.267    22645893.3664   22645899.5474
     -2129.515       -1659.362
  11505912.121 8   8968816.97346  22669861.959    22669863.0354   22669870.6924
     -2805.344       -2185.982
 -13499552.527 9 -10500844.70148  19301498.654    19301498.8784   19301504.6464
       191.465         149.194
  -2420071.564 9  -1874313.67746  23366423.687    23366422.9834   23366430.6694
     -1157.250        -901.753
 -27239204.874 9 -21201670.69848  19808667.771    19808668.1034   19808674.3704
      2340.322        1823.628
 96 10 10 17 27 29.9940000  0  9  1 17 28  3 26  6 23 22 21         -0.005047419
 -11182858.167 9  -8697470.70747  21556478.715    21556479.5244   21556486.7264
      4521.335        3523.118
  -9085021.689 9  -6905537.30248  19401003.971    19401004.4824   19401010.4534
       -92.097         -71.764
 -19379996.266 9 -14473074.421 9  19034528.755    19034529.190    19034534.634
        65.303          50.885
 -25452299.726 9 -19809418.19948  20463631.461    20463632.5514   20463638.7234
      3059.287        2383.860
    786945.605 9    625216.42846  22658070.603    22658071.6474   22658077.7694
     -2135.956       -1664.381
  11590107.024 8   9034423.27246  22685884.040    22685884.8284   22685892.5594
     -2806.481       -2186.868
 -13505191.894 9 -10505239.02548  19300425.456    19300425.7264   19300431.4724
       185.412         144.477
  -2385304.479 9  -1847222.49046  23373039.741    23373039.0784   23373046.6254
     -1159.627        -903.605
 -27309292.943 9 -21256284.77448  19795330.309    19795330.7894   19795337.0484
      2333.194        1818.073
 96 10 10 17 27 59.9940000  0  9  1 17 28  3 26  6 23 22 21         -0.005067093
 -11318365.536 9  -8803060.82447  21530692.799    21530693.2444   21530700.4904
      4512.071        3515.899
  -9082066.489 9  -6903234.56048  19401566.438    19401566.8344   19401572.8344
      -105.325         -82.071
 -19381623.609 9 -14474342.487 9  19034218.879    19034219.493    19034224.988
        42.764          33.323
 -25543808.815 9 -19880723.97448  20446217.849    20446218.9354   20446225.1034
      3040.693        2369.371
    851169.257 9    675260.80646  22670292.325    22670293.0624   22670299.0834
     -2146.233       -1672.389
  11674355.697 8   9100071.49646  22701916.462    22701917.1234   22701924.5404
     -2810.493       -2189.995
 -13510608.487 9 -10509459.74548  19299394.651    19299394.9644   19299400.7304
       175.175         136.500
  -2350423.200 9  -1820042.31446  23379677.624    23379676.7634   23379684.4324
     -1166.213        -908.737
 -27379129.615 9 -21310702.94948  19782040.900    19782041.2994   19782047.5704
      2322.034        1809.377
 96 10 10 17 28 29.9940000  0  9  1 17 28  3 26  6 23 22 21         -0.005086787
 -11453697.216 9  -8908514.04947  21504940.511    21504940.4494   21504947.7234
      4508.878        3513.411
  -9078816.354 9  -6900701.99948  19402184.985    19402185.3654   19402191.3144
      -112.549         -87.701
 -19382669.110 9 -14475157.177 9  19034019.763    19034020.520    19034026.046
        25.659          19.994
 -25634844.981 9 -19951661.24048  20428894.410    20428895.3364   20428901.4804
      3027.155        2358.822
    915618.140 9    725480.67646  22682556.722    22682557.3234   22682563.4114
     -2151.731       -1676.674
  11758631.774 8   9165741.09146  22717953.708    22717954.5834   22717961.7414
     -2809.298       -2189.063
 -13515810.701 9 -10513513.42748  19298404.699    19298405.0434   19298410.7994
       170.177         132.605
  -2315439.740 9  -1792782.51946  23386335.197    23386333.9444   23386341.5654
     -1167.207        -909.512
 -27448730.981 9 -21364937.76948  19768796.307    19768796.5554   19768802.8914
      2316.807        1805.304
 96 10 10 17 28 59.9940000  0  9  1 17 28  3 26  6 23 22 21         -0.005106518
 -11588887.920 9  -9013857.41147  21479213.997    21479214.4674   21479221.7744
      4503.058        3508.876
  -9075309.366 9  -6897969.28648  19402852.473    19402852.7014   19402858.6464
      -122.192         -95.215
 -19383157.474 9 -14475537.729 9  19033926.831    19033927.570    19033933.107
         6.025           4.695
 -25725432.301 9 -20022248.74748  20411656.351    20411657.1304   20411663.2604
      3011.188        2346.380
    980286.246 9    775871.35347  22694862.736    22694863.2924   22694869.5154
     -2160.324       -1683.369
  11842923.274 8   9231422.69246  22733994.088    22733994.9824   22734002.0484
     -2811.039       -2190.420
 -13520801.007 9 -10517401.98148  19297454.934    19297455.4434   19297461.2044
       161.670         125.977
  -2280388.066 9  -1765469.56946  23393004.417    23393004.1444   23393011.8074
     -1170.476        -912.059
 -27518133.278 9 -21419017.47048  19755589.154    19755589.6824   19755596.0604
      2309.033        1799.246
 96 10 10 17 29 29.9940000  0  9  1 17 28  3 26  6 23 22 21         -0.005126236
 -11723865.859 9  -9119034.99047  21453528.307    21453529.0274   21453536.3304
      4496.107        3503.460
  -9071475.981 9  -6894982.24748  19403581.937    19403582.1684   19403588.1244
      -132.739        -103.433
 -19383021.601 9 -14475431.864 9  19033952.556    19033953.455    19033958.983
       -14.426         -11.241
 -25815502.680 9 -20092433.45348  20394516.635    20394517.2884   20394523.4054
      2994.161        2333.112
   1045252.426 9    826494.32546  22707225.357    22707226.0274   22707232.3444
     -2170.072       -1690.965
  11927314.368 9   9297181.91246  22750053.784    22750054.3154   22750061.2024
     -2814.421       -2193.055
 -13525497.247 9 -10521061.39348  19296561.392    19296561.7984   19296567.5704
       152.254         118.639
  -2245199.016 9  -1738049.56946  23399701.001    23399700.3414   23399708.0594
     -1174.748        -915.388
 -27587259.323 9 -21472881.91448  19742434.912    19742435.4174   19742441.7964
      2300.120        1792.301
 96 10 10 17 29 59.9940000  0  9  1 17 28  3 26  6 23 22 21         -0.005145928
 -11858637.213 9  -9224051.59147  21427882.941    21427882.8964   21427890.1424
      4489.274        3498.136
  -9067316.183 9  -6891740.85948  19404373.571    19404373.7614   19404379.7164
      -143.964        -112.180
 -19382272.534 9 -14474848.185 9  19034095.105    19034096.031    19034101.503
       -34.863         -27.166
 -25905052.957 9 -20162212.88048  20377475.663    20377476.4134   20377482.5604
      2976.380        2319.257
   1110523.147 9    877354.59146  22719645.927    22719646.6044   22719652.9224
     -2180.485       -1699.079
  12011817.408 8   9363028.34946  22766134.458    22766134.8224   22766141.8584
     -2818.409       -2196.163
 -13529925.825 9 -10524512.24348  19295718.602    19295719.0544   19295724.8204
       143.709         111.981
  -2209890.641 9  -1710536.59046  23406420.776    23406419.3394   23406427.0674
     -1178.447        -918.270
 -27656124.045 9 -21526542.72648  19729330.604    19729330.9204   19729337.2594
      2291.422        1785.524
 96 10 10 17 30 29.9940000  0  9  1 17 28  3 26  6 23 22 21         -0.005165617
 -11993251.809 9  -9328946.03247  21402266.647    21402266.6034   21402273.7714
      4482.607        3492.941
  -9062872.277 9  -6888278.08048  19405219.249    19405219.4194   19405225.3624
      -154.686        -120.535
 -19380965.965 9 -14473830.089 9  19034343.841    19034344.696    19034350.142
       -54.505         -42.471
 -25994122.106 9 -20231617.40248  20360525.971    20360527.0554   20360533.2754
      2959.385        2306.014
   1176046.201 9    928411.45847  22732114.876    22732115.2404   22732121.4654
     -2189.718       -1706.274
  12096388.756 8   9428927.97846  22782228.124    22782228.2944   22782235.5124
     -2821.880       -2198.868
 -13534158.410 9 -10527810.36448  19294913.333    19294913.5554   19294919.3624
       136.111         106.061
  -2174530.993 9  -1682983.66746  23413148.969    23413148.0164   23413155.8474
     -1181.094        -920.333
 -27724784.451 9 -21580044.32648  19716264.932    19716265.3084   19716271.6164
      2283.519        1779.365
 96 10 10 17 30 59.9940000  0 10  1 17 28  3 26  6 23 22 21 31      -0.005185276
 -12127637.690 9  -9433662.26547  21376693.615    21376693.7944   21376700.9354
      4475.167        3487.143
  -9058081.427 9  -6884544.96548  19406130.683    19406131.0574   19406137.0214
      -166.002        -129.352
 -19379056.808 9 -14472342.446 9  19034707.171    19034707.995    19034713.449
       -74.056         -57.706
 -26082667.519 9 -20300613.82148  20343676.401    20343677.3804   20343683.6814
      2942.276        2292.682
   1241854.931 9    979690.95147  22744637.492    22744638.2404   22744644.4344
     -2198.734       -1713.299
  12181076.787 9   9494918.57646  22798343.577    22798343.9664   22798351.1874
     -2825.160       -2201.423
 -13538141.086 9 -10530913.75048  19294155.414    19294155.7054   19294161.5064
       128.244          99.930
  -2139075.354 9  -1655355.93546  23419895.165    23419894.9794   23419902.9274
     -1184.005        -922.601
 -27793179.361 9 -21633339.05448  19703249.714    19703250.1514   19703256.4674
      2274.820        1772.587
  -1979817.75618   -874982.38555  23503104.476    23503103.9615   23503110.2605
      4352.975        3391.928
 96 10 10 17 31 29.9940000  0 10  1 17 28  3 26  6 23 22 21 31      -0.005204899
 -12261775.484 9  -9538185.18047  21351167.914    21351168.1774   21351175.3734
      4467.352        3481.053
  -9052928.571 9  -6880529.76048  19407111.082    19407111.5794   19407117.6004
      -177.447        -138.270
 -19376541.339 9 -14470382.357 9  19035185.687    19035186.683    19035192.145
       -93.640         -72.966
 -26170680.563 9 -20369195.41648  20326928.028    20326929.0124   20326935.3604
      2925.250        2279.416
   1307947.657 9   1031191.72547  22757214.522    22757215.3824   22757221.5574
     -2207.295       -1719.970
  12265879.411 8   9560998.48946  22814480.026    22814481.2874   22814488.7454
     -2828.171       -2203.770
 -13541879.008 9 -10533826.42748  19293444.204    19293444.4464   19293450.2284
       120.994          94.281
  -2103513.358 9  -1627645.32346  23426662.712    23426662.1274   23426670.1764
     -1186.728        -924.723
 -27861291.951 9 -21686413.79348  19690288.391    19690288.7314   19690295.0714
      2265.987        1765.704
  -2110304.331 8   -976660.26745  23478272.661    23478273.1024   23478279.4984
      4346.107        3386.577
 96 10 10 17 31 59.9940000  0 10  1 17 28  3 26  6 23 22 21 31      -0.005224492
 -12395658.444 9  -9642509.51747  21325690.699    21325691.0344   21325698.2434
      4459.867        3475.221
  -9047412.557 9  -6876231.57548  19408160.648    19408161.2764   19408167.3094
      -188.471        -146.861
 -19373420.017 9 -14467950.172 9  19035779.763    19035780.662    19035786.134
      -112.810         -87.904
 -26258163.260 9 -20437363.74248  20310280.331    20310281.6494   20310287.9794
      2908.568        2266.417
   1374307.373 9   1082900.52947  22769842.135    22769843.2154   22769849.4204
     -2214.813       -1725.828
  12350776.455 8   9627151.93646  22830635.421    22830636.6164   22830644.2434
     -2829.896       -2205.114
 -13545382.713 9 -10536556.59248  19292777.401    19292777.7264   19292783.4944
       114.036          88.859
  -2067854.531 9  -1599859.26946  23433447.942    23433447.7874   23433455.9224
     -1188.904        -926.419
 -27929118.022 9 -21739265.26648  19677381.463    19677381.8754   19677388.1944
      2257.270        1758.912
  -2240564.797 8  -1078161.95045  23453483.938    23453485.1504   23453491.8134
      4339.409        3381.358
 96 10 10 17 32 29.9940000  0 10  1 17 28  3 26  6 23 22 21 31      -0.005244088
 -12529305.411 9  -9746649.96347  21300258.265    21300258.8514   21300266.0084
      4450.130        3467.634
  -9041566.577 9  -6871676.27248  19409273.299    19409273.7154   19409279.7804
      -201.155        -156.744
 -19369717.214 9 -14465064.878 9  19036484.576    19036485.291    19036490.776
      -133.895        -104.334
 -26345145.125 9 -20505141.81048  20293728.241    20293729.6134   20293735.9064
      2890.356        2252.225
   1440882.131 9   1134776.91447  22782510.972    22782512.0274   22782518.2054
     -2223.402       -1732.521
  12435723.372 8   9693344.22846  22846800.021    22846801.3564   22846809.2174
     -2833.093       -2207.605
 -13548663.042 9 -10539112.69148  19292153.099    19292153.4964   19292159.2574
       104.730          81.608
  -2032117.063 9  -1572011.94646  23440249.139    23440248.4344   23440256.5474
     -1193.405        -929.926
 -27996672.337 9 -21791904.97948  19664526.303    19664526.7404   19664533.0304
      2246.595        1750.594
  -2370615.497 8  -1179500.16945  23428737.001    23428737.2964   23428744.1404
      4330.561        3374.463
 96 10 10 17 32 59.9940000  0 10  1 17 28  3 26  6 23 22 21 31      -0.005263683
 -12662706.137 9  -9850598.53947  21274873.504    21274873.4984   21274880.6374
      4443.058        3462.123
  -9035383.086 9  -6866857.97348  19410450.049    19410450.3884   19410456.4904
      -211.289        -164.641
 -19365420.113 9 -14461716.501 9  19037302.090    19037302.989    19037308.504
      -152.924        -119.162
 -26431618.723 9 -20572523.83048  20277273.077    20277274.2594   20277280.5314
      2874.057        2239.525
   1507677.362 9   1186825.10946  22795221.367    22795222.7014   22795229.0434
     -2229.976       -1737.644
  12520735.886 8   9759587.61846  22862977.743    22862978.7364   22862986.5074
     -2834.612       -2208.789
 -13551696.568 9 -10541476.48448  19291575.681    19291576.2574   19291582.0194
        97.307          75.824
  -1996283.174 9  -1544089.47146  23447068.049    23447067.4154   23447075.4934
     -1195.839        -931.822
 -28063942.039 9 -21844322.92248  19651725.227    19651725.7344   19651732.0194
      2237.731        1743.686
  -2500435.685 8  -1280658.78945  23404033.278    23404033.3884   23404040.4154
      4323.795        3369.191
 96 10 10 17 33 29.9940000  0 10  1 17 28  3 26  6 23 22 21 31      -0.005283292
 -12795899.245 9  -9954385.34147  21249527.718    21249527.6494   21249534.7154
      4438.080        3458.244
  -9028900.378 9  -6861806.52348  19411683.546    19411684.0574   19411690.1544
      -219.388        -170.952
 -19360546.098 9 -14457918.583 9  19038229.608    19038230.474    19038236.018
      -170.476        -132.838
 -26517590.199 9 -20639514.58448  20260913.416    20260914.4504   20260920.6934
      2858.825        2227.656
   1574671.630 9   1239028.37546  22807969.878    22807971.2524   22807977.7444
     -2234.605       -1741.251
  12605793.807 8   9825866.42946  22879163.686    22879164.7984   22879172.4614
     -2834.354       -2208.588
 -13554511.056 9 -10543669.59848  19291040.182    19291040.6744   19291046.4394
        91.865          71.583
  -1960373.509 9  -1516107.96246  23453901.489    23453900.8224   23453908.9634
     -1196.587        -932.405
 -28130947.202 9 -21896534.73148  19638974.358    19638975.0514   19638981.3584
      2230.824        1738.304
  -2630049.043 8  -1381656.24045  23379369.008    23379368.7774   23379375.7534
      4318.496        3365.062
 96 10 10 17 33 59.9940000  0 10  1 17 28  3 26  6 23 22 21 31      -0.005302928
 -12928918.918 9 -10058036.98547  21224215.024    21224214.7954   21224221.8924
      4429.866        3451.844
  -9022140.446 9  -6856539.05248  19412969.880    19412970.4164   19412976.5604
      -231.344        -180.268
 -19355112.676 9 -14453684.758 9  19039263.560    19039264.419    19039269.975
      -191.798        -149.453
 -26603062.629 9 -20706116.47248  20244648.532    20244649.5354   20244655.7824
      2839.283        2212.428
   1641831.227 9   1291360.48246  22820750.356    22820751.4774   22820757.7834
     -2242.689       -1747.550
  12690877.015 8   9892164.97046  22895353.713    22895355.6164   22895363.3204
     -2837.909       -2211.358
 -13557130.728 9 -10545710.90648  19290541.479    19290542.1844   19290547.9524
        82.647          64.400
  -1924406.567 9  -1488081.81146  23460746.181    23460745.1664   23460753.2894
     -1201.227        -936.021
 -28197710.372 9 -21948557.96848  19626270.239    19626270.4034   19626276.7384
      2220.082        1729.934
  -2759465.320 8  -1482500.09945  23354740.668    23354741.7114   23354748.6524
      4309.167        3357.792
 96 10 10 17 34 29.9940000  0 10  1 17 28  3 26  6 23 22 21 31      -0.005322567
 -13061734.708 9 -10161529.76947  21198940.442    21198940.8264   21198947.8584
      4424.000        3447.273
  -9015069.831 9  -6851029.49548  19414315.374    19414315.9104   19414322.0794
      -240.583        -187.467
 -19349089.395 9 -14448991.307 9  19040409.812    19040410.617    19040416.177
      -210.268        -163.845
 -26687994.715 9 -20772297.31248  20228486.860    20228487.4764   20228493.6984
      2822.406        2199.277
   1709189.531 9   1343847.43046  22833568.322    22833569.4314   22833575.6674
     -2248.531       -1752.102
  12776024.605 8   9958513.63146  22911556.953    22911558.5464   22911566.5394
     -2839.060       -2212.255
 -13559520.346 9 -10547572.94948  19290086.816    19290087.4474   19290093.2004
        76.112          59.308
  -1888351.441 9  -1459986.95146  23467606.815    23467606.3084   23467614.3304
     -1202.754        -937.211
 -28264205.253 9 -22000372.15848  19613616.520    19613616.8474   19613623.1804
      2212.474        1724.006
  -2888641.604 8  -1583156.96845  23330158.204    23330160.2584   23330167.1834
      4302.143        3352.319
 96 10 10 17 34 59.9940000  0 10  1 17 28  3 26  6 23 22 21 31      -0.005342180
 -13194352.526 9 -10264868.28847  21173703.883    21173704.5054   21173711.5014
      4418.296        3442.828
  -9007694.003 9  -6845282.10148  19415718.901    19415719.5374   19415725.6884
      -249.846        -194.685
 -19342483.604 9 -14443843.953 9  19041666.833    19041667.644    19041673.242
      -228.818        -178.300
 -26772393.030 9 -20838062.22948  20212426.139    20212427.0224   20212433.2094
      2805.477        2186.086
   1776761.537 9   1396500.89146  22846426.882    22846428.0704   22846434.2954
     -2254.959       -1757.111
  12861230.558 8  10024907.74346  22927770.738    22927772.6484   22927780.7104
     -2839.764       -2212.803
 -13561680.551 9 -10549256.22548  19289675.851    19289676.3674   19289682.1084
        69.343          54.034
  -1852227.561 9  -1431838.51046  23474480.915    23474480.4584   23474488.5634
     -1204.100        -938.260
 -28330441.718 9 -22051984.97948  19601011.818    19601012.4734   19601018.8104
      2204.691        1717.941
  -3017576.198 8  -1683625.49345  23305624.068    23305624.7094   23305631.8424
      4295.044        3346.788
 96 10 10 17 35 29.9940000  0 10  1 17 28  3 26  6 23 22 21 31      -0.005361835
 -13326752.057 9 -10368036.71247  21148509.022    21148509.6894   21148516.6174
      4407.906        3434.732
  -8999992.249 9  -6839280.74048  19417184.558    19417185.1524   19417191.2724
      -263.969        -205.690
 -19335285.122 9 -14438234.755 9  19043036.737    19043037.478    19043043.080
      -251.342        -195.851
 -26856252.380 9 -20903407.17248  20196468.053    20196469.1614   20196475.2994
      2784.988        2170.120
   1844563.155 9   1449333.28746  22859329.002    22859330.2764   22859336.5104
     -2265.374       -1765.226
  12946486.466 8  10091340.76346  22943993.518    22943996.2434   22944004.4574
     -2844.164       -2216.232
 -13563606.686 9 -10550757.11048  19289309.351    19289309.8304   19289315.5794
        58.672          45.718
  -1816031.151 9  -1403633.54946  23481368.833    23481368.4334   23481376.4234
     -1209.296        -942.309
 -28396422.949 9 -22103398.91848  19588456.030    19588456.6454   19588462.9894
      2193.870        1709.509
  -3146260.249 8  -1783898.80846  23281136.545    23281137.0214   23281144.0474
      4283.790        3338.018
 96 10 10 17 35 59.9940000  0 10  1 17 28  3 26  6 23 22 21 31      -0.005381460
 -13458870.117 9 -10470985.81047  21123367.718    21123368.4414   21123375.3484
      4397.737        3426.808
  -8991901.456 9  -6832976.23548  19418723.966    19418724.7844   19418730.8894
      -277.449        -216.194
 -19327458.698 9 -14432136.257 9  19044526.017    19044526.804    19044532.411
      -272.566        -212.389
 -26939552.755 9 -20968316.55248  20180616.786    20180617.6654   20180623.7324
      2766.174        2155.460
   1912640.977 9   1502380.87746  22872283.761    22872285.1134   22872291.2894
     -2275.390       -1773.031
  13031827.745 9  10157840.37546  22960234.807    22960236.3394   22960244.3624
     -2847.372       -2218.731
 -13565250.693 9 -10552038.15848  19288996.558    19288996.9834   19289002.7374
        48.685          37.936
  -1779730.746 9  -1375347.56446  23488277.052    23488276.0534   23488284.1834
     -1212.940        -945.148
 -28462128.622 9 -22154598.13948  19575952.538    19575953.2814   19575959.6174
      2184.260        1702.021
  -3274658.575 9  -1883949.46446  23256702.501    23256703.6914   23256710.7294
      4273.862        3330.282
 96 10 10 17 36 29.9940000  0 10  1 17 28  3 26  6 23 22 21 31      -0.005401069
 -13590725.551 9 -10573730.26647  21098276.965    21098277.1594   21098284.0914
      4390.605        3421.251
  -8983460.034 9  -6826398.50948  19420330.396    19420331.1254   19420337.2274
      -287.339        -223.901
 -19319047.032 9 -14425581.726 9  19046126.894    19046127.504    19046133.122
      -290.346        -226.244
 -27022346.389 9 -21032831.07648  20164861.814    20164862.5814   20164868.6164
      2751.220        2143.808
   1980978.967 9   1555631.20446  22885288.197    22885289.4344   22885295.6204
     -2282.636       -1778.677
  13117213.188 8  10224374.35446  22976483.428    22976484.8874   22976492.7524
     -2847.095       -2218.515
 -13566641.795 9 -10553122.13948  19288731.798    19288732.2614   19288738.0354
        41.947          32.686
  -1743375.643 9  -1347018.94646  23495195.006    23495194.1274   23495202.4264
     -1212.902        -945.118
 -28527600.635 9 -22205615.28648  19563493.353    19563494.3564   19563500.6784
      2178.262        1697.347
  -3402814.996 8  -1983811.64046  23232315.429    23232316.3514   23232323.3614
      4267.690        3325.473
 96 10 10 17 36 59.9940000  0 10  1 17 28  3 26  6 23 22 21 31      -0.005420678
 -13722337.448 9 -10676284.94747  21073231.355    21073232.1834   21073239.1054
      4382.421        3414.874
  -8974686.413 9  -6819561.92948  19422000.156    19422000.7044   19422006.8074
      -298.608        -232.681
 -19310066.586 9 -14418583.989 9  19047835.807    19047836.415    19047842.034
      -309.392        -241.085
 -27104651.935 9 -21096965.26448  20149199.708    20149200.3754   20149206.4104
      2734.705        2130.939
   2049566.554 9   1609076.02946  22898340.187    22898341.2014   22898347.4524
     -2290.691       -1784.954
  13202623.565 8  10290927.78345  22992736.539    22992737.9754   22992745.7654
     -2848.005       -2219.225
 -13567797.032 9 -10554022.33048  19288511.866    19288512.4064   19288518.2114
        34.187          26.639
  -1706987.614 9  -1318664.68046  23502119.678    23502118.6044   23502126.9094
     -1214.154        -946.094
 -28592850.090 9 -22256459.01448  19551077.020    19551077.7924   19551084.1104
      2170.768        1691.508
  -3530759.461 9  -2083508.62946  23207969.117    23207969.4194   23207976.3714
      4260.959        3320.228
 96 10 10 17 37 29.9940000  0 10  1 17 28  3 26  6 23 22 21 31      -0.005440288
 -13853712.085 9 -10778654.76347  21048231.557    21048232.4274   21048239.2914
      4373.788        3408.146
  -8965588.258 9  -6812472.46548  19423731.585    19423732.0534   19423738.1394
      -310.122        -241.654
 -19300525.696 9 -14411149.541 9  19049651.481    19049651.986    19049657.634
      -328.917        -256.299
 -27186465.762 9 -21160716.29748  20133631.240    20133631.6964   20133637.7604
      2717.176        2117.280
   2118376.560 9   1662694.16746  22911434.205    22911435.3214   22911441.6474
     -2298.855       -1791.316
  13288062.397 8  10357503.39846  23008994.829    23008996.6064   23009004.3054
     -2850.062       -2220.828
 -13568731.478 9 -10554750.46948  19288334.034    19288334.6014   19288340.4184
        25.934          20.208
  -1670570.339 9  -1290287.61746  23509049.884    23509048.6414   23509056.8524
     -1215.962        -947.503
 -28657888.039 9 -22307137.92448  19538700.884    19538701.4664   19538707.7984
      2162.692        1685.215
  -3658520.590 9  -2183062.77246  23183658.304    23183657.3534   23183664.2084
      4254.043        3314.839
 96 10 10 17 37 59.9940000  0 10  1 17 28  3 26  6 23 22 21 31      -0.005459857
 -13984789.649 9 -10880793.08547  21023288.796    21023289.1414   21023296.0564
      4364.911        3401.229
  -8956111.986 9  -6805088.36048  19425534.940    19425535.3494   19425541.4164
      -321.364        -250.413
 -19290356.609 9 -14403225.590 9  19051586.463    19051587.101    19051592.756
      -348.909        -271.877
 -27267701.718 9 -21224017.03948  20118172.548    20118172.9784   20118179.0884
      2698.498        2102.726
   2187469.971 9   1716533.15046  22924582.103    22924583.3104   22924589.6244
     -2307.197       -1797.816
  13373604.273 9  10424159.26246  23025274.046    23025274.8174   23025282.6064
     -2852.388       -2222.640
 -13569385.409 9 -10555260.03148  19288209.831    19288210.1914   19288215.9564
        17.915          13.960
  -1634060.409 9  -1261838.34946  23515997.123    23515996.2834   23516004.5384
     -1217.861        -948.983
 -28722622.679 9 -22357580.49848  19526382.136    19526382.8934   19526389.2014
      2152.986        1677.651
  -3786025.690 9  -2282417.39946  23159394.894    23159393.9834   23159400.7994
      4246.160        3308.696
 96 10 10 17 38 29.9940000  0 10  1 17 28  3 26  6 23 22 21 31      -0.005479446
 -14115678.170 9 -10982784.10247  20998380.955    20998381.8504   20998388.7514
      4359.143        3396.735
  -8946373.839 9  -6797500.20648  19427387.900    19427388.4884   19427394.5684
      -329.794        -256.982
 -19279657.419 9 -14394888.571 9  19053622.428    19053623.101    19053628.744
      -366.326        -285.449
 -27348436.881 9 -21286927.55248  20102809.270    20102809.5964   20102815.7074
      2681.914        2089.803
   2256735.141 9   1770505.96146  22937762.971    22937764.0314   22937770.3734
     -2312.335       -1801.819
  13459142.885 8  10490812.59846  23041551.436    23041552.2624   23041560.2264
     -2852.022       -2222.355
 -13569878.576 9 -10555644.32148  19288115.769    19288116.3354   19288122.1454
        13.080          10.192
  -1597567.052 9  -1233402.01846  23522940.715    23522940.6614   23522948.9794
     -1216.989        -948.303
 -28787136.128 9 -22407850.70848  19514105.930    19514106.3854   19514112.7024
      2145.954        1672.172
  -3913360.614 9  -2381639.41846  23135163.310    23135163.0534   23135169.8144
      4240.777        3304.502
 96 10 10 17 38 59.9940000  0 10  1 17 28  3 26  6 23 22 21 31      -0.005499043
 -14246369.457 9 -11084621.44347  20973511.321    20973512.1064   20973518.9654
      4353.057        3391.992
  -8936349.019 9  -6789688.66048  19429295.620    19429296.1554   19429302.2214
      -338.948        -264.115
 -19268406.492 9 -14386121.624 9  19055763.416    19055764.112    19055769.734
      -384.089        -299.290
 -27428633.576 9 -21349418.47948  20087548.396    20087548.6574   20087554.7804
      2664.194        2075.995
   2326173.181 9   1824613.47146  22950976.944    22950977.7374   22950984.0124
     -2317.146       -1805.568
  13544690.338 8  10557472.80746  23057831.052    23057831.4764   23057839.4944
     -2851.487       -2221.938
 -13570203.796 9 -10555897.74248  19288053.849    19288054.4434   19288060.2334
         8.262           6.438
  -1561067.586 9  -1204960.88046  23529885.749    23529886.3744   23529894.7204
     -1216.674        -948.058
 -28851403.848 9 -22457929.44448  19501876.320    19501876.6384   19501882.9694
      2138.272        1666.186
  -4040504.675 9  -2480712.72746  23110969.066    23110968.5074   23110975.1194
      4234.987        3299.990
 96 10 10 17 39 29.9940000  0 10  1 17 28  3 26  6 23 22 21 31      -0.005518640
 -14376843.725 9 -11186289.66247  20948683.139    20948683.6234   20948690.5294
      4345.362        3385.996
  -8926028.525 9  -6781646.71948  19431259.730    19431260.1034   19431266.0964
      -349.029        -271.971
 -19256599.043 9 -14376921.025 9  19058010.384    19058011.004    19058016.599
      -402.970        -314.002
 -27508276.082 9 -21411477.57348  20072392.820    20072393.1344   20072399.2504
      2645.505        2061.432
   2395782.542 9   1878854.47846  22964223.055    22964224.0304   22964230.1634
     -2323.383       -1810.428
  13630232.300 8  10624128.72645  23074109.358    23074109.6164   23074117.7634
     -2851.175       -2221.695
 -13570358.437 9 -10556018.24548  19288024.520    19288024.9974   19288030.8064
         2.147           1.673
  -1524551.843 9  -1176507.12446  23536835.463    23536835.1824   23536843.4874
     -1217.599        -948.778
 -28915415.470 9 -22507808.62248  19489695.133    19489695.6454   19489701.9544
      2129.277        1659.177
  -4167434.169 9  -2579618.83146  23086815.565    23086814.6984   23086821.3704
      4226.843        3293.644
 96 10 10 17 39 59.9940000  0 10  1 17 28  3 26  6 23 22 21 31      -0.005538232
 -14507090.884 9 -11287780.92647  20923897.546    20923898.3994   20923905.2904
      4336.695        3379.243
  -8915405.385 9  -6773368.95248  19433281.472    19433281.6664   19433287.6224
      -360.140        -280.629
 -19244232.181 9 -14367284.521 9  19060363.839    19060364.359    19060369.926
      -422.453        -329.184
 -27587366.429 9 -21473106.40948  20057342.041    20057342.7104   20057348.8744
      2626.198        2046.388
   2465573.510 9   1933236.99046  22977503.898    22977504.8164   22977510.9354
     -2330.274       -1815.798
  13715756.471 8  10690770.78045  23090383.558    23090384.6294   23090392.5564
     -2851.479       -2221.932
 -13570339.559 9 -10556003.53448  19288028.244    19288028.6174   19288034.4234
        -4.600          -3.584
  -1488017.546 9  -1148038.85246  23543787.619    23543787.4624   23543795.7094
     -1219.028        -949.892
 -28979164.240 9 -22557482.97548  19477564.323    19477564.6374   19477570.9494
      2119.733        1651.740
  -4294106.776 9  -2678324.74546  23062709.990    23062709.7714   23062716.3594
      4216.932        3285.921
 96 10 10 17 40 29.9940000  0 10  1 17 28  3 26  6 23 22 21 31      -0.005557817
 -14637097.046 9 -11389084.41647  20899158.303    20899159.0624   20899165.8634
      4329.802        3373.872
  -8904467.007 9  -6764845.54948  19435362.930    19435363.1714   19435369.1494
      -369.661        -288.048
 -19231305.076 9 -14357211.468 9  19062823.758    19062824.323    19062829.895
      -439.874        -342.759
 -27665902.790 9 -21534303.57748  20042396.963    20042397.7614   20042403.9284
      2609.223        2033.161
   2535550.908 9   1987764.79046  22990819.579    22990820.9394   22990827.3294
     -2335.391       -1819.785
  13801272.038 7  10757406.17645  23106657.204    23106658.1134   23106666.0964
     -2850.286       -2221.002
 -13570128.889 9 -10555839.39348  19288068.211    19288068.7084   19288074.5214
       -10.061          -7.840
  -1451453.918 9  -1119547.77046  23550745.539    23550745.4334   23550753.4684
     -1219.106        -949.953
 -29042658.435 9 -22606958.97148  19465481.658    19465482.0754   19465488.4034
      2112.615        1646.194
  -4420505.761 9  -2776817.47446  23038657.501    23038656.9194   23038663.5034
      4209.152        3279.859
 96 10 10 17 40 59.9940000  0 10  1 17 28  3 26  6 23 22 21 31      -0.005577397
 -14766844.422 9 -11490186.24147  20874468.596    20874468.9134   20874475.7384
      4321.969        3367.768
  -8893195.822 9  -6756062.81848  19437507.609    19437507.9344   19437514.0234
      -379.620        -295.808
 -19217811.619 9 -14346697.094 9  19065391.227    19065392.031    19065397.618
      -457.648        -356.609
 -27743889.990 9 -21595072.82048  20027556.437    20027557.3024   20027563.4554
      2592.034        2019.767
   2605722.897 9   2042444.22146  23004172.862    23004174.1754   23004180.6444
     -2340.638       -1823.874
  13886798.900 7  10824050.32245  23122931.580    23122933.1984   23122940.7454
     -2849.621       -2220.484
 -13569704.844 9 -10555508.97048  19288148.799    19288149.3804   19288155.2094
       -16.238         -12.653
  -1414837.952 9  -1091015.88646  23557712.844    23557713.1774   23557721.4134
     -1219.834        -950.520
 -29105888.582 9 -22656229.20348  19453449.255    19453449.7644   19453456.0744
      2104.826        1640.124
  -4546625.726 9  -2875092.76946  23014657.025    23014657.1284   23014663.6864
      4200.757        3273.317
 96 10 10 17 41 29.9940000  0 10  1 17 28  3 26  6 23 22 21 31      -0.005596999
 -14896354.746 9 -11591103.34447  20849823.053    20849823.8164   20849830.7014
      4313.564        3361.219
  -8881638.520 9  -6747057.13848  19439707.018    19439707.2084   19439713.3304
      -389.405        -303.432
 -19203789.441 9 -14335770.738 9  19068059.605    19068060.359    19068065.978
      -475.737        -370.704
 -27821376.447 9 -21655451.87648  20012811.120    20012812.1254   20012818.2094
      2575.165        2006.622
   2676047.180 9   2097242.30646  23017555.281    23017556.3544   23017562.9964
     -2346.216       -1828.220
  13972318.76417  10890689.04254  23139206.324    23139207.9925          0.0005
     -2850.236       -2220.963
 -13569091.324 9 -10555030.91148  19288265.602    19288266.1424   19288271.9494
       -23.155         -18.043
  -1378209.325 9  -1062474.17346  23564682.920    23564683.4094   23564691.5964
     -1220.554        -951.081
 -29168893.690 9 -22705324.07748  19441459.814    19441460.2694   19441466.5924
      2097.004        1634.029
  -4672488.312 9  -2973167.51246  22990705.918    22990706.2254   22990712.7554
      4191.599        3266.181
 96 10 10 17 41 59.9940000  0 10  1 17 28  3 26  6 23 22 21 31      -0.005616595
 -15025575.500 9 -11691794.81847  20825233.331    20825233.8884   20825240.8034
      4302.537        3352.626
  -8869739.068 9  -6737784.84548  19441971.498    19441971.6204   19441977.7414
      -402.408        -313.565
 -19189182.490 9 -14324388.712 9  19070839.416    19070839.973    19070845.600
      -496.604        -386.964
 -27898314.800 9 -21715403.83548  19998170.225    19998171.2594   19998177.3274
      2555.349        1991.181
   2746577.197 9   2152200.69646  23030976.784    23030977.8294   23030984.3074
     -2354.287       -1834.509
  14057910.78917  10957383.99254  23155492.846    23155495.1045          0.0005
     -2854.631       -2224.388
 -13568231.863 9 -10554361.20248  19288429.229    19288429.7074   19288435.5284
       -32.652         -25.443
  -1341521.742 9  -1033886.44446  23571664.076    23571664.8244   23571673.0854
     -1223.818        -953.624
 -29231620.476 9 -22754202.08548  19429523.440    19429523.7834   19429530.1014
      2086.173        1625.589
  -4798043.134 9  -3071002.43546  22966813.930    22966813.9364   22966820.4234
      4180.391        3257.448
 96 10 10 17 42 29.9940000  0 10  1 17 28  3 26  6 23 22 21 31      -0.005636176
 -15154489.641 9 -11792247.37247  20800701.743    20800702.2774   20800709.2414
      4293.547        3345.621
  -8857472.144 9  -6728226.22048  19444305.500    19444305.9524   19444312.1244
      -413.643        -322.319
 -19173973.291 9 -14312537.402 9  19073733.533    19073734.188    19073739.817
      -515.559        -401.734
 -27974679.755 9 -21774908.99748  19983638.482    19983639.5024   19983645.5844
      2537.427        1977.216
   2817325.195 9   2207328.97046  23044439.479    23044440.8554   23044447.2124
     -2360.304       -1839.198
  14143592.37716  11024148.72054  23171797.674           0.0005          0.0005
     -2855.598       -2225.141
 -13567114.082 9 -10553490.21048  19288641.965    19288642.4284   19288648.2634
       -40.087         -31.237
  -1304761.628 8  -1005242.22546  23578659.730    23578660.0494   23578668.4124
     -1225.043        -954.579
 -29294040.337 9 -22802840.93048  19417645.226    19417645.6634   19417651.9974
      2077.050        1618.481
  -4923305.342 9  -3168609.34546  22942977.966    22942977.3214   22942983.8404
      4172.253        3251.106
 96 10 10 17 42 59.9940000  0  9  1 17 28  3 26 23 22 21 31         -0.005655773
 -15283146.014 9 -11892499.07347  20776219.297    20776219.7214   20776226.6534
      4284.147        3338.296
  -8844881.501 9  -6718415.34048  19446701.456    19446701.9034   19446708.0044
      -425.189        -331.316
 -19158210.323 9 -14300254.585 9  19076733.206    19076733.769    19076739.418
      -534.809        -416.734
 -28050510.716 9 -21833998.05448  19969208.364    19969209.3054   19969215.4344
      2518.335        1962.339
   2888230.045 9   2262579.45646  23057932.197    23057933.8484   23057940.1354
     -2366.180       -1843.777
 -13565791.374 9 -10552459.53748  19288893.579    19288894.1254   19288899.9944
       -47.654         -37.133
  -1267986.878 8   -976586.60845  23585657.632    23585658.0214   23585666.5534
     -1226.057        -955.369
 -29356203.396 9 -22851279.67048  19405815.917    19405816.4254   19405822.7844
      2067.714        1611.206
  -5048330.461 9  -3266031.50246  22919187.437    22919185.8594   22919192.3974
      4163.103        3243.976
 96 10 10 17 43 29.9940000  0  9  1 17 28  3 26 23 22 21 31         -0.005675383
 -15411547.197 9 -11992551.92547  20751785.365    20751785.7584   20751792.6954
      4275.898        3331.869
  -8831958.180 9  -6708345.23248  19449160.637    19449161.1624   19449167.2234
      -436.452        -340.092
 -19141889.887 9 -14287537.379 9  19079838.773    19079839.448    19079845.096
      -553.224        -431.084
 -28125785.514 9 -21892653.73848  19954883.700    19954884.9684   19954891.1424
      2500.002        1948.053
   2959294.731 9   2317954.49146  23071455.436    23071457.1174   23071463.5124
     -2371.505       -1847.926
 -13564263.715 9 -10551269.16748  19289184.304    19289184.8474   19289190.6884
       -54.034         -42.104
  -1231206.263 8   -947926.42245  23592657.776    23592657.2444   23592665.6564
     -1226.033        -955.350
 -29418114.172 9 -22899521.83048  19394034.611    19394035.1894   19394041.5654
      2059.593        1604.878
  -5173094.222 9  -3363250.02446  22895446.085    22895444.1934   22895450.7394
      4154.532        3237.298
 96 10 10 17 43 59.9940000  0  9  1 17 28  3 26 23 22 21 31         -0.005694995
 -15539701.785 9 -12092412.61447  20727398.108    20727398.7814   20727405.6734
      4268.428        3326.048
  -8818686.650 9  -6698003.79348  19451686.068    19451686.6084   19451692.7254
      -447.526        -348.721
 -19125021.381 9 -14274393.101 9  19083048.709    19083049.430    19083055.088
      -570.624        -444.642
 -28200506.357 9 -21950877.76448  19940664.597    19940666.1004   19940672.2564
      2482.052        1934.066
   3030517.200 9   2373452.44446  23085008.923    23085010.4184   23085016.9254
     -2375.999       -1851.428
 -13562561.725 9 -10549942.94948  19289508.148    19289508.7414   19289514.5444
       -58.683         -45.727
  -1194427.038 8   -919267.32345  23599657.467    23599656.0024   23599664.6064
     -1225.290        -954.771
 -29479781.644 9 -22947574.39848  19382299.673    19382300.2724   19382306.6074
      2052.352        1599.235
  -5297607.926 9  -3460273.67746  22871750.095    22871750.1104   22871756.6204
      4146.938        3231.380
